[[{"header":{"parameterUnit":"m.s-1","parameterCategory":1,"la1":31.0,"la2":29.5877,"lo1":-88.7671,"lo2":-86.6584,"dy":0.0162,"dx":0.0185,"nx":115,"ny":88,"refTime":"2023-06-13T12:00:00:Z","depth":0,"parameterNumber":2,"parameterNumberName":"U-component_of_WINDS"},"data":[0.0,0.0,0.0,0.0,0.0,0.0,0.0,0.0,0.0,0.0,0.0,0.0,0.0,0.0,0.0,0.0,0.0,0.0,0.0,0.0,0.0,0.0,0.0,0.0,0.0,0.0,0.0,0.0,0.0,0.0,0.0,0.0,0.0,0.0,0.0,0.0,0.0,0.0,0.0,0.0,0.0,0.0,0.0,0.0,0.0,0.0,0.0,0.0,0.0,0.0,0.0,0.0,0.0,0.0,0.0,0.0,0.0,0.0,0.0,0.0,0.0,0.0,0.0,0.0,0.0,0.0,0.0,0.0,0.0,0.0,0.0,0.0,0.0,0.0,0.0,0.0,0.0,0.0,0.0,0.0,0.0,0.0,0.0,0.0,0.0,0.0,0.0,0.0,0.0,0.0,0.0,0.0,0.0,0.0,0.0,0.0,0.0,0.0,0.0,0.0,0.0,0.0,0.0,0.0,0.0,0.0,0.0,0.0,0.0,0.0,0.0,0.0,0.0,0.0,0.0,0.0,0.0,0.0,0.0,0.0,0.0,0.0,0.0,0.0,0.0,0.0,0.0,0.0,0.0,0.0,0.0,0.0,0.0,0.0,0.0,0.0,0.0,0.0,0.0,0.0,0.0,0.0,0.0,0.0,0.0,0.0,0.0,0.0,0.0,0.0,0.0,0.0,0.0,0.0,0.0,0.0,0.0,0.0,0.0,0.0,0.0,0.0,0.0,0.0,0.0,0.0,0.0,0.0,0.0,0.0,0.0,0.0,0.0,0.0,0.0,0.0,0.0,0.0,0.0,0.0,0.0,0.0,0.0,0.0,0.0,0.0,0.0,0.0,0.0,0.0,0.0,0.0,0.0,0.0,0.0,0.0,0.0,0.0,0.0,0.0,0.0,0.0,0.0,0.0,0.0,0.0,0.0,0.0,0.0,0.0,0.0,0.0,0.0,0.0,0.0,0.0,0.0,0.0,0.0,0.0,0.0,0.0,0.0,0.0,0.0,0.0,0.0,0.0,0.0,0.0,0.0,0.0,0.0,0.0,0.0,0.0,0.0,0.0,0.0,0.0,0.0,0.0,0.0,0.0,0.0,0.0,0.0,0.0,0.0,0.0,0.0,0.0,0.0,0.0,0.0,0.0,0.0,0.0,0.0,0.0,0.0,0.0,0.0,0.0,0.0,0.0,0.0,0.0,0.0,0.0,0.0,0.0,0.0,0.0,0.0,0.0,0.0,0.0,0.0,0.0,0.0,0.0,0.0,0.0,0.0,0.0,0.0,0.0,0.0,0.0,0.0,0.0,0.0,0.0,0.0,0.0,0.0,0.0,0.0,0.0,0.0,0.0,0.0,0.0,0.0,0.0,0.0,0.0,0.0,0.0,0.0,0.0,0.0,0.0,0.0,0.0,0.0,0.0,0.0,0.0,0.0,0.0,0.0,0.0,0.0,0.0,0.0,0.0,0.0,0.0,0.0,0.0,0.0,0.0,0.0,0.0,0.0,0.0,0.0,0.0,0.0,0.0,0.0,0.0,0.0,0.0,0.0,0.0,0.0,0.0,0.0,0.0,0.0,0.0,0.0,0.0,0.0,0.0,0.0,0.0,0.0,0.0,0.0,0.0,0.0,0.0,0.0,0.0,0.0,0.0,0.0,0.0,0.0,0.0,0.0,0.0,0.0,0.0,0.0,0.0,0.0,0.0,0.0,0.0,0.0,0.0,0.0,0.0,0.0,0.0,0.0,0.0,0.0,0.0,0.0,0.0,0.0,0.0,0.0,0.0,0.0,0.0,0.0,0.0,0.0,0.0,0.0,0.0,0.0,0.0,0.0,0.0,0.0,0.0,0.0,0.0,0.0,0.0,0.0,0.0,0.0,0.0,0.0,0.0,0.0,0.0,0.0,0.0,0.0,0.0,0.0,0.0,0.0,0.0,0.0,0.0,0.0,0.0,0.0,0.0,0.0,0.0,0.0,0.0,0.0,0.0,0.0,0.0,0.0,0.0,0.0,0.0,0.0,0.0,0.0,0.0,0.0,0.0,0.0,0.0,0.0,0.0,0.0,0.0,0.0,0.0,0.0,0.0,0.0,0.0,0.0,0.0,0.0,0.0,0.0,0.0,0.0,0.0,0.0,0.0,0.0,0.0,0.0,0.0,0.0,0.0,0.0,0.0,0.0,0.0,0.0,0.0,0.0,0.0,0.0,0.0,0.0,0.0,0.0,0.0,0.0,0.0,0.0,0.0,0.0,0.0,0.0,0.0,0.0,0.0,0.0,0.0,0.0,0.0,0.0,0.0,0.0,0.0,0.0,0.0,0.0,0.0,0.0,0.0,0.0,0.0,0.0,0.0,0.0,0.0,0.0,0.0,0.0,0.0,0.0,0.0,0.0,0.0,0.0,0.0,0.0,0.0,0.0,0.0,0.0,0.0,0.0,0.0,0.0,0.0,0.0,0.0,0.0,0.0,0.0,0.0,0.0,0.0,0.0,0.0,0.0,0.0,0.0,0.0,0.0,0.0,0.0,0.0,0.0,0.0,0.0,0.0,0.0,0.0,0.0,0.0,0.0,0.0,0.0,0.0,0.0,0.0,0.0,0.0,0.0,0.0,0.0,0.0,0.0,0.0,0.0,0.0,0.0,0.0,0.0,0.0,0.0,0.0,0.0,0.0,0.0,0.0,0.0,0.0,0.0,0.0,0.0,0.0,0.0,0.0,0.0,0.0,0.0,0.0,0.0,0.0,0.0,0.0,0.0,0.0,0.0,0.0,0.0,0.0,0.0,0.0,0.0,0.0,0.0,0.0,0.0,0.0,0.0,0.0,0.0,0.0,0.0,0.0,0.0,0.0,0.0,0.0,0.0,0.0,0.0,0.0,0.0,0.0,0.0,0.0,0.0,0.0,0.0,0.0,0.0,0.0,0.0,0.0,0.0,0.0,0.0,0.0,0.0,0.0,0.0,0.0,0.0,0.0,0.0,0.0,0.0,0.0,0.0,0.0,0.0,0.0,0.0,0.0,0.0,0.0,0.0,0.0,0.0,0.0,0.0,0.0,0.0,0.0,0.0,0.0,0.0,0.0,0.0,0.0,0.0,0.0,0.0,0.0,0.0,0.0,0.0,0.0,0.0,0.0,0.0,0.0,0.0,0.0,0.0,0.0,0.0,0.0,0.0,0.0,0.0,0.0,0.0,0.0,0.0,0.0,0.0,0.0,0.0,0.0,0.0,0.0,0.0,0.0,0.0,0.0,0.0,0.0,0.0,0.0,0.0,0.0,0.0,0.0,0.0,0.0,0.0,0.0,0.0,0.0,0.0,0.0,0.0,0.0,0.0,0.0,0.0,0.0,0.0,0.0,0.0,0.0,0.0,0.0,0.0,0.0,0.0,0.0,0.0,0.0,0.0,0.0,0.0,0.0,0.0,0.0,0.0,0.0,0.0,0.0,0.0,0.0,0.0,0.0,0.0,0.0,0.0,0.0,0.0,0.0,0.0,0.0,0.0,0.0,0.0,0.0,0.0,0.0,0.0,0.0,0.0,0.0,0.0,0.0,0.0,0.0,0.0,0.0,0.0,0.0,0.0,0.0,0.0,0.0,0.0,0.0,0.0,0.0,0.0,0.0,0.0,0.0,0.0,0.0,0.0,0.0,0.0,0.0,0.0,0.0,0.0,0.0,0.0,0.0,0.0,0.0,0.0,0.0,0.0,0.0,0.0,0.0,0.0,0.0,0.0,0.0,0.0,0.0,0.0,0.0,0.0,0.0,0.0,0.0,0.0,0.0,0.0,0.0,0.0,0.0,0.0,0.0,0.0,0.0,0.0,0.0,0.0,0.0,0.0,0.0,0.0,0.0,0.0,0.0,0.0,0.0,0.0,0.0,0.0,0.0,0.0,0.0,0.0,0.0,0.0,0.0,0.0,0.0,0.0,0.0,0.0,0.0,0.0,0.0,0.0,0.0,0.0,0.0,0.0,0.0,0.0,0.0,0.0,0.0,0.0,0.0,0.0,0.0,0.0,0.0,0.0,0.0,0.0,0.0,0.0,0.0,0.0,0.0,0.0,0.0,0.0,0.0,0.0,0.0,0.0,0.0,0.0,0.0,0.0,0.0,0.0,0.0,0.0,0.0,0.0,0.0,0.0,0.0,0.0,0.0,0.0,0.0,0.0,0.0,0.0,0.0,0.0,0.0,0.0,0.0,0.0,0.0,0.0,0.0,0.0,0.0,0.0,0.0,0.0,0.0,0.0,0.0,0.0,0.0,0.0,0.0,0.0,0.0,0.0,0.0,0.0,0.0,-3.6073,0.0,0.0,0.0,0.0,0.0,0.0,0.0,0.0,0.0,0.0,0.0,0.0,0.0,0.0,0.0,0.0,0.0,0.0,0.0,0.0,0.0,0.0,0.0,0.0,0.0,0.0,0.0,0.0,0.0,0.0,0.0,0.0,0.0,0.0,0.0,0.0,0.0,0.0,0.0,0.0,0.0,0.0,0.0,0.0,0.0,0.0,0.0,0.0,0.0,0.0,0.0,0.0,0.0,0.0,0.0,0.0,0.0,0.0,0.0,0.0,0.0,0.0,0.0,0.0,0.0,0.0,0.0,0.0,0.0,0.0,0.0,0.0,0.0,0.0,0.0,0.0,0.0,0.0,0.0,0.0,0.0,0.0,0.0,0.0,0.0,0.0,0.0,0.0,0.0,0.0,0.0,0.0,0.0,0.0,0.0,0.0,0.0,0.0,0.0,0.0,0.0,0.0,0.0,0.0,0.0,0.0,0.0,0.0,0.0,0.0,-3.6537,-3.6537,-3.6803,-3.7001,-3.7103,0.0,0.0,0.0,0.0,0.0,0.0,0.0,0.0,0.0,0.0,0.0,0.0,0.0,0.0,0.0,0.0,0.0,0.0,0.0,0.0,0.0,0.0,0.0,0.0,0.0,0.0,0.0,0.0,0.0,0.0,0.0,0.0,0.0,0.0,0.0,0.0,0.0,0.0,0.0,0.0,0.0,0.0,0.0,0.0,0.0,0.0,0.0,0.0,0.0,0.0,0.0,0.0,0.0,0.0,0.0,0.0,0.0,0.0,0.0,0.0,0.0,0.0,0.0,0.0,0.0,0.0,0.0,0.0,0.0,0.0,0.0,0.0,0.0,0.0,0.0,0.0,0.0,0.0,0.0,0.0,0.0,0.0,0.0,0.0,0.0,0.0,0.0,0.0,0.0,0.0,0.0,0.0,0.0,0.0,0.0,0.0,0.0,0.0,0.0,0.0,0.0,0.0,0.0,0.0,0.0,0.0,0.0,0.0,0.0,0.0,0.0,0.0,-3.7966,-3.8077,-3.7849,0.0,0.0,0.0,0.0,0.0,0.0,0.0,0.0,0.0,0.0,0.0,0.0,0.0,0.0,0.0,0.0,0.0,0.0,0.0,0.0,0.0,0.0,0.0,0.0,0.0,0.0,0.0,0.0,0.0,0.0,0.0,0.0,0.0,0.0,0.0,0.0,0.0,0.0,0.0,0.0,0.0,0.0,0.0,0.0,0.0,0.0,0.0,0.0,0.0,0.0,0.0,0.0,0.0,0.0,0.0,0.0,0.0,0.0,0.0,0.0,0.0,0.0,0.0,0.0,0.0,0.0,0.0,0.0,0.0,0.0,0.0,0.0,0.0,0.0,0.0,0.0,0.0,0.0,0.0,0.0,0.0,0.0,0.0,0.0,0.0,0.0,0.0,0.0,0.0,0.0,0.0,0.0,0.0,0.0,0.0,0.0,0.0,0.0,0.0,0.0,0.0,0.0,0.0,0.0,0.0,0.0,0.0,0.0,0.0,0.0,-3.8302,-3.8302,-3.9108,0.0,-3.791,0.0,0.0,0.0,0.0,0.0,0.0,0.0,0.0,0.0,0.0,0.0,0.0,0.0,0.0,0.0,0.0,0.0,0.0,0.0,0.0,0.0,0.0,0.0,0.0,0.0,0.0,0.0,0.0,0.0,0.0,0.0,0.0,0.0,0.0,0.0,0.0,0.0,0.0,0.0,0.0,0.0,0.0,0.0,0.0,0.0,0.0,0.0,0.0,0.0,0.0,0.0,0.0,0.0,0.0,0.0,0.0,0.0,0.0,0.0,0.0,0.0,0.0,0.0,0.0,0.0,0.0,0.0,0.0,0.0,0.0,0.0,0.0,0.0,0.0,0.0,0.0,0.0,0.0,0.0,0.0,0.0,0.0,0.0,0.0,0.0,0.0,0.0,0.0,0.0,0.0,0.0,0.0,0.0,0.0,0.0,0.0,0.0,0.0,0.0,0.0,0.0,0.0,0.0,0.0,0.0,0.0,0.0,0.0,0.0,0.0,-4.0546,-4.0157,-4.0141,-3.9523,0.0,0.0,0.0,0.0,0.0,0.0,0.0,0.0,0.0,0.0,0.0,0.0,0.0,0.0,0.0,0.0,0.0,0.0,0.0,0.0,0.0,0.0,0.0,0.0,0.0,0.0,0.0,0.0,0.0,0.0,0.0,0.0,0.0,0.0,0.0,0.0,0.0,0.0,0.0,0.0,0.0,0.0,0.0,0.0,0.0,0.0,0.0,0.0,0.0,0.0,0.0,0.0,0.0,0.0,0.0,0.0,0.0,0.0,0.0,0.0,0.0,0.0,0.0,0.0,0.0,0.0,0.0,0.0,0.0,0.0,0.0,0.0,0.0,0.0,0.0,0.0,0.0,0.0,0.0,0.0,0.0,0.0,0.0,0.0,0.0,0.0,0.0,0.0,0.0,0.0,0.0,0.0,0.0,0.0,0.0,0.0,0.0,0.0,0.0,0.0,0.0,0.0,0.0,0.0,0.0,0.0,0.0,0.0,0.0,0.0,-4.1953,-4.2491,-4.2162,-4.1205,-4.0038,-3.8721,0.0,0.0,0.0,0.0,0.0,0.0,0.0,0.0,0.0,0.0,0.0,0.0,0.0,0.0,0.0,0.0,0.0,0.0,0.0,0.0,0.0,0.0,0.0,0.0,0.0,0.0,0.0,0.0,0.0,0.0,0.0,0.0,0.0,0.0,0.0,0.0,0.0,0.0,0.0,0.0,0.0,0.0,0.0,0.0,0.0,0.0,0.0,0.0,0.0,0.0,0.0,0.0,0.0,0.0,0.0,0.0,0.0,0.0,0.0,0.0,0.0,0.0,0.0,0.0,0.0,0.0,0.0,0.0,0.0,0.0,0.0,0.0,0.0,0.0,0.0,0.0,0.0,0.0,0.0,0.0,0.0,0.0,0.0,0.0,0.0,0.0,0.0,0.0,0.0,0.0,0.0,0.0,0.0,0.0,0.0,0.0,0.0,0.0,0.0,0.0,0.0,0.0,0.0,0.0,0.0,0.0,0.0,0.0,-4.1422,-4.2641,-4.3529,-4.4107,-4.2342,-4.0726,0.0,0.0,0.0,0.0,0.0,0.0,0.0,0.0,0.0,0.0,0.0,0.0,0.0,0.0,0.0,0.0,0.0,0.0,0.0,0.0,0.0,0.0,0.0,0.0,0.0,0.0,0.0,0.0,0.0,0.0,0.0,0.0,0.0,0.0,0.0,0.0,0.0,0.0,0.0,0.0,0.0,0.0,0.0,0.0,0.0,0.0,0.0,0.0,0.0,0.0,0.0,0.0,0.0,0.0,0.0,0.0,0.0,0.0,0.0,0.0,0.0,0.0,0.0,0.0,0.0,0.0,0.0,0.0,0.0,0.0,0.0,0.0,0.0,0.0,0.0,0.0,0.0,0.0,0.0,0.0,0.0,0.0,0.0,0.0,0.0,0.0,0.0,0.0,0.0,0.0,0.0,0.0,0.0,0.0,0.0,0.0,0.0,0.0,0.0,0.0,0.0,0.0,0.0,0.0,0.0,0.0,0.0,0.0,0.0,-4.2662,-4.3898,-4.4706,-4.4855,-4.3069,-4.1205,0.0,0.0,0.0,0.0,0.0,0.0,0.0,0.0,0.0,0.0,0.0,0.0,0.0,0.0,0.0,0.0,0.0,0.0,0.0,0.0,0.0,0.0,0.0,0.0,0.0,0.0,0.0,0.0,0.0,0.0,0.0,0.0,0.0,0.0,0.0,0.0,0.0,0.0,0.0,0.0,0.0,0.0,0.0,0.0,0.0,0.0,0.0,0.0,0.0,0.0,0.0,0.0,0.0,0.0,0.0,0.0,0.0,0.0,0.0,0.0,0.0,0.0,0.0,0.0,0.0,0.0,0.0,0.0,0.0,0.0,0.0,0.0,0.0,0.0,0.0,0.0,0.0,0.0,0.0,0.0,0.0,0.0,0.0,0.0,0.0,0.0,0.0,0.0,0.0,0.0,0.0,0.0,0.0,0.0,0.0,0.0,0.0,0.0,0.0,0.0,0.0,0.0,0.0,0.0,0.0,0.0,0.0,0.0,0.0,-4.3947,0.0,-4.5394,-4.5544,-4.3718,-4.1833,0.0,0.0,0.0,0.0,0.0,0.0,0.0,0.0,0.0,0.0,0.0,0.0,0.0,0.0,0.0,0.0,0.0,0.0,0.0,0.0,0.0,0.0,0.0,0.0,0.0,0.0,0.0,0.0,0.0,0.0,0.0,0.0,0.0,0.0,0.0,0.0,0.0,0.0,0.0,0.0,0.0,0.0,0.0,0.0,0.0,0.0,0.0,0.0,0.0,0.0,0.0,0.0,0.0,0.0,0.0,0.0,0.0,0.0,0.0,0.0,0.0,0.0,0.0,0.0,0.0,0.0,0.0,0.0,0.0,0.0,0.0,0.0,0.0,0.0,0.0,0.0,0.0,0.0,0.0,0.0,0.0,0.0,0.0,0.0,0.0,0.0,0.0,0.0,0.0,0.0,0.0,0.0,0.0,0.0,0.0,0.0,0.0,0.0,0.0,0.0,0.0,0.0,0.0,0.0,0.0,0.0,0.0,0.0,-4.4018,-4.5214,-4.5334,-4.5723,-4.6219,-4.4366,-4.2692,0.0,0.0,0.0,0.0,0.0,0.0,0.0,0.0,0.0,0.0,0.0,0.0,0.0,0.0,0.0,0.0,0.0,0.0,0.0,0.0,0.0,0.0,0.0,0.0,0.0,0.0,0.0,0.0,0.0,0.0,0.0,0.0,0.0,0.0,0.0,0.0,0.0,0.0,0.0,0.0,0.0,0.0,0.0,0.0,0.0,0.0,0.0,0.0,0.0,0.0,0.0,0.0,0.0,0.0,0.0,0.0,0.0,0.0,0.0,0.0,0.0,0.0,0.0,0.0,0.0,0.0,0.0,0.0,0.0,0.0,0.0,0.0,0.0,0.0,0.0,0.0,0.0,0.0,0.0,0.0,0.0,0.0,0.0,0.0,0.0,0.0,0.0,0.0,0.0,0.0,0.0,0.0,0.0,0.0,0.0,0.0,0.0,0.0,0.0,0.0,0.0,0.0,0.0,0.0,0.0,0.0,0.0,0.0,0.0,-4.6022,-4.689,-4.7249,-4.695,-4.5514,-4.3658,0.0,0.0,0.0,0.0,0.0,0.0,0.0,0.0,0.0,0.0,0.0,0.0,0.0,0.0,0.0,0.0,0.0,0.0,0.0,0.0,0.0,0.0,0.0,0.0,0.0,0.0,0.0,0.0,0.0,0.0,0.0,0.0,0.0,0.0,0.0,0.0,0.0,0.0,0.0,0.0,0.0,0.0,0.0,0.0,0.0,0.0,0.0,0.0,0.0,0.0,0.0,0.0,0.0,0.0,0.0,0.0,0.0,0.0,0.0,0.0,0.0,0.0,0.0,0.0,0.0,0.0,0.0,0.0,0.0,0.0,0.0,0.0,0.0,0.0,0.0,0.0,0.0,0.0,0.0,0.0,0.0,0.0,0.0,0.0,0.0,0.0,0.0,0.0,0.0,0.0,0.0,0.0,0.0,0.0,0.0,0.0,0.0,0.0,0.0,0.0,0.0,0.0,0.0,0.0,0.0,0.0,0.0,0.0,0.0,-4.8147,-4.8716,-4.8835,-4.8416,-4.71,-4.5304,-4.294,0.0,0.0,0.0,0.0,0.0,0.0,0.0,0.0,0.0,0.0,0.0,0.0,0.0,0.0,0.0,0.0,0.0,0.0,0.0,0.0,0.0,0.0,0.0,0.0,0.0,0.0,0.0,0.0,0.0,0.0,0.0,0.0,0.0,0.0,0.0,0.0,0.0,0.0,0.0,0.0,0.0,0.0,0.0,0.0,0.0,0.0,0.0,0.0,0.0,0.0,0.0,0.0,0.0,0.0,0.0,0.0,0.0,0.0,0.0,0.0,0.0,0.0,0.0,0.0,0.0,0.0,0.0,0.0,0.0,0.0,0.0,0.0,0.0,0.0,0.0,0.0,0.0,0.0,0.0,0.0,0.0,0.0,0.0,0.0,0.0,0.0,0.0,0.0,0.0,0.0,0.0,0.0,0.0,0.0,0.0,0.0,0.0,0.0,0.0,0.0,0.0,0.0,0.0,0.0,0.0,0.0,0.0,0.0,-5.1349,-5.0883,-5.0614,-5.0405,-4.9164,-4.7519,0.0,0.0,0.0,0.0,0.0,0.0,0.0,0.0,0.0,0.0,0.0,0.0,0.0,0.0,0.0,0.0,0.0,0.0,0.0,0.0,0.0,0.0,0.0,0.0,0.0,0.0,0.0,0.0,0.0,0.0,0.0,0.0,0.0,0.0,0.0,0.0,0.0,0.0,0.0,0.0,0.0,0.0,0.0,0.0,0.0,0.0,0.0,0.0,0.0,0.0,0.0,0.0,0.0,0.0,0.0,0.0,0.0,0.0,0.0,0.0,0.0,0.0,0.0,0.0,0.0,0.0,0.0,0.0,0.0,0.0,0.0,0.0,0.0,0.0,0.0,0.0,0.0,0.0,0.0,0.0,0.0,0.0,0.0,0.0,0.0,0.0,0.0,0.0,0.0,0.0,0.0,0.0,0.0,0.0,0.0,0.0,0.0,0.0,0.0,0.0,0.0,0.0,0.0,0.0,0.0,0.0,0.0,0.0,0.0,-5.3384,-5.5149,-5.5099,-5.3234,-5.1409,-4.9523,0.0,0.0,0.0,0.0,0.0,0.0,0.0,0.0,0.0,0.0,0.0,0.0,0.0,0.0,0.0,0.0,0.0,0.0,0.0,0.0,0.0,0.0,0.0,0.0,0.0,0.0,0.0,0.0,0.0,0.0,0.0,0.0,0.0,0.0,0.0,0.0,0.0,0.0,0.0,0.0,0.0,0.0,0.0,0.0,0.0,0.0,0.0,0.0,0.0,0.0,0.0,0.0,0.0,0.0,0.0,0.0,0.0,0.0,0.0,0.0,0.0,0.0,0.0,0.0,0.0,0.0,0.0,0.0,0.0,0.0,0.0,0.0,0.0,0.0,0.0,0.0,0.0,0.0,0.0,0.0,0.0,0.0,0.0,0.0,0.0,0.0,0.0,0.0,0.0,0.0,0.0,0.0,0.0,0.0,0.0,0.0,0.0,0.0,0.0,0.0,0.0,0.0,0.0,0.0,0.0,0.0,0.0,0.0,-5.3025,-5.5807,-5.8171,-5.8919,-5.7962,-5.494,-5.2097,0.0,0.0,0.0,0.0,0.0,0.0,0.0,0.0,0.0,0.0,0.0,0.0,0.0,0.0,0.0,0.0,0.0,0.0,0.0,0.0,0.0,0.0,0.0,0.0,0.0,0.0,0.0,0.0,0.0,0.0,0.0,0.0,0.0,0.0,0.0,0.0,0.0,0.0,0.0,0.0,0.0,0.0,0.0,0.0,0.0,0.0,0.0,0.0,0.0,0.0,0.0,0.0,0.0,0.0,0.0,0.0,0.0,0.0,0.0,0.0,0.0,0.0,0.0,0.0,0.0,0.0,0.0,0.0,0.0,0.0,0.0,0.0,0.0,0.0,0.0,0.0,0.0,0.0,0.0,0.0,0.0,0.0,0.0,0.0,0.0,0.0,0.0,0.0,0.0,0.0,0.0,0.0,0.0,0.0,0.0,0.0,0.0,0.0,0.0,0.0,0.0,0.0,0.0,0.0,0.0,0.0,0.0,0.0,-5.4401,-5.8208,-6.0416,-6.2091,-6.3079,-5.886,-5.4999,0.0,0.0,0.0,0.0,0.0,0.0,0.0,0.0,0.0,0.0,0.0,0.0,0.0,0.0,0.0,0.0,0.0,0.0,0.0,0.0,0.0,0.0,0.0,0.0,0.0,0.0,0.0,0.0,0.0,0.0,0.0,0.0,0.0,0.0,0.0,0.0,0.0,0.0,0.0,0.0,0.0,0.0,0.0,0.0,0.0,0.0,0.0,0.0,0.0,0.0,0.0,0.0,0.0,0.0,0.0,0.0,0.0,0.0,0.0,0.0,0.0,0.0,0.0,0.0,0.0,0.0,0.0,0.0,0.0,0.0,0.0,0.0,0.0,0.0,0.0,0.0,0.0,0.0,0.0,0.0,0.0,0.0,0.0,0.0,0.0,0.0,0.0,0.0,0.0,0.0,0.0,0.0,0.0,0.0,0.0,0.0,0.0,0.0,0.0,0.0,0.0,0.0,0.0,0.0,0.0,0.0,0.0,0.0,-5.6226,-5.9608,-6.263,-6.4336,-6.4575,-6.0625,-5.7423,0.0,0.0,0.0,0.0,0.0,0.0,0.0,0.0,0.0,0.0,0.0,0.0,0.0,0.0,0.0,0.0,0.0,0.0,0.0,0.0,0.0,0.0,0.0,0.0,0.0,0.0,0.0,0.0,0.0,0.0,0.0,0.0,0.0,0.0,0.0,0.0,0.0,0.0,0.0,0.0,0.0,0.0,0.0,0.0,0.0,0.0,0.0,0.0,-3.7487,0.0,0.0,0.0,0.0,0.0,0.0,0.0,0.0,0.0,0.0,0.0,0.0,0.0,0.0,0.0,0.0,0.0,0.0,0.0,0.0,0.0,0.0,0.0,0.0,0.0,0.0,0.0,0.0,0.0,0.0,0.0,0.0,0.0,0.0,0.0,0.0,0.0,0.0,0.0,0.0,0.0,0.0,0.0,0.0,0.0,0.0,0.0,0.0,0.0,0.0,0.0,0.0,0.0,0.0,0.0,0.0,0.0,0.0,0.0,-5.8171,-6.1433,-6.4425,-6.6101,-6.6281,-6.3139,-5.9907,0.0,0.0,0.0,0.0,0.0,0.0,0.0,0.0,0.0,0.0,0.0,0.0,0.0,0.0,0.0,0.0,0.0,0.0,0.0,0.0,0.0,0.0,0.0,0.0,0.0,0.0,0.0,0.0,0.0,0.0,0.0,0.0,0.0,0.0,0.0,0.0,0.0,0.0,0.0,0.0,0.0,0.0,0.0,0.0,0.0,0.0,0.0,0.0,0.0,0.0,0.0,0.0,0.0,0.0,0.0,0.0,0.0,0.0,0.0,0.0,0.0,0.0,0.0,0.0,0.0,0.0,0.0,0.0,0.0,0.0,0.0,0.0,0.0,0.0,0.0,0.0,0.0,0.0,0.0,0.0,0.0,0.0,0.0,0.0,0.0,0.0,0.0,0.0,0.0,0.0,0.0,0.0,0.0,0.0,0.0,0.0,0.0,0.0,0.0,0.0,0.0,0.0,0.0,0.0,0.0,0.0,0.0,-5.6316,-5.9937,-6.3288,-6.5832,-6.7418,-6.7897,-6.5503,-6.2032,-5.7543,0.0,0.0,0.0,0.0,0.0,0.0,0.0,0.0,0.0,0.0,0.0,0.0,0.0,0.0,0.0,0.0,0.0,0.0,0.0,0.0,0.0,0.0,0.0,0.0,0.0,0.0,0.0,0.0,0.0,0.0,0.0,0.0,0.0,0.0,0.0,0.0,0.0,0.0,-3.2867,-3.5152,0.0,0.0,0.0,0.0,0.0,0.0,0.0,0.0,-3.8567,0.0,0.0,0.0,0.0,0.0,0.0,0.0,0.0,0.0,0.0,0.0,0.0,0.0,0.0,0.0,0.0,0.0,0.0,0.0,0.0,0.0,0.0,0.0,0.0,0.0,0.0,0.0,0.0,0.0,0.0,0.0,0.0,0.0,0.0,0.0,0.0,0.0,0.0,0.0,0.0,0.0,0.0,0.0,0.0,0.0,0.0,0.0,0.0,0.0,0.0,0.0,0.0,0.0,0.0,0.0,0.0,-5.3862,-5.7214,-6.0805,-6.4635,-6.6729,-6.7867,-6.7989,-6.5951,-6.2959,-5.889,0.0,0.0,0.0,0.0,0.0,0.0,0.0,0.0,0.0,0.0,0.0,0.0,0.0,0.0,0.0,0.0,0.0,0.0,0.0,0.0,0.0,0.0,0.0,0.0,0.0,0.0,0.0,0.0,0.0,0.0,0.0,0.0,0.0,0.0,0.0,0.0,0.0,0.0,0.0,-3.7588,-3.8567,0.0,0.0,0.0,0.0,0.0,0.0,0.0,0.0,-3.9572,0.0,0.0,0.0,0.0,0.0,0.0,0.0,0.0,0.0,0.0,0.0,0.0,0.0,0.0,0.0,0.0,0.0,0.0,0.0,0.0,0.0,0.0,0.0,0.0,0.0,0.0,0.0,0.0,0.0,0.0,0.0,0.0,0.0,0.0,0.0,0.0,0.0,0.0,0.0,0.0,0.0,0.0,0.0,0.0,0.0,0.0,0.0,0.0,0.0,0.0,0.0,0.0,0.0,0.0,0.0,-5.476,-5.8321,-6.1912,-6.5443,-6.7478,-6.8345,-6.8019,-6.6071,-6.2989,0.0,0.0,0.0,0.0,0.0,0.0,0.0,0.0,0.0,0.0,0.0,0.0,0.0,0.0,0.0,0.0,0.0,0.0,0.0,0.0,0.0,0.0,0.0,0.0,0.0,0.0,0.0,0.0,0.0,0.0,0.0,0.0,0.0,0.0,0.0,0.0,0.0,0.0,0.0,0.0,-3.8818,-3.9823,-4.0124,0.0,0.0,0.0,0.0,0.0,0.0,-3.9823,-4.045,0.0,0.0,0.0,0.0,0.0,0.0,0.0,0.0,0.0,0.0,0.0,0.0,0.0,0.0,0.0,0.0,0.0,0.0,0.0,0.0,0.0,0.0,0.0,0.0,0.0,0.0,0.0,0.0,0.0,0.0,0.0,0.0,0.0,0.0,0.0,0.0,0.0,0.0,0.0,0.0,0.0,0.0,0.0,0.0,0.0,0.0,0.0,0.0,0.0,0.0,0.0,0.0,0.0,0.0,0.0,-5.5418,-5.9308,-6.2899,-6.6101,-6.7897,-6.8525,-6.8019,-6.5922,-6.272,0.0,0.0,0.0,0.0,0.0,0.0,0.0,0.0,0.0,0.0,0.0,0.0,0.0,0.0,0.0,0.0,0.0,0.0,0.0,0.0,0.0,0.0,0.0,0.0,0.0,0.0,0.0,0.0,0.0,0.0,0.0,0.0,0.0,0.0,0.0,0.0,0.0,0.0,0.0,0.0,0.0,-4.0927,-4.158,-4.1204,0.0,0.0,0.0,0.0,-4.0023,-4.0852,0.0,0.0,0.0,0.0,0.0,0.0,0.0,0.0,0.0,0.0,0.0,0.0,0.0,0.0,0.0,0.0,0.0,0.0,0.0,0.0,0.0,0.0,0.0,0.0,0.0,0.0,0.0,0.0,0.0,0.0,0.0,0.0,0.0,0.0,0.0,0.0,0.0,0.0,0.0,0.0,0.0,0.0,0.0,0.0,0.0,0.0,0.0,0.0,0.0,0.0,0.0,0.0,0.0,0.0,0.0,0.0,-5.6128,-5.9967,-6.3558,-6.6729,-6.7657,-6.8046,-6.7926,-6.5473,-6.2241,0.0,0.0,0.0,0.0,0.0,0.0,0.0,0.0,0.0,0.0,0.0,0.0,0.0,0.0,0.0,0.0,0.0,0.0,0.0,0.0,0.0,0.0,0.0,0.0,0.0,0.0,0.0,0.0,0.0,0.0,0.0,0.0,0.0,0.0,0.0,0.0,0.0,0.0,0.0,0.0,0.0,-4.1576,-4.2635,-4.2363,-4.1781,0.0,0.0,-4.11,-4.11,-4.1656,0.0,0.0,0.0,0.0,0.0,0.0,0.0,0.0,0.0,0.0,0.0,0.0,0.0,0.0,0.0,0.0,0.0,0.0,0.0,0.0,0.0,0.0,0.0,0.0,0.0,0.0,0.0,0.0,0.0,0.0,0.0,0.0,0.0,0.0,0.0,0.0,0.0,0.0,0.0,0.0,0.0,0.0,0.0,0.0,0.0,0.0,0.0,0.0,0.0,0.0,0.0,0.0,0.0,0.0,0.0,-5.3683,-5.6705,-6.0266,-6.3677,-6.6879,-6.7627,-6.7745,-6.717,-6.4964,-6.1687,0.0,0.0,0.0,0.0,0.0,0.0,0.0,0.0,0.0,0.0,0.0,0.0,0.0,0.0,0.0,0.0,0.0,0.0,0.0,0.0,0.0,0.0,0.0,0.0,0.0,0.0,0.0,0.0,0.0,0.0,0.0,0.0,0.0,0.0,0.0,0.0,0.0,0.0,0.0,0.0,0.0,0.0,-4.3288,-4.3514,0.0,0.0,0.0,-4.2735,-4.2735,0.0,0.0,0.0,0.0,0.0,0.0,0.0,0.0,0.0,0.0,0.0,0.0,0.0,0.0,0.0,0.0,0.0,0.0,0.0,0.0,0.0,0.0,0.0,0.0,0.0,0.0,0.0,0.0,0.0,0.0,0.0,0.0,0.0,0.0,0.0,0.0,0.0,0.0,0.0,0.0,0.0,0.0,0.0,0.0,0.0,0.0,0.0,0.0,0.0,0.0,0.0,0.0,0.0,0.0,0.0,0.0,0.0,-5.7064,-6.0565,-6.3767,-6.664,-6.7388,-6.7294,-6.6238,-6.4337,0.0,0.0,0.0,0.0,0.0,0.0,0.0,0.0,0.0,0.0,0.0,0.0,0.0,0.0,0.0,0.0,0.0,0.0,0.0,0.0,0.0,0.0,0.0,0.0,0.0,0.0,0.0,-3.0105,0.0,0.0,0.0,0.0,0.0,0.0,0.0,0.0,0.0,0.0,0.0,0.0,0.0,0.0,-4.2509,-4.4016,-4.4694,-4.4895,0.0,0.0,-4.4392,-4.4242,-4.4091,-4.379,0.0,0.0,0.0,0.0,0.0,0.0,0.0,0.0,0.0,0.0,0.0,0.0,0.0,0.0,0.0,0.0,0.0,0.0,0.0,0.0,0.0,0.0,0.0,0.0,0.0,0.0,0.0,0.0,0.0,0.0,0.0,0.0,0.0,0.0,0.0,0.0,0.0,0.0,0.0,0.0,0.0,0.0,0.0,0.0,0.0,0.0,0.0,0.0,0.0,0.0,0.0,0.0,0.0,0.0,0.0,-5.7124,-6.0984,-6.4006,-6.6011,-6.6729,-6.6607,-6.5525,-6.3416,-6.0375,0.0,0.0,0.0,0.0,0.0,0.0,0.0,0.0,0.0,0.0,0.0,0.0,0.0,0.0,0.0,0.0,0.0,0.0,0.0,0.0,0.0,0.0,0.0,0.0,0.0,0.0,0.0,0.0,0.0,0.0,0.0,0.0,0.0,0.0,0.0,0.0,0.0,0.0,0.0,0.0,0.0,-4.2359,-4.502,-4.5849,-4.6175,0.0,0.0,-4.5974,-4.5447,-4.4895,-4.4217,-4.3137,0.0,0.0,0.0,0.0,0.0,0.0,0.0,0.0,0.0,0.0,0.0,0.0,0.0,0.0,0.0,0.0,0.0,0.0,0.0,0.0,0.0,0.0,0.0,0.0,0.0,0.0,0.0,0.0,0.0,0.0,0.0,0.0,0.0,0.0,0.0,0.0,0.0,0.0,0.0,0.0,0.0,0.0,0.0,0.0,0.0,0.0,0.0,0.0,0.0,0.0,0.0,0.0,0.0,-5.4461,-5.7094,-6.1044,-6.4036,-6.5922,-6.6486,-6.6117,-6.4973,-6.2758,-5.951,0.0,0.0,0.0,0.0,0.0,0.0,0.0,0.0,0.0,0.0,0.0,0.0,0.0,0.0,0.0,0.0,0.0,0.0,0.0,0.0,0.0,0.0,0.0,0.0,0.0,0.0,0.0,0.0,-3.2516,-3.2842,-3.3086,0.0,0.0,0.0,0.0,0.0,0.0,0.0,0.0,0.0,0.0,-4.2585,-4.4669,-4.5723,0.0,0.0,-4.6326,-4.6125,-4.5573,-4.4995,-4.4242,-4.3162,-4.2057,0.0,0.0,0.0,0.0,0.0,0.0,0.0,0.0,0.0,0.0,0.0,0.0,0.0,0.0,0.0,0.0,0.0,0.0,0.0,0.0,0.0,0.0,0.0,0.0,0.0,0.0,0.0,0.0,0.0,0.0,0.0,0.0,0.0,0.0,0.0,0.0,0.0,0.0,0.0,0.0,0.0,0.0,0.0,0.0,0.0,0.0,0.0,0.0,0.0,0.0,0.0,0.0,-5.4461,-5.7094,-6.1044,-6.3917,-6.5682,-6.6244,-6.5781,-6.4308,-6.2125,-5.8835,0.0,0.0,0.0,0.0,0.0,0.0,0.0,0.0,0.0,0.0,0.0,0.0,0.0,0.0,0.0,0.0,0.0,0.0,0.0,0.0,0.0,0.0,0.0,0.0,0.0,0.0,0.0,0.0,-3.2943,-3.3136,-3.3136,0.0,0.0,0.0,0.0,0.0,0.0,0.0,0.0,0.0,0.0,-4.2866,-4.4618,-4.5849,-4.6502,-4.6351,-4.6326,-4.5999,-4.5121,-4.4644,-4.4016,-4.2911,0.0,0.0,0.0,0.0,0.0,0.0,0.0,0.0,0.0,0.0,0.0,0.0,0.0,0.0,0.0,0.0,0.0,0.0,0.0,0.0,0.0,0.0,0.0,0.0,0.0,0.0,0.0,0.0,0.0,0.0,0.0,0.0,0.0,0.0,0.0,0.0,0.0,0.0,0.0,0.0,0.0,0.0,0.0,0.0,0.0,0.0,0.0,0.0,0.0,0.0,0.0,0.0,0.0,-5.4491,-5.7094,-6.1044,-6.3737,-6.4994,-6.5945,-6.5574,-6.3632,-6.1466,-5.8472,-5.4598,0.0,0.0,0.0,0.0,0.0,0.0,0.0,0.0,0.0,0.0,0.0,0.0,0.0,0.0,0.0,0.0,0.0,0.0,0.0,0.0,0.0,0.0,0.0,0.0,0.0,0.0,-3.3822,-3.3395,-3.3136,0.0,0.0,0.0,0.0,0.0,0.0,0.0,0.0,0.0,0.0,-4.1182,-4.3017,-4.5121,-4.6376,-4.6828,-4.6351,-4.6276,-4.5723,-4.4116,-4.384,-4.3438,0.0,0.0,0.0,0.0,0.0,0.0,0.0,0.0,0.0,0.0,0.0,0.0,0.0,0.0,0.0,0.0,0.0,0.0,0.0,0.0,0.0,0.0,0.0,0.0,0.0,0.0,0.0,-5.3324,-5.3503,0.0,0.0,0.0,0.0,0.0,0.0,0.0,0.0,0.0,0.0,0.0,-5.8411,-5.8231,0.0,0.0,0.0,0.0,0.0,0.0,0.0,0.0,0.0,0.0,0.0,0.0,-5.5149,-5.7812,-6.1283,-6.359,-6.4606,-6.4981,-6.433,-6.2645,-6.0052,-5.6089,-5.0787,0.0,0.0,0.0,0.0,0.0,0.0,0.0,0.0,0.0,0.0,0.0,0.0,0.0,0.0,0.0,0.0,0.0,0.0,0.0,0.0,0.0,0.0,0.0,0.0,0.0,-3.4299,0.0,0.0,0.0,0.0,0.0,0.0,0.0,0.0,0.0,0.0,0.0,-3.8341,-4.0023,-4.1408,-4.274,-4.4166,-4.4995,-4.5397,0.0,0.0,0.0,0.0,0.0,0.0,0.0,0.0,0.0,0.0,0.0,0.0,0.0,0.0,-4.2133,-4.1175,-4.1,-4.0949,-4.0827,0.0,0.0,0.0,0.0,0.0,0.0,0.0,0.0,0.0,0.0,0.0,0.0,0.0,0.0,0.0,0.0,-5.5508,0.0,0.0,0.0,0.0,0.0,0.0,0.0,0.0,-5.9189,-5.9847,-6.0475,-6.0475,-6.0475,0.0,-5.9129,-5.7842,0.0,0.0,0.0,0.0,0.0,0.0,0.0,0.0,-5.5326,-5.7981,-6.1091,-6.3209,-6.4094,-6.4129,-6.341,-6.1741,-5.807,-5.3836,-4.9001,-4.7103,-4.5227,0.0,0.0,0.0,0.0,0.0,0.0,0.0,0.0,0.0,0.0,0.0,0.0,0.0,0.0,0.0,0.0,0.0,0.0,0.0,0.0,0.0,0.0,0.0,-3.4776,0.0,0.0,0.0,0.0,0.0,0.0,0.0,0.0,0.0,-3.6681,-3.7789,-3.9069,-4.035,-4.163,-4.2785,-4.3664,0.0,0.0,0.0,0.0,0.0,0.0,0.0,-4.3438,-4.2389,-4.2363,-4.2384,-4.2233,-4.266,-4.3011,-4.3011,0.0,0.0,-4.1831,-4.163,-4.1555,-4.1326,-4.1275,-4.1275,-4.1275,-4.1275,-4.1275,0.0,0.0,0.0,0.0,0.0,0.0,0.0,0.0,-5.8979,-5.8919,0.0,-5.7663,0.0,0.0,0.0,0.0,0.0,0.0,0.0,0.0,-6.1852,-6.254,-6.3169,-6.3199,-6.3199,-6.3139,-6.1852,-6.1224,-6.0954,-5.6645,0.0,0.0,0.0,0.0,0.0,0.0,-5.5108,-5.7749,-6.0639,-6.2586,-6.3424,-6.3415,-6.2565,-6.0714,-5.5763,-5.1924,-4.9489,-4.7172,-4.5304,-4.3844,-4.2232,0.0,0.0,0.0,0.0,0.0,0.0,0.0,0.0,0.0,0.0,0.0,0.0,0.0,0.0,0.0,0.0,0.0,0.0,0.0,0.0,-3.5508,0.0,0.0,0.0,0.0,0.0,0.0,0.0,0.0,0.0,0.0,-3.7236,-3.8668,-3.9923,-4.0501,0.0,0.0,0.0,0.0,-4.4568,-4.4543,-4.4568,-4.4217,-4.3187,-4.3463,-4.3438,-4.2464,0.0,0.0,-4.3689,-4.4192,-4.4493,-4.4568,-4.4066,-4.3438,-4.2439,-4.2238,-4.2032,-4.1555,-4.1426,-4.1376,-4.1376,-4.1576,-4.1551,-6.4306,0.0,0.0,0.0,0.0,-6.0386,-6.1313,-6.2331,-6.251,-6.251,-6.2271,-6.1642,0.0,0.0,0.0,0.0,0.0,0.0,-6.1493,-6.3169,-6.3887,-6.4784,-6.5862,-6.5862,-6.5862,-6.5802,-6.4545,-6.3917,-6.3767,-6.0685,-5.7962,-5.5688,0.0,0.0,0.0,0.0,-5.7202,-5.8444,-6.0999,-6.2392,-6.2433,-6.1975,-6.005,-5.6623,-5.4167,-5.1793,-4.9402,-4.7911,-4.6195,-4.4173,-4.2932,0.0,0.0,0.0,0.0,0.0,0.0,0.0,0.0,0.0,0.0,0.0,0.0,0.0,0.0,0.0,0.0,0.0,0.0,0.0,-3.6107,-3.578,-3.5433,0.0,0.0,0.0,0.0,0.0,0.0,0.0,0.0,0.0,-3.8894,-3.9396,-4.0199,0.0,0.0,-4.2585,-4.3137,-4.3363,-4.3438,-4.3438,0.0,0.0,0.0,-4.3689,-4.3689,-4.3363,-4.3137,-4.3162,-4.3714,-4.3589,-4.3589,-4.3966,-4.3589,-4.3087,-4.2836,-4.2735,-4.2685,-4.2559,-4.2811,-4.3087,-4.3112,-4.3388,-4.3582,-7.062,-6.64,-6.4605,-6.3827,-6.3857,-6.4276,-6.5024,-6.5981,-6.5981,-6.5832,-6.5533,-6.4904,-6.3917,-6.263,-6.1942,0.0,0.0,0.0,-6.4126,-6.5981,-6.64,-6.7236,-6.8336,-6.8366,-6.8154,-6.773,-6.6657,-6.6003,-6.5735,-6.3386,-6.1454,-5.9789,0.0,0.0,-5.6314,-5.7134,-5.8012,-5.9074,-6.0658,-6.1365,-6.1196,-5.9885,-5.7683,-5.4576,-5.3177,-5.1586,-4.9785,-4.8207,-4.6566,-4.48,-4.3437,-4.2103,0.0,0.0,0.0,0.0,0.0,0.0,0.0,0.0,0.0,0.0,0.0,-3.696,-3.6455,0.0,0.0,0.0,-3.6606,-3.6732,-3.6732,-3.6584,0.0,0.0,0.0,0.0,0.0,0.0,0.0,-3.7385,-3.829,-3.9245,-4.0199,-4.035,-4.0802,-4.2062,-4.2389,-4.2665,-4.2936,0.0,-4.3062,-4.3288,-4.3589,-4.379,-4.379,-4.379,-4.3714,-4.3514,-4.3388,-4.3413,-4.3714,-4.3689,-4.374,-4.3966,-4.3664,-4.3313,-4.3313,-4.3137,-4.2986,-4.2986,-4.3237,-4.3463,-4.3489,-4.389,-4.4292,-7.6425,-7.4899,-7.062,-6.8704,-6.8435,-6.8435,-6.8824,-6.9453,-6.9423,-6.9004,-6.8315,-6.7657,-6.664,-6.5383,-6.4695,0.0,0.0,-6.6041,-6.7388,-6.915,-6.918,-6.9645,-7.0414,-7.0443,-6.992,-6.9037,-6.8295,-6.7648,-6.7,-6.5088,-6.4146,-6.3967,-6.0164,-5.7976,-5.7529,-5.7503,-5.8205,-5.9578,-5.9911,-5.9985,-5.9769,-5.7584,-5.5621,-5.3997,-5.2562,-5.1367,-5.0393,-4.8335,-4.6677,-4.5497,-4.3915,-4.2534,-4.1401,0.0,0.0,0.0,0.0,0.0,0.0,0.0,0.0,0.0,0.0,0.0,0.0,0.0,0.0,0.0,-3.7008,0.0,-3.7262,-3.7713,0.0,0.0,0.0,-3.7814,-3.7312,-3.7739,-3.8291,-3.8869,0.0,0.0,0.0,0.0,-4.1605,-4.2213,-4.2715,-4.2986,-4.2986,-4.2986,-4.3162,-4.3614,-4.3765,-4.379,-4.379,-4.379,-4.3614,-4.3137,-4.3388,-4.3689,-4.379,-4.4066,-4.4443,-4.4493,-4.4116,-4.3714,-4.3714,-4.3263,-4.2986,-4.2986,-4.3037,-4.3087,-4.3137,-4.3564,-4.3966,-7.9387,-7.8519,-7.6904,-7.4779,-7.2505,-7.2475,-7.2864,-7.3402,-7.2954,-7.2355,-7.1697,-7.1038,-6.9991,-6.8734,-6.8106,-6.8166,-6.8794,-6.8974,-6.9714,-7.0796,-7.0825,-7.0874,-7.1004,-7.1004,-7.0712,-7.0137,-6.9059,-6.8448,-6.8215,-6.6639,-6.5577,-6.492,-6.332,-6.1724,-6.0208,-6.0103,-5.9887,-5.9501,-6.0255,-5.9741,-5.8066,-5.6468,-5.5012,-5.3614,-5.2428,-5.1367,-5.0419,-4.8686,-4.7029,-4.5547,-4.4292,-4.3112,-4.2032,-4.0927,0.0,0.0,0.0,0.0,0.0,0.0,0.0,0.0,0.0,-3.8216,-3.7663,0.0,-3.7613,0.0,-3.7739,-3.7814,-3.7814,-3.7914,0.0,0.0,-3.7914,-3.7965,-3.7814,-3.8316,-3.8718,-3.8919,-3.9597,-4.0425,-4.12,-4.1706,-4.2158,-4.2766,-4.2942,-4.2986,-4.2986,-4.2986,-4.3011,-4.3187,-4.3539,-4.379,-4.3765,-4.379,-4.3589,-4.3062,-4.3143,-4.3313,-4.3714,-4.3539,-4.3489,-4.3865,-4.3539,-4.3212,-4.3187,-4.3062,-4.2986,-4.3011,-4.3313,-4.3614,-4.3614,-4.4041,-4.4418,-8.1721,-8.1063,-8.0405,-7.8908,-7.6904,-7.6006,-7.5677,-7.5707,-7.5347,-7.4839,-7.418,-7.3223,-7.2355,-7.1667,-7.1038,-7.0949,-7.1278,-7.1147,-7.1487,-7.2238,-7.193,-7.1708,-7.1528,-7.1387,-7.089,-6.9978,-6.9203,-6.8642,-6.8338,-6.718,-6.6401,-6.5974,-6.4868,-6.3658,-6.2343,-6.126,-6.0446,-5.9883,-5.9315,-5.8156,-5.6401,-5.5211,-5.3997,-5.2919,-5.206,-5.1069,-5.0092,-4.8661,-4.7154,-4.5573,-4.4644,-4.3564,-4.2288,-4.158,-4.1028,0.0,0.0,0.0,0.0,0.0,0.0,0.0,0.0,0.0,0.0,0.0,-3.799,0.0,-3.8241,0.0,-3.8391,-3.8617,-3.8768,-3.8768,-3.8768,-3.8843,-3.9094,-3.9396,-3.9697,-3.9948,-4.0501,-4.1078,-4.163,-4.1957,-4.2414,-4.2911,-4.2986,-4.2986,-4.2986,-4.2986,-4.2986,-4.2986,-4.3237,-4.3438,-4.3438,-4.3438,-4.3338,-4.3062,-4.2986,-4.3087,-4.3388,-4.3187,-4.3087,-4.3338,-4.3187,-4.2986,-4.2986,-4.2986,-4.2986,-4.3011,-4.3212,-4.3413,-4.3438,-4.3865,-4.4267,-8.3666,-8.2978,-8.238,-8.1751,-8.0913,-7.9178,-7.7981,-7.7203,-7.7113,-7.6694,-7.5946,-7.4779,-7.427,-7.421,-7.3582,-7.3216,-7.3216,-7.276,-7.2824,-7.3123,-7.246,-7.1979,-7.1711,-7.1276,-7.0408,-6.914,-6.8915,-6.8512,-6.7863,-6.7179,-6.6788,-6.6538,-6.5464,-6.4408,-6.36,-6.158,-6.0347,-6.0077,-5.7921,-5.6227,-5.5146,-5.4181,-5.3139,-5.2194,-5.1641,-5.072,-4.954,-4.846,-4.7129,-4.5472,-4.4895,-4.3915,-4.2414,-4.2238,-4.1785,0.0,-4.0651,0.0,0.0,0.0,0.0,0.0,0.0,0.0,0.0,-3.8417,-3.8417,-3.8442,-3.8894,-3.9246,-3.9195,-3.9622,-3.9898,-3.9898,-3.9898,-4.0099,-4.0551,-4.0626,-4.0802,-4.125,-4.1351,-4.163,-4.2112,-4.2263,-4.2514,-4.2886,-4.2986,-4.2986,-4.2986,-4.2986,-4.2986,-4.2986,-4.2986,-4.3037,-4.3037,-4.3011,-4.2961,-4.2911,-4.2836,-4.2836,-4.2735,-4.2735,-4.2735,-4.276,-4.271,-4.271,-4.276,-4.2735,-4.2735,-4.2685,-4.271,-4.2785,-4.3011,-4.3363,-4.3664,-8.5432,-8.4354,-8.4205,-8.3487,-8.235,-8.1991,-8.0823,-7.9208,-7.8669,-7.7771,-7.6664,-7.6395,-7.6275,-7.6215,-7.5617,-7.5179,-7.4773,-7.4199,-7.3506,-7.2711,-7.2285,-7.1307,-7.0128,-6.9681,-6.9026,-6.8208,-6.7934,-6.7579,-6.6946,-6.7237,-6.6791,-6.5751,-6.56,-6.4638,-6.282,0.0,0.0,0.0,-5.7344,-5.6264,-5.5548,-5.4676,-5.363,-5.2506,-5.1682,0.0,-4.9012,-4.8284,-4.6928,-4.492,-4.4669,0.0,0.0,0.0,0.0,0.0,0.0,0.0,0.0,0.0,0.0,0.0,-4.0949,-4.0774,-4.0674,-4.0648,-4.0648,-4.0674,-4.0802,-4.0824,-4.0824,-4.0899,-4.0974,-4.0974,-4.0974,-4.1025,-4.1125,-4.1125,-4.1175,-4.1275,-4.1731,-4.2032,-4.2213,-4.259,-4.2861,-4.2961,-4.2986,-4.2986,-4.2986,-4.2986,-4.2986,-4.2986,-4.2986,-4.2986,-4.2986,-4.2986,-4.2836,-4.2514,-4.2363,-4.2158,-4.1806,-4.1706,-4.1626,-4.1681,-4.1656,-4.1626,-4.1681,-4.1601,-4.1706,-4.1656,-4.1656,-4.1907,-4.2785,-4.3037,-4.3137,-8.6599,0.0,-8.5342,-8.4624,0.0,-8.3367,-8.2499,-8.1183,-8.0195,-7.9238,-7.828,-7.7592,-7.7322,-7.7293,-7.6634,-7.5946,-7.5298,-7.4732,-7.3674,-7.2244,-7.1494,-7.0396,-6.9108,-6.8503,-6.7892,-6.7326,-6.7039,-6.6746,-6.6426,-6.6505,-6.6214,-6.549,-6.5159,-6.4335,-6.2953,-6.0758,-5.8974,-5.7667,-5.6744,-5.6025,-5.5533,-5.4556,-5.3457,-5.2396,0.0,0.0,0.0,0.0,0.0,0.0,0.0,0.0,0.0,0.0,0.0,-4.3363,-4.3112,-4.2961,-4.2905,-4.2905,-4.2961,-4.2961,-4.2655,-4.2153,-4.1351,-4.1275,-4.1275,-4.1275,-4.1275,-4.1275,-4.1275,-4.1275,-4.1275,-4.1275,-4.1275,-4.1376,-4.1681,-4.1731,-4.1856,-4.2133,-4.2384,-4.2615,-4.2615,-4.2785,-4.2961,-4.2986,-4.2986,-4.2986,-4.2986,-4.2986,-4.2986,-4.2986,-4.2986,-4.2986,-4.2986,-4.2986,-4.2785,-4.2363,-4.2213,-4.1932,-4.1376,-4.1275,-4.1275,-4.1275,-4.1275,-4.1275,-4.1275,-4.1275,-4.1275,-4.1275,-4.1275,-4.1426,-4.2082,-4.2158,-4.2258,-8.7586,-8.6808,-8.627,-8.5611,-8.4833,-8.4325,-8.3636,-8.2828,0.0,0.0,0.0,-7.8639,-7.81,-7.7951,-7.7222,-7.6282,-7.5335,-7.4734,-7.354,-7.174,-7.0589,-6.9429,-6.8274,-6.743,-6.6915,-6.6498,-6.633,-6.6151,-6.5889,-6.5714,-6.5509,-6.518,-6.451,-6.3794,-6.2785,-6.0053,-5.8042,-5.6855,-5.6395,-5.5922,-5.5509,-5.4456,-5.34,-5.2345,-5.1691,-5.0318,-4.8309,-4.8109,-4.7305,-4.5723,-4.5623,-4.5321,-4.4669,-4.4618,-4.4618,-4.4618,-4.4618,-4.4618,-4.4618,-4.4618,-4.4618,-4.4618,-4.4217,-4.3338,-4.1882,-4.1626,-4.1576,-4.163,-4.1576,-4.1576,-4.1576,-4.163,-4.1576,-4.163,-4.163,-4.1831,-4.2288,-4.2363,-4.2514,-4.2886,-4.2936,-4.2986,-4.2961,-4.2961,-4.2986,-4.2986,-4.2986,-4.2986,-4.2986,-4.2986,-4.2986,-4.2986,-4.2986,-4.2986,-4.2986,-4.2986,-4.276,-4.2313,-4.2112,-4.1806,-4.1354,-4.1075,-4.1,-4.0899,-4.0974,-4.0949,-4.1028,-4.0953,-4.0974,-4.1,-4.1,-4.1053,-4.1,-4.1053,-4.1254,-8.8663,-8.7556,-8.7467,-8.6718,-8.5551,-8.5462,-8.4714,-8.3457,-8.1601,-8.0434,-7.9806,-7.9627,-7.9208,-7.8609,-7.7593,-7.661,-7.5601,-7.4326,-7.2778,0.0,-6.983,-6.8627,-6.743,-6.6577,-6.595,-6.5608,-6.5844,-6.5762,-6.5308,-6.5409,-6.5071,-6.4283,-6.3895,-6.2792,-6.0858,-5.8837,-5.7514,-5.6996,-5.6808,-5.6446,-5.5867,-5.5234,-5.4398,-5.3334,-5.2026,-5.0695,-4.9414,-4.8912,-4.7883,-4.6301,-4.62,-4.5723,-4.4719,-4.4669,-4.4618,-4.4618,-4.4618,-4.4618,-4.4618,-4.4618,-4.4618,-4.4618,-4.4543,-4.4192,-4.3539,-4.3011,-4.2735,-4.276,-4.276,-4.276,-4.2735,-4.2735,-4.271,-4.271,-4.2735,-4.2785,-4.2836,-4.2836,-4.2916,-4.2961,-4.2986,-4.2986,-4.2986,-4.2986,-4.2986,-4.2986,-4.2986,-4.2986,-4.2986,-4.2986,-4.2986,-4.2986,-4.2986,-4.2986,-4.2986,-4.2986,-4.2791,-4.2288,-4.1781,-4.1404,-4.0852,-4.0425,-4.0149,-3.9973,-4.0074,-4.0023,-3.9998,-3.9923,-4.0023,-4.0049,-4.0074,-4.0023,-4.0049,-4.0049,-4.03,-8.9322,-8.8693,-8.8005,-8.7347,-8.6718,-8.5641,-8.4624,-8.3636,-8.2409,-8.1272,-8.0345,-7.9986,-7.9447,-7.8789,-7.8027,-7.6983,-7.5677,-7.4591,-7.2861,-7.0554,-6.9279,-6.8094,-6.6993,-6.6107,-6.5476,-6.5079,-6.5238,-6.503,-6.443,-6.4242,-6.392,-6.334,-6.2734,-6.1532,-5.984,-5.8699,-5.7695,-5.7022,-5.6642,-5.6384,-5.6034,-5.5274,-5.4441,-5.3633,-5.237,-5.1046,-4.964,-4.9364,-4.8586,-4.723,-4.7179,-4.6928,-4.6451,-4.6401,-4.6401,-4.6401,-4.6125,-4.5974,-4.5974,-4.5698,-4.5547,-4.5522,-4.5246,-4.4995,-4.4744,-4.4192,-4.3865,-4.3865,-4.3865,-4.374,-4.3463,-4.3413,-4.3288,-4.2986,-4.2986,-4.2986,-4.2986,-4.2986,-4.2986,-4.2986,-4.2986,-4.2986,-4.2986,-4.2986,-4.2986,-4.2986,-4.2986,-4.2986,-4.2986,-4.2986,-4.2986,-4.2986,-4.2986,-4.2986,-4.2986,-4.2986,-4.2791,-4.2288,-4.1957,-4.1555,-4.1053,-4.0526,-4.0199,-4.0124,-3.9923,-3.9722,-3.9697,-3.9697,-3.9697,-3.9697,-3.9697,-3.9697,-3.9697,-3.9697,-3.9998,-8.9801,-8.9561,-8.8394,-8.7766,-8.7317,-8.5492,-8.4444,-8.3906,-8.3098,-8.205,-8.0823,-8.0255,-7.9494,-7.8674,-7.8282,-7.7134,-7.5536,-7.4693,-7.2826,-7.0212,-6.8902,-6.7684,-6.6681,-6.5713,-6.5079,-6.4786,-6.4707,-6.4368,-6.3824,-6.3361,-6.2897,-6.2454,-6.1527,-6.0506,-5.9465,-5.8857,-5.8075,-5.7223,-5.6671,-5.6344,-5.6194,-5.5139,-5.4361,-5.3858,-5.2729,-5.1498,-5.0243,-4.9916,-4.9314,-4.836,-4.8159,-4.8033,-4.7908,-4.7908,-4.7908,-4.7857,-4.7531,-4.7305,-4.728,-4.6928,-4.6627,-4.6502,-4.61,-4.5824,-4.5648,-4.5271,-4.4869,-4.4669,-4.4568,-4.4418,-4.4066,-4.3991,-4.3815,-4.3388,-4.3212,-4.3187,-4.3162,-4.3062,-4.2986,-4.2986,-4.2986,-4.2986,-4.2986,-4.2986,-4.2986,-4.2986,-4.2986,-4.2986,-4.2986,-4.2986,-4.2986,-4.2986,-4.2986,-4.2986,-4.2986,-4.2986,-4.2866,-4.2439,-4.2263,-4.1957,-4.153,-4.1078,-4.0651,-4.0501,-4.0174,-3.9898,-3.9747,-3.9697,-3.9697,-3.9697,-3.9697,-3.9697,-3.9697,-3.9697,-3.9823,-9.019,-8.9591,-8.8873,-8.7885,-8.6689,-8.5312,-8.4654,-8.4444,-8.3307,-8.202,-8.0823,-8.0734,-7.9736,-7.8298,-7.7843,-7.6579,-7.4751,-7.3884,-7.2158,-6.9793,-6.8503,-6.7507,-6.6603,-6.5423,-6.4866,-6.4707,-6.436,-6.4094,-6.3966,-6.3453,-6.2737,-6.1736,-6.0712,-6.0176,-5.9896,-5.9135,-5.8353,-5.7826,-5.7248,-5.6721,-5.6168,-5.5139,-5.4536,-5.4486,-5.2929,-5.2051,-5.1749,-5.087,-5.0067,-4.9464,-4.8987,-4.8485,-4.8033,-4.7933,-4.7933,-4.7933,-4.7883,-4.7832,-4.7832,-4.7807,-4.7531,-4.7104,-4.6943,-4.6728,-4.6301,-4.6175,-4.5698,-4.4945,-4.4644,-4.4669,-4.4543,-4.4543,-4.4493,-4.4342,-4.3966,-4.374,-4.3689,-4.3263,-4.2986,-4.2986,-4.3037,-4.2986,-4.2986,-4.2986,-4.2986,-4.2986,-4.2986,-4.2986,-4.2986,-4.2986,-4.2986,-4.2986,-4.2986,-4.2986,-4.2986,-4.2986,-4.2936,-4.2836,-4.2539,-4.2263,-4.2007,-4.163,-4.1128,-4.0877,-4.0526,-4.03,-3.9898,-3.9697,-3.9722,-3.9697,-3.9697,-3.9697,-3.9697,-3.9697,-3.9772,-9.0249,-8.9591,-8.8963,-8.7915,-8.6569,-8.5282,-8.4714,-8.4564,-8.266,-8.1332,-8.0423,-7.9783,-7.8996,-7.8136,-7.7298,-7.6034,-7.4531,-7.3289,-7.1484,-6.9314,-6.8122,-6.7148,-6.6212,-6.5264,-6.4707,-6.436,-6.3958,-6.3554,-6.3291,-6.2754,-6.1919,-6.0907,-6.0397,-6.0042,-5.9714,-5.9057,-5.8453,-5.7901,-5.7323,-5.6771,-5.6194,-5.544,-5.4888,-5.4511,-5.3582,-5.2729,-5.2151,-5.1649,-5.1147,-5.0645,-5.0368,-4.9992,-4.9414,-4.9389,-4.9238,-4.8937,-4.8586,-4.8259,-4.7933,-4.7908,-4.7807,-4.7606,-4.7581,-4.7355,-4.6853,-4.6803,-4.6451,-4.5799,-4.5623,-4.5497,-4.5196,-4.5146,-4.4995,-4.4694,-4.4418,-4.4292,-4.4267,-4.4091,-4.384,-4.3539,-4.3463,-4.3338,-4.3062,-4.2986,-4.2986,-4.2986,-4.2986,-4.2986,-4.2986,-4.2986,-4.2986,-4.2986,-4.2986,-4.2986,-4.2986,-4.2986,-4.2986,-4.2936,-4.2866,-4.2635,-4.2559,-4.2183,-4.1731,-4.148,-4.1204,-4.0802,-4.03,-4.0174,-4.0124,-3.9898,-3.9697,-3.9697,-3.9697,-3.9697,-3.9697,-9.01,-8.9561,-8.8783,-8.7646,-8.6329,-8.5036,-8.4439,-8.4003,-8.1951,-8.0642,-7.9945,-7.8816,-7.8093,-7.7549,-7.6603,-7.5311,-7.3867,-7.2566,-7.0788,-6.8785,-6.7738,-6.681,-6.5792,-6.5026,-6.4386,-6.3958,-6.3473,-6.3148,-6.2747,-6.227,-6.1517,-6.0663,-6.0387,-6.0035,-5.9508,-5.9106,-5.8679,-5.8127,-5.7549,-5.6997,-5.6445,-5.5892,-5.529,-5.4658,-5.3984,-5.3256,-5.2377,-5.2176,-5.1925,-5.1523,-5.1373,-5.1096,-5.0695,-5.0645,-5.0393,-4.9866,-4.9314,-4.8812,-4.8385,-4.836,-4.8309,-4.8159,-4.8134,-4.7908,-4.7481,-4.7294,-4.7179,-4.6803,-4.6627,-4.6301,-4.5824,-4.5723,-4.5522,-4.5121,-4.497,-4.4869,-4.4844,-4.4744,-4.4443,-4.4091,-4.4041,-4.389,-4.3514,-4.3338,-4.3237,-4.3237,-4.3087,-4.2986,-4.2986,-4.2986,-4.2986,-4.2986,-4.2986,-4.2986,-4.2986,-4.2986,-4.2986,-4.2986,-4.2936,-4.2936,-4.2986,-4.264,-4.2288,-4.1986,-4.1731,-4.1379,-4.0827,-4.0676,-4.035,-3.9898,-3.9722,-3.9722,-3.9697,-3.9697,-3.9697,-8.9681,-8.9471,-8.8274,-8.6958,-8.5701,-8.4593,-8.3704,-8.308,-8.1332,-8.0188,-7.9434,-7.8033,-7.709,-7.6392,-7.5617,-7.431,-7.2406,-7.154,-7.002,-6.8072,-6.743,-6.6577,-6.5397,-6.4521,-6.3958,-6.3554,-6.3148,-6.2822,-6.2797,-6.2295,-6.1718,-6.1165,-6.0638,-6.006,-5.9608,-5.9458,-5.9182,-5.8629,-5.8127,-5.7549,-5.6923,-5.6445,-5.5666,-5.4687,-5.4009,-5.3482,-5.2904,-5.2377,-5.2101,-5.2076,-5.1624,-5.1297,-5.1247,-5.1222,-5.0946,-5.0393,-4.9866,-4.954,-4.9464,-4.9439,-4.9238,-4.8837,-4.8736,-4.8485,-4.7958,-4.7883,-4.7832,-4.7807,-4.733,-4.6878,-4.6426,-4.6225,-4.62,-4.61,-4.5723,-4.5472,-4.5447,-4.5045,-4.4669,-4.4593,-4.4543,-4.4443,-4.4468,-4.4091,-4.3815,-4.3689,-4.3338,-4.3087,-4.3162,-4.3087,-4.3112,-4.3112,-4.3062,-4.3042,-4.2986,-4.2986,-4.2986,-4.2986,-4.2986,-4.2986,-4.2986,-4.2911,-4.2665,-4.2439,-4.2288,-4.1907,-4.1404,-4.0902,-4.0425,-4.0049,-3.9873,-3.9823,-3.9722,-3.9697,-3.9697,-8.9172,-8.8304,-8.6958,-8.5962,-8.5218,-8.399,-8.2925,-8.2012,-8.0023,-7.8809,-7.7939,-7.6387,-7.5116,-7.426,-7.3331,-7.2707,-7.2074,-7.047,-6.8897,-6.7484,-6.6577,-6.5713,-6.5,-6.4119,-6.3635,-6.3473,-6.3011,-6.2822,-6.2797,-6.2621,-6.2245,-6.1718,-6.114,-6.0588,-6.006,-5.9684,-5.9232,-5.8755,-5.8504,-5.7976,-5.7123,-5.6846,-5.6219,-5.5139,-5.4536,-5.3984,-5.3457,-5.2904,-5.2628,-5.2628,-5.2427,-5.2176,-5.1825,-5.1473,-5.1021,-5.0494,-5.0218,-4.9967,-4.9665,-4.959,-4.9515,-4.9339,-4.9289,-4.9038,-4.8586,-4.8435,-4.8309,-4.7958,-4.7782,-4.7506,-4.7255,-4.6728,-4.6326,-4.6276,-4.6125,-4.5999,-4.5999,-4.5824,-4.5573,-4.5221,-4.4869,-4.4618,-4.4669,-4.4443,-4.4342,-4.4317,-4.4141,-4.4016,-4.4016,-4.4016,-4.3966,-4.394,-4.374,-4.3489,-4.3514,-4.3162,-4.2986,-4.2986,-4.2986,-4.2986,-4.2986,-4.2986,-4.276,-4.271,-4.2665,-4.2414,-4.1831,-4.1379,-4.0852,-4.0425,-4.0224,-3.9973,-3.9772,-3.9747,-3.9722,-8.8164,-8.6858,-8.5902,-8.5039,-8.4141,-8.2791,-8.1702,-8.0609,-7.8456,-7.7261,-7.6569,-7.4967,-7.3648,-7.2616,-7.149,-7.0843,-7.0803,-6.9225,-6.7885,-6.6681,-6.5792,-6.5079,-6.436,-6.3797,-6.3392,-6.323,-6.2985,-6.2822,-6.2822,-6.2822,-6.2546,-6.1994,-6.1617,-6.1065,-6.0387,-5.9935,-5.9508,-5.9056,-5.8805,-5.8252,-5.7399,-5.7123,-5.662,-5.5742,-5.5114,-5.4461,-5.3733,-5.3356,-5.308,-5.2955,-5.2861,-5.2754,-5.2377,-5.185,-5.1373,-5.0996,-5.0594,-5.0268,-4.9916,-4.969,-4.959,-4.959,-4.959,-4.9414,-4.9063,-4.9038,-4.8837,-4.8535,-4.8259,-4.8184,-4.8008,-4.738,-4.6778,-4.6602,-4.6426,-4.6326,-4.6326,-4.6301,-4.61,-4.5799,-4.5472,-4.5221,-4.5146,-4.4995,-4.492,-4.4895,-4.4769,-4.4618,-4.4618,-4.4618,-4.4618,-4.4593,-4.4292,-4.4091,-4.4066,-4.384,-4.3288,-4.3162,-4.3062,-4.3037,-4.2986,-4.2986,-4.2986,-4.2986,-4.2861,-4.269,-4.2363,-4.1882,-4.1404,-4.0902,-4.0526,-4.0275,-4.0049,-3.9823,-3.9772,-8.6689,-8.5298,-8.5041,-8.4003,-8.2468,-8.0999,-7.9937,-7.8842,-7.6763,-7.5676,-7.5293,-7.3975,-7.2678,-7.1599,-7.0263,-6.9146,-6.8344,-6.7909,-6.6942,-6.5608,-6.5318,-6.4681,-6.3635,-6.3473,-6.323,-6.2904,-6.2822,-6.2822,-6.2822,-6.2822,-6.2571,-6.2119,-6.1994,-6.1391,-6.0362,-6.0286,-5.9985,-5.9458,-5.9006,-5.8478,-5.7901,-5.7399,-5.6846,-5.6244,-5.5666,-5.4913,-5.3858,-5.3708,-5.3406,-5.298,-5.2861,-5.2861,-5.2804,-5.2377,-5.2076,-5.185,-5.1071,-5.0519,-5.0343,-4.9916,-4.969,-4.959,-4.959,-4.9565,-4.9515,-4.9515,-4.949,-4.9339,-4.9038,-4.8761,-4.8686,-4.8209,-4.7631,-4.7179,-4.6677,-4.6426,-4.6326,-4.6326,-4.6301,-4.625,-4.615,-4.6276,-4.6175,-4.5799,-4.5497,-4.5422,-4.5121,-4.4869,-4.4895,-4.492,-4.4719,-4.4719,-4.4719,-4.4644,-4.4644,-4.4543,-4.3915,-4.3388,-4.3212,-4.3112,-4.3011,-4.2986,-4.2986,-4.2986,-4.2986,-4.2785,-4.264,-4.2183,-4.1932,-4.148,-4.1053,-4.0626,-4.0325,-4.0074,-3.9823,-8.5586,-8.4951,-8.3776,-8.2448,-8.097,-8.0016,-7.8628,-7.6714,-7.5497,-7.4581,-7.3503,-7.2131,-7.0867,-6.9794,-6.8674,-6.748,-6.6292,-6.616,-6.5845,-6.5292,-6.4495,-6.3958,-6.3554,-6.3148,-6.2904,-6.2822,-6.2822,-6.2822,-6.2822,-6.2822,-6.2722,-6.2546,-6.2195,-6.1642,-6.0914,-6.0512,-6.0035,-5.9558,-5.9332,-5.9006,-5.8478,-5.7926,-5.7349,-5.6796,-5.6244,-5.5591,-5.4888,-5.411,-5.3457,-5.2911,-5.2861,-5.2861,-5.2879,-5.2779,-5.2503,-5.2126,-5.18,-5.1172,-5.0494,-5.0243,-4.9967,-4.969,-4.9615,-4.959,-4.959,-4.959,-4.959,-4.959,-4.9439,-4.9339,-4.9238,-4.8837,-4.8159,-4.723,-4.6918,-4.6728,-4.6426,-4.6326,-4.6326,-4.6326,-4.6326,-4.6326,-4.6301,-4.6075,-4.6024,-4.6024,-4.5824,-4.5723,-4.5748,-4.5648,-4.5799,-4.5773,-4.5547,-4.5221,-4.5196,-4.507,-4.4593,-4.4066,-4.3765,-4.3363,-4.3212,-4.3112,-4.3087,-4.2986,-4.2986,-4.2911,-4.2735,-4.2559,-4.2308,-4.2108,-4.1756,-4.1229,-4.0676,-4.0375,-4.0224,-8.4615,-8.3766,-8.2575,-8.1017,-7.9465,-7.8516,-7.6899,-7.4969,-7.4027,-7.2979,-7.1847,-7.0662,-6.9428,-6.8333,-6.7429,-6.6238,-6.5026,-6.4761,-6.4681,-6.4575,-6.3958,-6.3392,-6.323,-6.2985,-6.2822,-6.2822,-6.2822,-6.2822,-6.2822,-6.2822,-6.2822,-6.2747,-6.2471,-6.1918,-6.124,-6.0839,-6.0286,-5.9633,-5.9483,-5.9257,-5.873,-5.8177,-5.7625,-5.7047,-5.6495,-5.5942,-5.539,-5.4687,-5.3984,-5.3331,-5.3055,-5.2861,-5.2861,-5.2836,-5.2779,-5.2477,-5.2176,-5.1774,-5.1096,-5.067,-5.0293,-4.9941,-4.9715,-4.959,-4.959,-4.959,-4.959,-4.959,-4.959,-4.959,-4.954,-4.9314,-4.8661,-4.7857,-4.7556,-4.7205,-4.6728,-4.6426,-4.6326,-4.6326,-4.6326,-4.6326,-4.6326,-4.6326,-4.6326,-4.6326,-4.6326,-4.6326,-4.6326,-4.6276,-4.6301,-4.6276,-4.6024,-4.5799,-4.5773,-4.5547,-4.5221,-4.4819,-4.4443,-4.394,-4.3539,-4.3438,-4.3388,-4.3087,-4.2986,-4.2986,-4.2836,-4.2916,-4.271,-4.259,-4.2363,-4.1886,-4.1304,-4.0978,-4.0752,-8.3766,-8.1917,-8.1266,-7.9769,-7.7884,-7.6436,-7.502,-7.3448,-7.223,-7.1204,-7.0502,-6.9561,-6.8354,-6.7072,-6.6338,-6.5335,-6.4196,-6.3797,-6.3635,-6.3554,-6.3392,-6.323,-6.2904,-6.2822,-6.2822,-6.2822,-6.2822,-6.2822,-6.2822,-6.2822,-6.2822,-6.2822,-6.2747,-6.2295,-6.1466,-6.1215,-6.0613,-5.9759,-5.9533,-5.9232,-5.8805,-5.8278,-5.7725,-5.7148,-5.662,-5.6068,-5.5566,-5.5214,-5.4687,-5.3783,-5.3181,-5.2861,-5.2861,-5.2861,-5.2836,-5.2829,-5.2427,-5.2176,-5.1875,-5.1222,-5.0544,-5.0343,-4.9967,-4.9615,-4.9615,-4.959,-4.959,-4.959,-4.959,-4.959,-4.959,-4.954,-4.9264,-4.8837,-4.8184,-4.7631,-4.7179,-4.6677,-4.6451,-4.6351,-4.6326,-4.6326,-4.6326,-4.6326,-4.6326,-4.6326,-4.6326,-4.6326,-4.6326,-4.6326,-4.6326,-4.625,-4.62,-4.615,-4.6024,-4.5999,-4.5698,-4.5522,-4.5146,-4.4644,-4.3966,-4.3765,-4.3614,-4.3313,-4.3011,-4.3011,-4.2986,-4.2986,-4.2961,-4.2891,-4.2615,-4.2338,-4.2011,-4.1555,-4.1229,-8.223,-8.1187,-7.9625,-7.7998,-7.6356,-7.486,-7.3475,-7.2041,-7.1312,-7.0068,-6.8826,-6.8001,-6.6962,-6.5552,-6.493,-6.4248,-6.3742,-6.3554,-6.3311,-6.2985,-6.2985,-6.2904,-6.2822,-6.2822,-6.2822,-6.2822,-6.2822,-6.2822,-6.2822,-6.2822,-6.2822,-6.2822,-6.2822,-6.2496,-6.1843,-6.1366,-6.0839,-6.0136,-5.9659,-5.9433,-5.9232,-5.8755,-5.8227,-5.7675,-5.7097,-5.6545,-5.5968,-5.5189,-5.4486,-5.3758,-5.3206,-5.2861,-5.2861,-5.2861,-5.2861,-5.2836,-5.2804,-5.2503,-5.2151,-5.1825,-5.1272,-5.0519,-5.0293,-5.0042,-4.9615,-4.959,-4.959,-4.959,-4.959,-4.959,-4.959,-4.959,-4.949,-4.9314,-4.856,-4.7807,-4.7269,-4.7004,-4.6778,-4.6401,-4.6376,-4.6401,-4.6376,-4.6351,-4.6351,-4.6326,-4.6326,-4.6326,-4.6326,-4.6326,-4.6326,-4.6326,-4.6276,-4.6301,-4.6276,-4.6276,-4.6225,-4.6125,-4.5824,-4.5447,-4.4694,-4.4066,-4.389,-4.3639,-4.3156,-4.3031,-4.3011,-4.2986,-4.2986,-4.2986,-4.2861,-4.2665,-4.2338,-4.1986,-4.1681,-8.0983,-7.9798,-7.8175,-7.6473,-7.4647,-7.3615,-7.2071,-7.0552,-7.0036,-6.8977,-6.7546,-6.6784,-6.5887,-6.4695,-6.4133,-6.3661,-6.323,-6.323,-6.3067,-6.2904,-6.2822,-6.2822,-6.2822,-6.2822,-6.2822,-6.2822,-6.2822,-6.2822,-6.2822,-6.2822,-6.2822,-6.2822,-6.2822,-6.2546,-6.1969,-6.1466,-6.0889,-6.0311,-5.9784,-5.9508,-5.9458,-5.8981,-5.8629,-5.8127,-5.7499,-5.6771,-5.6168,-5.5365,-5.4561,-5.3808,-5.3231,-5.2861,-5.2861,-5.2861,-5.2861,-5.2861,-5.2861,-5.2754,-5.2477,-5.2251,-5.1825,-5.1172,-5.077,-5.0293,-4.9967,-4.9766,-4.959,-4.959,-4.959,-4.959,-4.959,-4.959,-4.959,-4.9515,-4.9012,-4.8385,-4.7883,-4.7606,-4.733,-4.7079,-4.6979,-4.6878,-4.6728,-4.6652,-4.6527,-4.6401,-4.6326,-4.6326,-4.6326,-4.6326,-4.6351,-4.6376,-4.6376,-4.6351,-4.6326,-4.6326,-4.6326,-4.6276,-4.62,-4.5899,-4.5321,-4.4518,-4.4166,-4.389,-4.335,-4.305,-4.3056,-4.3037,-4.2986,-4.2986,-4.2986,-4.2886,-4.264,-4.2439,-4.2133,-7.9689,-7.7861,-7.6868,-7.512,-7.3048,-7.2261,-7.0845,-6.9097,-6.869,-6.7769,-6.6586,-6.5882,-6.5078,-6.4102,-6.3595,-6.323,-6.2822,-6.2904,-6.2822,-6.2822,-6.2822,-6.2822,-6.2822,-6.2822,-6.2822,-6.2822,-6.2822,-6.2822,-6.2822,-6.2822,-6.2822,-6.2822,-6.2822,-6.2596,-6.2119,-6.1517,-6.0914,-6.0437,-5.9809,-5.9508,-5.9433,-5.9106,-5.883,-5.8504,-5.7549,-5.6796,-5.6244,-5.5616,-5.4888,-5.3833,-5.3281,-5.3055,-5.2911,-5.2861,-5.2861,-5.2861,-5.2861,-5.2836,-5.2854,-5.2477,-5.2176,-5.1875,-5.1122,-5.0494,-5.0343,-4.9992,-4.9741,-4.9615,-4.959,-4.959,-4.959,-4.959,-4.959,-4.959,-4.9515,-4.9314,-4.8912,-4.836,-4.7983,-4.7908,-4.7883,-4.7657,-4.7405,-4.7118,-4.7054,-4.6954,-4.6828,-4.6853,-4.6853,-4.6878,-4.6753,-4.6552,-4.6502,-4.6426,-4.6376,-4.6326,-4.6326,-4.6301,-4.6301,-4.61,-4.5748,-4.5121,-4.4618,-4.4134,-4.3619,-4.3294,-4.3263,-4.3162,-4.3062,-4.2986,-4.2986,-4.2986,-4.2911,-4.2785,-4.2585,-7.7798,-7.6924,-7.4736,-7.3293,-7.2288,-7.0435,-6.9316,-6.8659,-6.7602,-6.6528,-6.5575,-6.4907,-6.4127,-6.3187,-6.3061,-6.2904,-6.2822,-6.2822,-6.2822,-6.2822,-6.2822,-6.2822,-6.2822,-6.2822,-6.2822,-6.2822,-6.2822,-6.2822,-6.2822,-6.2822,-6.2822,-6.2822,-6.2822,-6.2772,-6.2521,-6.1642,-6.114,-6.0839,-6.001,-5.9508,-5.9508,-5.9382,-5.9106,-5.8679,-5.765,-5.6821,-5.6244,-5.5691,-5.5064,-5.4436,-5.3858,-5.3381,-5.303,-5.2861,-5.2861,-5.2861,-5.2861,-5.2861,-5.2836,-5.2779,-5.2553,-5.2151,-5.1825,-5.1348,-5.0469,-5.0368,-5.0042,-4.9741,-4.959,-4.964,-4.959,-4.959,-4.959,-4.959,-4.959,-4.954,-4.9339,-4.8912,-4.846,-4.8109,-4.8008,-4.7883,-4.7757,-4.7757,-4.7657,-4.7556,-4.7506,-4.7531,-4.7481,-4.7405,-4.723,-4.6979,-4.6954,-4.6853,-4.6527,-4.6426,-4.6326,-4.6326,-4.6326,-4.6301,-4.5974,-4.5698,-4.5196,-4.4527,-4.3829,-4.3669,-4.3564,-4.3237,-4.3112,-4.3062,-4.2986,-4.2986,-4.2986,-4.2986,-4.2961,-7.6321,-7.4847,-7.3321,-7.1907,-7.06,-6.9079,-6.8097,-6.7383,-6.6419,-6.5466,-6.4569,-6.4107,-6.3514,-6.2847,-6.2822,-6.2822,-6.2822,-6.2822,-6.2822,-6.2822,-6.2822,-6.2822,-6.2822,-6.2822,-6.2822,-6.2822,-6.2822,-6.2822,-6.2822,-6.2822,-6.2822,-6.2822,-6.2822,-6.2822,-6.2672,-6.1743,-6.124,-6.0939,-6.0085,-5.9508,-5.9508,-5.9483,-5.9257,-5.8704,-5.7876,-5.7173,-5.6646,-5.6068,-5.5516,-5.4963,-5.4411,-5.3733,-5.308,-5.2861,-5.2861,-5.2861,-5.2861,-5.2861,-5.2861,-5.2836,-5.2804,-5.2503,-5.2277,-5.1825,-5.1272,-5.0996,-5.0544,-5.0142,-4.9967,-4.9916,-4.964,-4.959,-4.959,-4.959,-4.959,-4.959,-4.954,-4.9314,-4.9063,-4.8761,-4.8761,-4.8586,-4.8435,-4.8335,-4.8083,-4.7908,-4.7807,-4.7807,-4.7757,-4.7682,-4.7682,-4.7531,-4.7506,-4.7305,-4.6828,-4.6552,-4.6326,-4.6326,-4.6326,-4.6326,-4.6175,-4.5974,-4.5773,-4.5103,-4.4519,-4.4102,-4.394,-4.3564,-4.3212,-4.3062,-4.2986,-4.2986,-4.2986,-4.2986,-4.2986,-7.4874,-7.2885,-7.2152,-7.0627,-6.8721,-6.7945,-6.7022,-6.5924,-6.5191,-6.4569,-6.3809,-6.3626,-6.3224,-6.2898,-6.2822,-6.2822,-6.2822,-6.2822,-6.2822,-6.2822,-6.2822,-6.2822,-6.2822,-6.2822,-6.2822,-6.2822,-6.2822,-6.2822,-6.2822,-6.2822,-6.2822,-6.2822,-6.2822,-6.2822,-6.2571,-6.1768,-6.119,-6.104,-6.0085,-5.9508,-5.9508,-5.9483,-5.9232,-5.8704,-5.8152,-5.7549,-5.6972,-5.642,-5.5917,-5.5415,-5.4938,-5.4135,-5.3356,-5.2955,-5.2861,-5.2861,-5.2861,-5.2861,-5.2861,-5.2861,-5.2836,-5.2904,-5.2553,-5.2201,-5.1975,-5.1599,-5.1147,-5.077,-5.0519,-5.0343,-4.9816,-4.9791,-4.9715,-4.9615,-4.959,-4.959,-4.959,-4.959,-4.9515,-4.949,-4.9314,-4.9113,-4.8987,-4.8862,-4.856,-4.8284,-4.8184,-4.8134,-4.8109,-4.8109,-4.8209,-4.8109,-4.8083,-4.7606,-4.7079,-4.6828,-4.6577,-4.6351,-4.6351,-4.6326,-4.6326,-4.62,-4.5999,-4.5773,-4.5262,-4.4844,-4.4342,-4.394,-4.3564,-4.3212,-4.3011,-4.2986,-4.2986,-4.2986,-4.2986,-7.2859,-7.2315,-7.0216,-6.8861,-6.7976,-6.6824,-6.5906,-6.5249,-6.4385,-6.3884,-6.3626,-6.3199,-6.2973,-6.2847,-6.2822,-6.2822,-6.2822,-6.2822,-6.2822,-6.2822,-6.2822,-6.2822,-6.2822,-6.2822,-6.2822,-6.2822,-6.2822,-6.2822,-6.2822,-6.2822,-6.2822,-6.2822,-6.2822,-6.2822,-6.2546,-6.1793,-6.119,-6.1014,-6.0085,-5.9533,-5.9508,-5.9458,-5.9307,-5.8805,-5.8278,-5.77,-5.7097,-5.652,-5.5968,-5.544,-5.5315,-5.4637,-5.3758,-5.3206,-5.298,-5.2861,-5.2861,-5.2861,-5.2861,-5.2861,-5.2861,-5.2904,-5.2804,-5.2528,-5.2226,-5.2026,-5.1699,-5.1297,-5.1071,-5.087,-5.0368,-5.0218,-5.0017,-4.9791,-4.9615,-4.959,-4.959,-4.959,-4.959,-4.959,-4.9565,-4.9565,-4.9389,-4.9264,-4.9113,-4.8962,-4.8937,-4.8912,-4.8937,-4.8937,-4.8987,-4.8837,-4.8636,-4.7983,-4.728,-4.7104,-4.6817,-4.6502,-4.6401,-4.6326,-4.6326,-4.6326,-4.6175,-4.5974,-4.5773,-4.5372,-4.4869,-4.4392,-4.4016,-4.374,-4.3388,-4.3037,-4.3087,-4.3137,-4.2986,-7.1415,-7.0408,-6.8944,-6.7806,-6.6804,-6.5658,-6.4804,-6.436,-6.3583,-6.3249,-6.3174,-6.2948,-6.2822,-6.2822,-6.2822,-6.2822,-6.2822,-6.2822,-6.2822,-6.2822,-6.2822,-6.2822,-6.2822,-6.2822,-6.2822,-6.2822,-6.2822,-6.2822,-6.2822,-6.2822,-6.2822,-6.2822,-6.2822,-6.2822,-6.2571,-6.1743,-6.1266,-6.0939,-6.0136,-5.9508,-5.9508,-5.9508,-5.9332,-5.9056,-5.8579,-5.8052,-5.7499,-5.6922,-5.6394,-5.5892,-5.5541,-5.4938,-5.426,-5.3658,-5.3206,-5.3005,-5.2861,-5.2861,-5.2861,-5.2861,-5.2861,-5.2861,-5.2861,-5.2829,-5.2603,-5.2477,-5.2251,-5.1825,-5.1348,-5.1172,-5.0896,-5.0645,-5.0293,-5.0042,-4.9791,-4.964,-4.9615,-4.9615,-4.959,-4.959,-4.959,-4.959,-4.959,-4.954,-4.9565,-4.959,-4.959,-4.959,-4.959,-4.954,-4.9439,-4.9264,-4.8987,-4.851,-4.7832,-4.7506,-4.7118,-4.6778,-4.6502,-4.6426,-4.6326,-4.6326,-4.6326,-4.6225,-4.5999,-4.5773,-4.5447,-4.497,-4.4618,-4.4242,-4.384,-4.3514,-4.3363,-4.3263,-4.3137,-7.016,-6.8586,-6.7919,-6.6836,-6.5586,-6.4634,-6.3931,-6.3507,-6.3048,-6.2873,-6.2822,-6.2822,-6.2822,-6.2822,-6.2822,-6.2822,-6.2822,-6.2822,-6.2822,-6.2822,-6.2822,-6.2822,-6.2822,-6.2822,-6.2822,-6.2822,-6.2822,-6.2822,-6.2822,-6.2822,-6.2822,-6.2822,-6.2822,-6.2822,-6.2596,-6.1743,-6.1341,-6.0839,-6.0085,-5.9533,-5.9508,-5.9508,-5.9508,-5.9458,-5.8981,-5.8428,-5.7851,-5.7273,-5.6721,-5.6219,-5.5767,-5.5315,-5.4762,-5.4185,-5.3632,-5.3181,-5.3005,-5.2861,-5.2861,-5.2861,-5.2861,-5.2861,-5.2861,-5.2929,-5.2904,-5.2804,-5.2703,-5.2277,-5.1975,-5.1624,-5.1448,-5.1071,-5.077,-5.0494,-5.0142,-4.9766,-4.9766,-4.9715,-4.9615,-4.959,-4.959,-4.959,-4.959,-4.959,-4.959,-4.959,-4.959,-4.959,-4.959,-4.959,-4.9515,-4.9464,-4.9264,-4.8962,-4.8485,-4.8008,-4.7556,-4.7029,-4.6778,-4.6602,-4.6451,-4.6326,-4.6326,-4.6326,-4.6276,-4.605,-4.5773,-4.5522,-4.5121,-4.4719,-4.4267,-4.394,-4.3746,-4.352,-4.3288,-6.8752,-6.798,-6.6714,-6.5568,-6.4507,-6.3974,-6.3457,-6.2973,-6.2873,-6.2822,-6.2822,-6.2822,-6.2822,-6.2822,-6.2822,-6.2822,-6.2822,-6.2822,-6.2822,-6.2822,-6.2822,-6.2822,-6.2822,-6.2822,-6.2822,-6.2822,-6.2822,-6.2822,-6.2822,-6.2822,-6.2822,-6.2822,-6.2822,-6.2822,-6.2722,-6.1718,-6.1215,-6.0989,-6.006,-5.9508,-5.9508,-5.9508,-5.9508,-5.9357,-5.9031,-5.8529,-5.8027,-5.7449,-5.6872,-5.6344,-5.6168,-5.5817,-5.5315,-5.4762,-5.421,-5.3658,-5.3231,-5.2861,-5.2861,-5.2861,-5.2861,-5.2861,-5.2861,-5.2861,-5.2861,-5.2861,-5.2879,-5.2854,-5.2678,-5.2427,-5.2076,-5.19,-5.1649,-5.1197,-5.067,-5.0393,-5.0293,-4.9941,-4.9816,-4.9576,-4.9601,-4.9615,-4.959,-4.959,-4.959,-4.959,-4.959,-4.959,-4.959,-4.959,-4.959,-4.954,-4.949,-4.9238,-4.8962,-4.851,-4.8058,-4.7456,-4.7054,-4.6828,-4.6627,-4.6476,-4.6326,-4.6326,-4.6326,-4.6301,-4.61,-4.5824,-4.5547,-4.5246,-4.4869,-4.4475,-4.408,-4.3828,-4.3463,-6.665,-6.6335,-6.5422,-6.4601,-6.3899,-6.3432,-6.3073,-6.2873,-6.2822,-6.2822,-6.2822,-6.2822,-6.2822,-6.2822,-6.2822,-6.2822,-6.2822,-6.2822,-6.2822,-6.2822,-6.2822,-6.2822,-6.2822,-6.2822,-6.2822,-6.2822,-6.2822,-6.2822,-6.2822,-6.2822,-6.2822,-6.2822,-6.2822,-6.2822,-6.2722,-6.1718,-6.1291,-6.0864,-6.0161,-5.9533,-5.9508,-5.9508,-5.9508,-5.9483,-5.9257,-5.8855,-5.8353,-5.7826,-5.7273,-5.6746,-5.6445,-5.5942,-5.5415,-5.4863,-5.431,-5.3733,-5.3206,-5.2955,-5.2861,-5.2861,-5.2861,-5.2861,-5.2861,-5.2861,-5.2861,-5.2861,-5.2861,-5.2836,-5.2861,-5.2779,-5.2528,-5.2277,-5.2026,-5.1649,-5.1222,-5.1046,-5.0795,-5.0343,-5.0002,-4.9826,-4.9586,-4.9626,-4.964,-4.959,-4.959,-4.959,-4.959,-4.959,-4.959,-4.959,-4.959,-4.959,-4.9565,-4.949,-4.9238,-4.8912,-4.8636,-4.8058,-4.7269,-4.7104,-4.6853,-4.6677,-4.6502,-4.6351,-4.6326,-4.6301,-4.6301,-4.6175,-4.5924,-4.5698,-4.5497,-4.5129,-4.4709,-4.3972,-4.3639,-6.4811,-6.4551,-6.4273,-6.3931,-6.345,-6.2998,-6.2847,-6.2822,-6.2822,-6.2822,-6.2822,-6.2822,-6.2822,-6.2822,-6.2822,-6.2822,-6.2822,-6.2822,-6.2822,-6.2822,-6.2822,-6.2822,-6.2822,-6.2822,-6.2822,-6.2822,-6.2822,-6.2822,-6.2822,-6.2822,-6.2822,-6.2822,-6.2822,-6.2822,-6.2546,-6.1768,-6.1065,-6.0512,-5.9885,-5.9533,-5.9508,-5.9508,-5.9508,-5.9508,-5.9433,-5.9257,-5.873,-5.8177,-5.76,-5.7047,-5.6495,-5.6018,-5.5641,-5.4988,-5.4461,-5.3909,-5.3381,-5.2861,-5.2861,-5.2861,-5.2861,-5.2861,-5.2861,-5.2861,-5.2861,-5.2861,-5.2861,-5.2861,-5.2861,-5.2861,-5.2785,-5.2528,-5.2427,-5.2176,-5.1825,-5.1624,-5.1398,-5.0946,-5.0353,-4.9871,-4.9696,-4.9701,-4.9715,-4.9615,-4.959,-4.959,-4.959,-4.959,-4.959,-4.959,-4.959,-4.959,-4.959,-4.9565,-4.9439,-4.9213,-4.8987,-4.8724,-4.7958,-4.738,-4.7129,-4.6853,-4.6627,-4.6476,-4.6376,-4.6301,-4.6301,-4.6301,-4.6301,-4.6075,-4.5849,-4.5757,-4.5389,-4.4551,-4.384,-6.3811,-6.2973,-6.3558,-6.3375,-6.2923,-6.2847,-6.2822,-6.2822,-6.2822,-6.2822,-6.2822,-6.2822,-6.2822,-6.2822,-6.2822,-6.2822,-6.2822,-6.2822,-6.2822,-6.2822,-6.2822,-6.2747,-6.2697,-6.2672,-6.2722,-6.2747,-6.2722,-6.2722,-6.2822,-6.2822,-6.2822,-6.2822,-6.2822,-6.2822,-6.2496,-6.1768,-6.0663,-6.0085,-5.9558,-5.9508,-5.9508,-5.9508,-5.9508,-5.9508,-5.9458,-5.9257,-5.873,-5.8202,-5.7725,-5.7148,-5.6545,-5.6219,-5.5892,-5.5064,-5.4511,-5.4235,-5.3406,-5.3005,-5.2861,-5.2861,-5.2861,-5.2861,-5.2861,-5.2861,-5.2861,-5.2861,-5.2861,-5.2861,-5.2861,-5.2861,-5.2929,-5.2879,-5.2754,-5.2603,-5.2327,-5.2176,-5.19,-5.1498,-5.0905,-5.004,-4.9856,-5.0052,-4.9826,-4.9776,-4.964,-4.964,-4.959,-4.959,-4.959,-4.959,-4.959,-4.959,-4.959,-4.959,-4.959,-4.9414,-4.9238,-4.9101,-4.8624,-4.7933,-4.7431,-4.7154,-4.6954,-4.6652,-4.6527,-4.6426,-4.6326,-4.6326,-4.6326,-4.6326,-4.62,-4.6009,-4.5691,-4.4986,-4.4299,-6.3187,-6.2847,-6.3073,-6.3023,-6.2822,-6.2822,-6.2822,-6.2822,-6.2822,-6.2822,-6.2797,-6.2822,-6.2822,-6.2822,-6.2822,-6.2822,-6.2822,-6.2822,-6.2797,-6.2697,-6.2546,-6.2345,-6.2245,-6.2094,-6.1943,-6.2245,-6.2345,-6.2571,-6.2797,-6.2772,-6.2822,-6.2822,-6.2822,-6.2822,-6.2471,-6.1718,-6.0613,-5.9809,-5.9508,-5.9508,-5.9508,-5.9508,-5.9508,-5.9508,-5.9508,-5.9433,-5.9106,-5.8328,-5.7876,-5.7399,-5.6671,-5.6344,-5.6043,-5.5114,-5.4637,-5.4436,-5.3507,-5.303,-5.2861,-5.2861,-5.2861,-5.2861,-5.2861,-5.2861,-5.2861,-5.2861,-5.2861,-5.2861,-5.2861,-5.2861,-5.2861,-5.2861,-5.281,-5.2854,-5.2754,-5.2603,-5.2377,-5.2,-5.1884,-5.1222,-5.0738,-5.0538,-5.0237,-4.9937,-4.9776,-4.9665,-4.964,-4.959,-4.959,-4.959,-4.959,-4.959,-4.959,-4.959,-4.959,-4.9565,-4.9515,-4.9378,-4.9215,-4.8598,-4.7958,-4.7732,-4.7481,-4.7104,-4.6728,-4.6652,-4.6527,-4.6376,-4.6326,-4.6326,-4.6225,-4.6135,-4.5707,-4.5313,-4.4702,-6.2571,-6.2546,-6.2421,-6.2446,-6.2571,-6.2571,-6.2496,-6.2345,-6.2295,-6.2345,-6.2345,-6.2471,-6.2571,-6.2621,-6.2772,-6.2672,-6.2571,-6.2521,-6.2421,-6.222,-6.1918,-6.1768,-6.1617,-6.1517,-6.1492,-6.1718,-6.1818,-6.2019,-6.2521,-6.2571,-6.2672,-6.2772,-6.2822,-6.2822,-6.2571,-6.1718,-6.0613,-5.9759,-5.9508,-5.9508,-5.9508,-5.9508,-5.9508,-5.9508,-5.9508,-5.9483,-5.9182,-5.8504,-5.7951,-5.7499,-5.6947,-5.6319,-5.5842,-5.5315,-5.4687,-5.421,-5.3658,-5.2911,-5.2861,-5.2861,-5.2861,-5.2861,-5.2861,-5.2861,-5.2861,-5.2861,-5.2861,-5.2861,-5.2861,-5.2861,-5.2861,-5.2861,-5.2861,-5.2904,-5.2904,-5.2779,-5.2729,-5.2477,-5.2581,-5.2422,-5.1884,-5.1322,-5.1179,-5.0852,-5.0102,-4.9891,-4.964,-4.959,-4.959,-4.959,-4.959,-4.959,-4.959,-4.959,-4.959,-4.9565,-4.954,-4.9515,-4.9353,-4.919,-4.8674,-4.8335,-4.7958,-4.7531,-4.7205,-4.6979,-4.6753,-4.6552,-4.6426,-4.6326,-4.6225,-4.615,-4.5974,-4.5581,-4.5028,-6.2019,-6.1969,-6.1466,-6.1542,-6.1969,-6.2019,-6.1743,-6.1416,-6.1366,-6.1366,-6.1466,-6.1818,-6.2019,-6.2119,-6.2395,-6.232,-6.2069,-6.2019,-6.1843,-6.1492,-6.1316,-6.1215,-6.114,-6.1065,-6.0939,-6.114,-6.124,-6.1466,-6.2019,-6.2019,-6.227,-6.2521,-6.2521,-6.2571,-6.2672,-6.1718,-6.0613,-5.9659,-5.9508,-5.9508,-5.9508,-5.9508,-5.9508,-5.9508,-5.9508,-5.9508,-5.9282,-5.8453,-5.7951,-5.7725,-5.6821,-5.6269,-5.6093,-5.5139,-5.4612,-5.4486,-5.3507,-5.298,-5.2861,-5.2861,-5.2861,-5.2861,-5.2861,-5.2861,-5.2861,-5.2861,-5.2861,-5.2861,-5.2861,-5.2861,-5.2861,-5.2861,-5.2861,-5.2861,-5.2861,-5.2861,-5.2879,-5.2829,-5.2815,-5.2876,-5.2531,-5.2161,-5.2177,-5.1889,-5.0801,-5.0167,-4.9766,-4.9665,-4.9791,-4.9916,-5.0042,-4.9967,-4.9992,-4.9841,-4.9841,-4.9665,-4.959,-4.959,-4.9515,-4.9328,-4.9177,-4.8862,-4.8435,-4.7958,-4.7732,-4.7531,-4.7129,-4.6728,-4.6577,-4.6401,-4.6326,-4.625,-4.61,-4.5874,-4.5372,-6.1466,-6.1441,-6.1266,-6.1065,-6.0964,-6.1316,-6.1341,-6.119,-6.119,-6.1165,-6.1215,-6.1416,-6.1441,-6.1542,-6.1642,-6.1667,-6.1517,-6.1466,-6.124,-6.114,-6.0788,-6.0638,-6.0537,-6.0362,-6.0311,-6.0537,-6.0663,-6.0914,-6.1466,-6.1466,-6.1517,-6.1718,-6.1843,-6.1743,-6.1542,-6.0939,-6.0186,-5.9633,-5.9508,-5.9508,-5.9508,-5.9508,-5.9508,-5.9508,-5.9508,-5.9508,-5.9433,-5.8453,-5.7951,-5.775,-5.6821,-5.6269,-5.6043,-5.5164,-5.4587,-5.4361,-5.3557,-5.2886,-5.2861,-5.2861,-5.2861,-5.2861,-5.2861,-5.2861,-5.2861,-5.2861,-5.2861,-5.2861,-5.2861,-5.2861,-5.2861,-5.2861,-5.2861,-5.2861,-5.2861,-5.2861,-5.2836,-5.2904,-5.2898,-5.2898,-5.2653,-5.2377,-5.2329,-5.2287,-5.1456,-5.1071,-5.077,-5.0594,-5.067,-5.077,-5.0845,-5.067,-5.0569,-5.0318,-5.0117,-4.9941,-4.9766,-4.9741,-4.9665,-4.9515,-4.9364,-4.9213,-4.8987,-4.8535,-4.8335,-4.8109,-4.7581,-4.7079,-4.6728,-4.6502,-4.6426,-4.6326,-4.6225,-4.61,-4.5874,-6.0889,-6.0864,-6.0663,-6.0387,-6.0161,-6.0638,-6.0788,-6.0638,-6.0588,-6.0588,-6.0613,-6.0763,-6.0889,-6.0939,-6.109,-6.0989,-6.0914,-6.0889,-6.0663,-6.0588,-6.0236,-6.006,-5.9885,-5.9734,-5.9809,-5.9985,-6.0111,-6.0311,-6.0864,-6.0889,-6.104,-6.1165,-6.0989,-6.0964,-6.0788,-6.0462,-6.0085,-5.9659,-5.9508,-5.9508,-5.9508,-5.9508,-5.9508,-5.9508,-5.9508,-5.9508,-5.9207,-5.8629,-5.7876,-5.7575,-5.6972,-5.6244,-5.5892,-5.529,-5.4637,-5.426,-5.3607,-5.303,-5.2861,-5.2861,-5.2861,-5.2861,-5.2861,-5.2861,-5.2861,-5.2861,-5.2861,-5.2861,-5.2861,-5.2861,-5.2861,-5.2861,-5.2861,-5.2861,-5.2861,-5.2861,-5.2861,-5.2929,-5.2929,-5.2929,-5.2879,-5.2628,-5.2452,-5.2277,-5.1975,-5.19,-5.185,-5.1674,-5.1423,-5.1423,-5.1448,-5.1272,-5.1096,-5.0845,-5.0544,-5.0268,-5.0092,-4.9916,-4.9791,-4.9665,-4.9565,-4.9414,-4.9264,-4.9113,-4.8761,-4.841,-4.7933,-4.7481,-4.7054,-4.6702,-4.6476,-4.6401,-4.6326,-4.6225,-4.6125,-6.0261,-6.0186,-5.9684,-5.9458,-5.9533,-5.9935,-5.991,-5.9533,-5.9558,-5.9583,-5.9583,-6.0136,-6.0286,-6.0387,-6.0839,-6.0738,-6.0387,-6.0311,-6.006,-5.9784,-5.9684,-5.9608,-5.9583,-5.9533,-5.9583,-5.9533,-5.9633,-5.9885,-6.0286,-6.0311,-6.0563,-6.0763,-6.0462,-6.0337,-6.0261,-6.0161,-5.9885,-5.9608,-5.9508,-5.9508,-5.9508,-5.9508,-5.9508,-5.9508,-5.9508,-5.9433,-5.9106,-5.8478,-5.7976,-5.7474,-5.6821,-5.6394,-5.5867,-5.5164,-5.4787,-5.4235,-5.3432,-5.308,-5.2861,-5.2861,-5.2861,-5.2861,-5.2861,-5.2861,-5.2861,-5.2861,-5.2861,-5.2861,-5.2861,-5.2861,-5.2861,-5.2861,-5.2861,-5.2861,-5.2861,-5.2861,-5.2861,-5.2861,-5.2861,-5.2861,-5.2861,-5.2735,-5.2779,-5.2653,-5.2427,-5.2477,-5.2377,-5.2201,-5.1975,-5.1774,-5.1774,-5.1724,-5.1548,-5.1373,-5.1071,-5.077,-5.0393,-5.0193,-4.9941,-4.9816,-4.9715,-4.9615,-4.9464,-4.9289,-4.9063,-4.8686,-4.8259,-4.7832,-4.7319,-4.6968,-4.6702,-4.6451,-4.6401,-4.6326,-4.6175,-5.9182,-5.9131,-5.8579,-5.8353,-5.8378,-5.8529,-5.8905,-5.9458,-5.9508,-5.9483,-5.9508,-5.9659,-5.9684,-5.9759,-5.991,-5.9859,-5.9809,-5.9709,-5.9659,-5.9533,-5.9508,-5.9508,-5.9508,-5.9508,-5.9508,-5.9508,-5.9533,-5.9583,-5.9709,-5.9759,-5.9784,-5.9859,-5.991,-5.9809,-5.9784,-5.9734,-5.9633,-5.9558,-5.9508,-5.9508,-5.9508,-5.9508,-5.9508,-5.9508,-5.9508,-5.9382,-5.888,-5.8328,-5.7801,-5.7198,-5.662,-5.6219,-5.6118,-5.5516,-5.4988,-5.3959,-5.3331,-5.2861,-5.2861,-5.2861,-5.2861,-5.2861,-5.2861,-5.2861,-5.2861,-5.2861,-5.2861,-5.2861,-5.2861,-5.2861,-5.2861,-5.2861,-5.2861,-5.2861,-5.2861,-5.2861,-5.2861,-5.2861,-5.2861,-5.2861,-5.2861,-5.2861,-5.2861,-5.281,-5.2729,-5.2785,-5.2854,-5.2628,-5.2477,-5.2277,-5.2176,-5.2126,-5.2051,-5.1875,-5.1674,-5.1398,-5.0896,-5.0494,-5.0243,-4.9967,-4.9791,-4.969,-4.9615,-4.949,-4.9289,-4.9012,-4.8661,-4.8234,-4.7857,-4.733,-4.6954,-4.6677,-4.6451,-4.6351,-4.6301,-5.8403,-5.8353,-5.8052,-5.7901,-5.7901,-5.7901,-5.8303,-5.8805,-5.8855,-5.8855,-5.8855,-5.8855,-5.8981,-5.9182,-5.9232,-5.9307,-5.9533,-5.9558,-5.9508,-5.9508,-5.9508,-5.9508,-5.9508,-5.9508,-5.9508,-5.9508,-5.9508,-5.9508,-5.9508,-5.9508,-5.9533,-5.9558,-5.9508,-5.9508,-5.9533,-5.9558,-5.9533,-5.9508,-5.9508,-5.9508,-5.9508,-5.9508,-5.9508,-5.9483,-5.9483,-5.9182,-5.8704,-5.8152,-5.76,-5.7047,-5.6495,-5.6219,-5.6118,-5.5666,-5.4863,-5.3959,-5.3507,-5.3155,-5.3005,-5.2861,-5.2861,-5.2861,-5.2861,-5.2861,-5.2861,-5.2861,-5.2861,-5.2861,-5.2861,-5.2861,-5.2861,-5.2861,-5.2861,-5.2861,-5.2861,-5.2861,-5.2861,-5.2861,-5.2861,-5.2861,-5.2861,-5.2861,-5.2861,-5.2861,-5.2861,-5.2861,-5.2861,-5.2785,-5.2779,-5.2703,-5.2628,-5.2628,-5.2528,-5.2427,-5.2201,-5.195,-5.1548,-5.1046,-5.0544,-5.0268,-4.9967,-4.9715,-4.9615,-4.959,-4.9565,-4.9289,-4.9012,-4.8761,-4.841,-4.7832,-4.723,-4.6853,-4.6552,-4.6351,-4.6301,-5.7826,-5.7826,-5.7775,-5.7675,-5.775,-5.77,-5.7725,-5.7775,-5.7775,-5.7826,-5.7926,-5.7951,-5.8278,-5.8604,-5.8654,-5.8855,-5.9081,-5.9207,-5.9307,-5.9458,-5.9483,-5.9483,-5.9508,-5.9508,-5.9508,-5.9508,-5.9508,-5.9508,-5.9508,-5.9508,-5.9508,-5.9508,-5.9508,-5.9508,-5.9508,-5.9508,-5.9508,-5.9508,-5.9508,-5.9508,-5.9508,-5.9508,-5.9483,-5.9483,-5.9357,-5.9131,-5.8604,-5.8102,-5.7575,-5.6997,-5.657,-5.6219,-5.6043,-5.5666,-5.4813,-5.421,-5.3808,-5.3432,-5.3155,-5.3005,-5.2861,-5.2861,-5.2861,-5.2861,-5.2861,-5.2861,-5.2861,-5.2861,-5.2861,-5.2861,-5.2861,-5.2861,-5.2861,-5.2861,-5.2861,-5.2861,-5.2861,-5.2861,-5.2861,-5.2861,-5.2861,-5.2861,-5.2861,-5.2861,-5.2861,-5.2861,-5.2861,-5.2861,-5.2861,-5.2861,-5.2861,-5.2861,-5.2829,-5.2703,-5.2653,-5.2427,-5.2176,-5.1724,-5.1122,-5.0569,-5.0268,-4.9941,-4.9615,-4.959,-4.959,-4.959,-4.9414,-4.9163,-4.8786,-4.8234,-4.7631,-4.7054,-4.6702,-4.6476,-4.6301,-5.7248,-5.7198,-5.6796,-5.662,-5.662,-5.662,-5.662,-5.662,-5.662,-5.7072,-5.7775,-5.7876,-5.7926,-5.8052,-5.8102,-5.8252,-5.8403,-5.878,-5.8905,-5.9081,-5.9257,-5.9433,-5.9508,-5.9508,-5.9508,-5.9508,-5.9508,-5.9508,-5.9508,-5.9508,-5.9508,-5.9508,-5.9508,-5.9508,-5.9508,-5.9508,-5.9508,-5.9508,-5.9508,-5.9508,-5.9508,-5.9508,-5.9483,-5.9357,-5.9182,-5.8679,-5.8127,-5.7575,-5.6997,-5.6445,-5.6319,-5.6219,-5.6194,-5.5691,-5.5315,-5.4913,-5.4185,-5.3733,-5.3406,-5.313,-5.2886,-5.2861,-5.2861,-5.2861,-5.2861,-5.2861,-5.2861,-5.2861,-5.2861,-5.2861,-5.2861,-5.2861,-5.2861,-5.2861,-5.2861,-5.2861,-5.2861,-5.2861,-5.2861,-5.2861,-5.2861,-5.2861,-5.2861,-5.2861,-5.2861,-5.2861,-5.2861,-5.2861,-5.2861,-5.2861,-5.2861,-5.2861,-5.2861,-5.2785,-5.2785,-5.2779,-5.2528,-5.2277,-5.1749,-5.1172,-5.0569,-5.0142,-4.9791,-4.964,-4.959,-4.959,-4.959,-4.954,-4.9138,-4.8535,-4.8083,-4.7531,-4.6979,-4.6677,-4.6476,-5.5942,-5.5892,-5.5616,-5.5491,-5.5491,-5.5491,-5.5465,-5.5491,-5.5491,-5.5968,-5.6771,-5.7022,-5.7273,-5.7449,-5.7524,-5.77,-5.7851,-5.8202,-5.8529,-5.8805,-5.8956,-5.9282,-5.9382,-5.9458,-5.9508,-5.9508,-5.9508,-5.9508,-5.9508,-5.9508,-5.9508,-5.9508,-5.9508,-5.9508,-5.9508,-5.9508,-5.9508,-5.9508,-5.9508,-5.9508,-5.9508,-5.9508,-5.9332,-5.9131,-5.883,-5.8303,-5.7675,-5.7148,-5.6771,-5.6394,-5.6219,-5.6219,-5.6168,-5.5942,-5.5666,-5.5214,-5.4612,-5.3959,-5.3658,-5.3306,-5.2886,-5.2861,-5.2861,-5.2861,-5.2861,-5.2861,-5.2861,-5.2861,-5.2861,-5.2861,-5.2861,-5.2861,-5.2861,-5.2861,-5.2861,-5.2861,-5.2861,-5.2861,-5.2861,-5.2861,-5.2861,-5.2861,-5.2861,-5.2861,-5.2861,-5.2861,-5.2861,-5.2861,-5.2861,-5.2861,-5.2861,-5.2861,-5.2861,-5.2861,-5.2836,-5.281,-5.2779,-5.2528,-5.2277,-5.1498,-5.0745,-5.0318,-4.9967,-4.9791,-4.9665,-4.959,-4.959,-4.959,-4.9314,-4.8736,-4.8385,-4.8058,-4.7506,-4.6954,-4.6677,-5.4637,-5.4561,-5.4587,-5.4587,-5.4561,-5.4587,-5.4612,-5.4612,-5.4612,-5.4863,-5.539,-5.5842,-5.6319,-5.6771,-5.6947,-5.7298,-5.7549,-5.7675,-5.8052,-5.8303,-5.8529,-5.8855,-5.9156,-5.9332,-5.9382,-5.9458,-5.9508,-5.9508,-5.9508,-5.9508,-5.9508,-5.9508,-5.9508,-5.9508,-5.9508,-5.9508,-5.9508,-5.9508,-5.9508,-5.9508,-5.9508,-5.9483,-5.9207,-5.893,-5.8554,-5.8052,-5.7374,-5.6872,-5.662,-5.6445,-5.6219,-5.6219,-5.6219,-5.6118,-5.5942,-5.5516,-5.4863,-5.431,-5.3884,-5.3306,-5.3055,-5.2861,-5.2861,-5.2861,-5.2861,-5.2861,-5.2861,-5.2861,-5.2861,-5.2861,-5.2861,-5.2861,-5.2861,-5.2861,-5.2861,-5.2861,-5.2861,-5.2861,-5.2861,-5.2861,-5.2861,-5.2861,-5.2861,-5.2861,-5.2861,-5.2861,-5.2861,-5.2861,-5.2861,-5.2861,-5.2861,-5.2861,-5.2861,-5.2861,-5.2861,-5.2836,-5.2879,-5.2804,-5.2452,-5.1649,-5.0971,-5.0544,-5.0193,-4.9891,-4.9766,-4.964,-4.959,-4.959,-4.9264,-4.8962,-4.8661,-4.836,-4.7933,-4.7405,-4.6954,-5.4561,-5.4561,-5.4561,-5.4561,-5.4536,-5.4536,-5.4561,-5.4561,-5.4536,-5.4637,-5.4737,-5.4863,-5.539,-5.6369,-5.6369,-5.6545,-5.6671,-5.6972,-5.7173,-5.7349,-5.7876,-5.8378,-5.873,-5.888,-5.9131,-5.9232,-5.9307,-5.9433,-5.9182,-5.9307,-5.9458,-5.9382,-5.9458,-5.9458,-5.9483,-5.9483,-5.9508,-5.9508,-5.9508,-5.9508,-5.9508,-5.9408,-5.9182,-5.878,-5.8278,-5.77,-5.7123,-5.6595,-5.6369,-5.6244,-5.6219,-5.6219,-5.6219,-5.6219,-5.6093,-5.5767,-5.5114,-5.4587,-5.4084,-5.3381,-5.3055,-5.2861,-5.2861,-5.2861,-5.2861,-5.2861,-5.2861,-5.2861,-5.2861,-5.2861,-5.2861,-5.2861,-5.2861,-5.2861,-5.2861,-5.2861,-5.2861,-5.2861,-5.2861,-5.2861,-5.2861,-5.2861,-5.2861,-5.2861,-5.2861,-5.2861,-5.2861,-5.2861,-5.2861,-5.2861,-5.2861,-5.2861,-5.2861,-5.2861,-5.2861,-5.2861,-5.2836,-5.2879,-5.2729,-5.2126,-5.1498,-5.0845,-5.0469,-5.0142,-4.9841,-4.9576,-4.9615,-4.959,-4.954,-4.9289,-4.8937,-4.8611,-4.8234,-4.7883,-4.7456]},{"header":{"parameterUnit":"m.s-1","parameterCategory":1,"la1":31.0,"la2":29.5877,"lo1":-88.7671,"lo2":-86.6584,"dy":0.0162,"dx":0.0185,"nx":115,"ny":88,"refTime":"2023-06-13T12:00:00:Z","depth":0,"parameterNumber":3,"parameterNumberName":"V-component_of_WINDS"},"data":[0.0,0.0,0.0,0.0,0.0,0.0,0.0,0.0,0.0,0.0,0.0,0.0,0.0,0.0,0.0,0.0,0.0,0.0,0.0,0.0,0.0,0.0,0.0,0.0,0.0,0.0,0.0,0.0,0.0,0.0,0.0,0.0,0.0,0.0,0.0,0.0,0.0,0.0,0.0,0.0,0.0,0.0,0.0,0.0,0.0,0.0,0.0,0.0,0.0,0.0,0.0,0.0,0.0,0.0,0.0,0.0,0.0,0.0,0.0,0.0,0.0,0.0,0.0,0.0,0.0,0.0,0.0,0.0,0.0,0.0,0.0,0.0,0.0,0.0,0.0,0.0,0.0,0.0,0.0,0.0,0.0,0.0,0.0,0.0,0.0,0.0,0.0,0.0,0.0,0.0,0.0,0.0,0.0,0.0,0.0,0.0,0.0,0.0,0.0,0.0,0.0,0.0,0.0,0.0,0.0,0.0,0.0,0.0,0.0,0.0,0.0,0.0,0.0,0.0,0.0,0.0,0.0,0.0,0.0,0.0,0.0,0.0,0.0,0.0,0.0,0.0,0.0,0.0,0.0,0.0,0.0,0.0,0.0,0.0,0.0,0.0,0.0,0.0,0.0,0.0,0.0,0.0,0.0,0.0,0.0,0.0,0.0,0.0,0.0,0.0,0.0,0.0,0.0,0.0,0.0,0.0,0.0,0.0,0.0,0.0,0.0,0.0,0.0,0.0,0.0,0.0,0.0,0.0,0.0,0.0,0.0,0.0,0.0,0.0,0.0,0.0,0.0,0.0,0.0,0.0,0.0,0.0,0.0,0.0,0.0,0.0,0.0,0.0,0.0,0.0,0.0,0.0,0.0,0.0,0.0,0.0,0.0,0.0,0.0,0.0,0.0,0.0,0.0,0.0,0.0,0.0,0.0,0.0,0.0,0.0,0.0,0.0,0.0,0.0,0.0,0.0,0.0,0.0,0.0,0.0,0.0,0.0,0.0,0.0,0.0,0.0,0.0,0.0,0.0,0.0,0.0,0.0,0.0,0.0,0.0,0.0,0.0,0.0,0.0,0.0,0.0,0.0,0.0,0.0,0.0,0.0,0.0,0.0,0.0,0.0,0.0,0.0,0.0,0.0,0.0,0.0,0.0,0.0,0.0,0.0,0.0,0.0,0.0,0.0,0.0,0.0,0.0,0.0,0.0,0.0,0.0,0.0,0.0,0.0,0.0,0.0,0.0,0.0,0.0,0.0,0.0,0.0,0.0,0.0,0.0,0.0,0.0,0.0,0.0,0.0,0.0,0.0,0.0,0.0,0.0,0.0,0.0,0.0,0.0,0.0,0.0,0.0,0.0,0.0,0.0,0.0,0.0,0.0,0.0,0.0,0.0,0.0,0.0,0.0,0.0,0.0,0.0,0.0,0.0,0.0,0.0,0.0,0.0,0.0,0.0,0.0,0.0,0.0,0.0,0.0,0.0,0.0,0.0,0.0,0.0,0.0,0.0,0.0,0.0,0.0,0.0,0.0,0.0,0.0,0.0,0.0,0.0,0.0,0.0,0.0,0.0,0.0,0.0,0.0,0.0,0.0,0.0,0.0,0.0,0.0,0.0,0.0,0.0,0.0,0.0,0.0,0.0,0.0,0.0,0.0,0.0,0.0,0.0,0.0,0.0,0.0,0.0,0.0,0.0,0.0,0.0,0.0,0.0,0.0,0.0,0.0,0.0,0.0,0.0,0.0,0.0,0.0,0.0,0.0,0.0,0.0,0.0,0.0,0.0,0.0,0.0,0.0,0.0,0.0,0.0,0.0,0.0,0.0,0.0,0.0,0.0,0.0,0.0,0.0,0.0,0.0,0.0,0.0,0.0,0.0,0.0,0.0,0.0,0.0,0.0,0.0,0.0,0.0,0.0,0.0,0.0,0.0,0.0,0.0,0.0,0.0,0.0,0.0,0.0,0.0,0.0,0.0,0.0,0.0,0.0,0.0,0.0,0.0,0.0,0.0,0.0,0.0,0.0,0.0,0.0,0.0,0.0,0.0,0.0,0.0,0.0,0.0,0.0,0.0,0.0,0.0,0.0,0.0,0.0,0.0,0.0,0.0,0.0,0.0,0.0,0.0,0.0,0.0,0.0,0.0,0.0,0.0,0.0,0.0,0.0,0.0,0.0,0.0,0.0,0.0,0.0,0.0,0.0,0.0,0.0,0.0,0.0,0.0,0.0,0.0,0.0,0.0,0.0,0.0,0.0,0.0,0.0,0.0,0.0,0.0,0.0,0.0,0.0,0.0,0.0,0.0,0.0,0.0,0.0,0.0,0.0,0.0,0.0,0.0,0.0,0.0,0.0,0.0,0.0,0.0,0.0,0.0,0.0,0.0,0.0,0.0,0.0,0.0,0.0,0.0,0.0,0.0,0.0,0.0,0.0,0.0,0.0,0.0,0.0,0.0,0.0,0.0,0.0,0.0,0.0,0.0,0.0,0.0,0.0,0.0,0.0,0.0,0.0,0.0,0.0,0.0,0.0,0.0,0.0,0.0,0.0,0.0,0.0,0.0,0.0,0.0,0.0,0.0,0.0,0.0,0.0,0.0,0.0,0.0,0.0,0.0,0.0,0.0,0.0,0.0,0.0,0.0,0.0,0.0,0.0,0.0,0.0,0.0,0.0,0.0,0.0,0.0,0.0,0.0,0.0,0.0,0.0,0.0,0.0,0.0,0.0,0.0,0.0,0.0,0.0,0.0,0.0,0.0,0.0,0.0,0.0,0.0,0.0,0.0,0.0,0.0,0.0,0.0,0.0,0.0,0.0,0.0,0.0,0.0,0.0,0.0,0.0,0.0,0.0,0.0,0.0,0.0,0.0,0.0,0.0,0.0,0.0,0.0,0.0,0.0,0.0,0.0,0.0,0.0,0.0,0.0,0.0,0.0,0.0,0.0,0.0,0.0,0.0,0.0,0.0,0.0,0.0,0.0,0.0,0.0,0.0,0.0,0.0,0.0,0.0,0.0,0.0,0.0,0.0,0.0,0.0,0.0,0.0,0.0,0.0,0.0,0.0,0.0,0.0,0.0,0.0,0.0,0.0,0.0,0.0,0.0,0.0,0.0,0.0,0.0,0.0,0.0,0.0,0.0,0.0,0.0,0.0,0.0,0.0,0.0,0.0,0.0,0.0,0.0,0.0,0.0,0.0,0.0,0.0,0.0,0.0,0.0,0.0,0.0,0.0,0.0,0.0,0.0,0.0,0.0,0.0,0.0,0.0,0.0,0.0,0.0,0.0,0.0,0.0,0.0,0.0,0.0,0.0,0.0,0.0,0.0,0.0,0.0,0.0,0.0,0.0,0.0,0.0,0.0,0.0,0.0,0.0,0.0,0.0,0.0,0.0,0.0,0.0,0.0,0.0,0.0,0.0,0.0,0.0,0.0,0.0,0.0,0.0,0.0,0.0,0.0,0.0,0.0,0.0,0.0,0.0,0.0,0.0,0.0,0.0,0.0,0.0,0.0,0.0,0.0,0.0,0.0,0.0,0.0,0.0,0.0,0.0,0.0,0.0,0.0,0.0,0.0,0.0,0.0,0.0,0.0,0.0,0.0,0.0,0.0,0.0,0.0,0.0,0.0,0.0,0.0,0.0,0.0,0.0,0.0,0.0,0.0,0.0,0.0,0.0,0.0,0.0,0.0,0.0,0.0,0.0,0.0,0.0,0.0,0.0,0.0,0.0,0.0,0.0,0.0,0.0,0.0,0.0,0.0,0.0,0.0,0.0,0.0,0.0,0.0,0.0,0.0,0.0,0.0,0.0,0.0,0.0,0.0,0.0,0.0,0.0,0.0,0.0,0.0,0.0,0.0,0.0,0.0,0.0,0.0,0.0,0.0,0.0,0.0,0.0,0.0,0.0,0.0,0.0,0.0,0.0,0.0,0.0,0.0,0.0,0.0,0.0,0.0,0.0,0.0,0.0,0.0,0.0,0.0,0.0,0.0,0.0,0.0,0.0,0.0,0.0,0.0,0.0,0.0,0.0,0.0,0.0,0.0,0.0,0.0,0.0,0.0,0.0,0.0,0.0,0.0,0.0,0.0,0.0,0.0,0.0,0.0,0.0,0.0,0.0,0.0,0.0,0.0,0.0,0.0,0.0,0.0,0.0,0.0,0.0,0.0,0.0,0.0,0.0,0.0,0.0,0.0,0.0,0.0,0.0,0.0,0.0,0.0,0.0,0.0,0.0,0.0,0.0,0.0,0.0,0.0,0.0,0.0,0.0,0.0,0.0,0.0,0.0,0.0,0.0,0.0,-2.8694,0.0,0.0,0.0,0.0,0.0,0.0,0.0,0.0,0.0,0.0,0.0,0.0,0.0,0.0,0.0,0.0,0.0,0.0,0.0,0.0,0.0,0.0,0.0,0.0,0.0,0.0,0.0,0.0,0.0,0.0,0.0,0.0,0.0,0.0,0.0,0.0,0.0,0.0,0.0,0.0,0.0,0.0,0.0,0.0,0.0,0.0,0.0,0.0,0.0,0.0,0.0,0.0,0.0,0.0,0.0,0.0,0.0,0.0,0.0,0.0,0.0,0.0,0.0,0.0,0.0,0.0,0.0,0.0,0.0,0.0,0.0,0.0,0.0,0.0,0.0,0.0,0.0,0.0,0.0,0.0,0.0,0.0,0.0,0.0,0.0,0.0,0.0,0.0,0.0,0.0,0.0,0.0,0.0,0.0,0.0,0.0,0.0,0.0,0.0,0.0,0.0,0.0,0.0,0.0,0.0,0.0,0.0,0.0,0.0,0.0,-3.0658,-3.0658,-3.0338,-3.0096,-2.9845,0.0,0.0,0.0,0.0,0.0,0.0,0.0,0.0,0.0,0.0,0.0,0.0,0.0,0.0,0.0,0.0,0.0,0.0,0.0,0.0,0.0,0.0,0.0,0.0,0.0,0.0,0.0,0.0,0.0,0.0,0.0,0.0,0.0,0.0,0.0,0.0,0.0,0.0,0.0,0.0,0.0,0.0,0.0,0.0,0.0,0.0,0.0,0.0,0.0,0.0,0.0,0.0,0.0,0.0,0.0,0.0,0.0,0.0,0.0,0.0,0.0,0.0,0.0,0.0,0.0,0.0,0.0,0.0,0.0,0.0,0.0,0.0,0.0,0.0,0.0,0.0,0.0,0.0,0.0,0.0,0.0,0.0,0.0,0.0,0.0,0.0,0.0,0.0,0.0,0.0,0.0,0.0,0.0,0.0,0.0,0.0,0.0,0.0,0.0,0.0,0.0,0.0,0.0,0.0,0.0,0.0,0.0,0.0,0.0,0.0,0.0,0.0,-3.1506,-3.1249,-3.0787,0.0,0.0,0.0,0.0,0.0,0.0,0.0,0.0,0.0,0.0,0.0,0.0,0.0,0.0,0.0,0.0,0.0,0.0,0.0,0.0,0.0,0.0,0.0,0.0,0.0,0.0,0.0,0.0,0.0,0.0,0.0,0.0,0.0,0.0,0.0,0.0,0.0,0.0,0.0,0.0,0.0,0.0,0.0,0.0,0.0,0.0,0.0,0.0,0.0,0.0,0.0,0.0,0.0,0.0,0.0,0.0,0.0,0.0,0.0,0.0,0.0,0.0,0.0,0.0,0.0,0.0,0.0,0.0,0.0,0.0,0.0,0.0,0.0,0.0,0.0,0.0,0.0,0.0,0.0,0.0,0.0,0.0,0.0,0.0,0.0,0.0,0.0,0.0,0.0,0.0,0.0,0.0,0.0,0.0,0.0,0.0,0.0,0.0,0.0,0.0,0.0,0.0,0.0,0.0,0.0,0.0,0.0,0.0,0.0,0.0,-3.2139,-3.2139,-3.2454,0.0,-3.0836,0.0,0.0,0.0,0.0,0.0,0.0,0.0,0.0,0.0,0.0,0.0,0.0,0.0,0.0,0.0,0.0,0.0,0.0,0.0,0.0,0.0,0.0,0.0,0.0,0.0,0.0,0.0,0.0,0.0,0.0,0.0,0.0,0.0,0.0,0.0,0.0,0.0,0.0,0.0,0.0,0.0,0.0,0.0,0.0,0.0,0.0,0.0,0.0,0.0,0.0,0.0,0.0,0.0,0.0,0.0,0.0,0.0,0.0,0.0,0.0,0.0,0.0,0.0,0.0,0.0,0.0,0.0,0.0,0.0,0.0,0.0,0.0,0.0,0.0,0.0,0.0,0.0,0.0,0.0,0.0,0.0,0.0,0.0,0.0,0.0,0.0,0.0,0.0,0.0,0.0,0.0,0.0,0.0,0.0,0.0,0.0,0.0,0.0,0.0,0.0,0.0,0.0,0.0,0.0,0.0,0.0,0.0,0.0,0.0,0.0,-3.4022,-3.3696,-3.3533,-3.2871,0.0,0.0,0.0,0.0,0.0,0.0,0.0,0.0,0.0,0.0,0.0,0.0,0.0,0.0,0.0,0.0,0.0,0.0,0.0,0.0,0.0,0.0,0.0,0.0,0.0,0.0,0.0,0.0,0.0,0.0,0.0,0.0,0.0,0.0,0.0,0.0,0.0,0.0,0.0,0.0,0.0,0.0,0.0,0.0,0.0,0.0,0.0,0.0,0.0,0.0,0.0,0.0,0.0,0.0,0.0,0.0,0.0,0.0,0.0,0.0,0.0,0.0,0.0,0.0,0.0,0.0,0.0,0.0,0.0,0.0,0.0,0.0,0.0,0.0,0.0,0.0,0.0,0.0,0.0,0.0,0.0,0.0,0.0,0.0,0.0,0.0,0.0,0.0,0.0,0.0,0.0,0.0,0.0,0.0,0.0,0.0,0.0,0.0,0.0,0.0,0.0,0.0,0.0,0.0,0.0,0.0,0.0,0.0,0.0,0.0,-3.5203,-3.5655,-3.5378,-3.4575,-3.3596,-3.2491,0.0,0.0,0.0,0.0,0.0,0.0,0.0,0.0,0.0,0.0,0.0,0.0,0.0,0.0,0.0,0.0,0.0,0.0,0.0,0.0,0.0,0.0,0.0,0.0,0.0,0.0,0.0,0.0,0.0,0.0,0.0,0.0,0.0,0.0,0.0,0.0,0.0,0.0,0.0,0.0,0.0,0.0,0.0,0.0,0.0,0.0,0.0,0.0,0.0,0.0,0.0,0.0,0.0,0.0,0.0,0.0,0.0,0.0,0.0,0.0,0.0,0.0,0.0,0.0,0.0,0.0,0.0,0.0,0.0,0.0,0.0,0.0,0.0,0.0,0.0,0.0,0.0,0.0,0.0,0.0,0.0,0.0,0.0,0.0,0.0,0.0,0.0,0.0,0.0,0.0,0.0,0.0,0.0,0.0,0.0,0.0,0.0,0.0,0.0,0.0,0.0,0.0,0.0,0.0,0.0,0.0,0.0,0.0,-3.468,-3.578,-3.6606,-3.701,-3.5529,-3.4173,0.0,0.0,0.0,0.0,0.0,0.0,0.0,0.0,0.0,0.0,0.0,0.0,0.0,0.0,0.0,0.0,0.0,0.0,0.0,0.0,0.0,0.0,0.0,0.0,0.0,0.0,0.0,0.0,0.0,0.0,0.0,0.0,0.0,0.0,0.0,0.0,0.0,0.0,0.0,0.0,0.0,0.0,0.0,0.0,0.0,0.0,0.0,0.0,0.0,0.0,0.0,0.0,0.0,0.0,0.0,0.0,0.0,0.0,0.0,0.0,0.0,0.0,0.0,0.0,0.0,0.0,0.0,0.0,0.0,0.0,0.0,0.0,0.0,0.0,0.0,0.0,0.0,0.0,0.0,0.0,0.0,0.0,0.0,0.0,0.0,0.0,0.0,0.0,0.0,0.0,0.0,0.0,0.0,0.0,0.0,0.0,0.0,0.0,0.0,0.0,0.0,0.0,0.0,0.0,0.0,0.0,0.0,0.0,0.0,-3.5877,-3.6835,-3.7513,-3.7638,-3.606,-3.4575,0.0,0.0,0.0,0.0,0.0,0.0,0.0,0.0,0.0,0.0,0.0,0.0,0.0,0.0,0.0,0.0,0.0,0.0,0.0,0.0,0.0,0.0,0.0,0.0,0.0,0.0,0.0,0.0,0.0,0.0,0.0,0.0,0.0,0.0,0.0,0.0,0.0,0.0,0.0,0.0,0.0,0.0,0.0,0.0,0.0,0.0,0.0,0.0,0.0,0.0,0.0,0.0,0.0,0.0,0.0,0.0,0.0,0.0,0.0,0.0,0.0,0.0,0.0,0.0,0.0,0.0,0.0,0.0,0.0,0.0,0.0,0.0,0.0,0.0,0.0,0.0,0.0,0.0,0.0,0.0,0.0,0.0,0.0,0.0,0.0,0.0,0.0,0.0,0.0,0.0,0.0,0.0,0.0,0.0,0.0,0.0,0.0,0.0,0.0,0.0,0.0,0.0,0.0,0.0,0.0,0.0,0.0,0.0,0.0,-3.6958,0.0,-3.809,-3.8216,-3.6684,-3.5102,0.0,0.0,0.0,0.0,0.0,0.0,0.0,0.0,0.0,0.0,0.0,0.0,0.0,0.0,0.0,0.0,0.0,0.0,0.0,0.0,0.0,0.0,0.0,0.0,0.0,0.0,0.0,0.0,0.0,0.0,0.0,0.0,0.0,0.0,0.0,0.0,0.0,0.0,0.0,0.0,0.0,0.0,0.0,0.0,0.0,0.0,0.0,0.0,0.0,0.0,0.0,0.0,0.0,0.0,0.0,0.0,0.0,0.0,0.0,0.0,0.0,0.0,0.0,0.0,0.0,0.0,0.0,0.0,0.0,0.0,0.0,0.0,0.0,0.0,0.0,0.0,0.0,0.0,0.0,0.0,0.0,0.0,0.0,0.0,0.0,0.0,0.0,0.0,0.0,0.0,0.0,0.0,0.0,0.0,0.0,0.0,0.0,0.0,0.0,0.0,0.0,0.0,0.0,0.0,0.0,0.0,0.0,0.0,-3.6935,-3.7939,-3.804,-3.8366,-3.8869,-3.731,-3.5902,0.0,0.0,0.0,0.0,0.0,0.0,0.0,0.0,0.0,0.0,0.0,0.0,0.0,0.0,0.0,0.0,0.0,0.0,0.0,0.0,0.0,0.0,0.0,0.0,0.0,0.0,0.0,0.0,0.0,0.0,0.0,0.0,0.0,0.0,0.0,0.0,0.0,0.0,0.0,0.0,0.0,0.0,0.0,0.0,0.0,0.0,0.0,0.0,0.0,0.0,0.0,0.0,0.0,0.0,0.0,0.0,0.0,0.0,0.0,0.0,0.0,0.0,0.0,0.0,0.0,0.0,0.0,0.0,0.0,0.0,0.0,0.0,0.0,0.0,0.0,0.0,0.0,0.0,0.0,0.0,0.0,0.0,0.0,0.0,0.0,0.0,0.0,0.0,0.0,0.0,0.0,0.0,0.0,0.0,0.0,0.0,0.0,0.0,0.0,0.0,0.0,0.0,0.0,0.0,0.0,0.0,0.0,0.0,0.0,-3.8617,-3.9346,-3.9647,-3.9396,-3.8191,-3.6634,0.0,0.0,0.0,0.0,0.0,0.0,0.0,0.0,0.0,0.0,0.0,0.0,0.0,0.0,0.0,0.0,0.0,0.0,0.0,0.0,0.0,0.0,0.0,0.0,0.0,0.0,0.0,0.0,0.0,0.0,0.0,0.0,0.0,0.0,0.0,0.0,0.0,0.0,0.0,0.0,0.0,0.0,0.0,0.0,0.0,0.0,0.0,0.0,0.0,0.0,0.0,0.0,0.0,0.0,0.0,0.0,0.0,0.0,0.0,0.0,0.0,0.0,0.0,0.0,0.0,0.0,0.0,0.0,0.0,0.0,0.0,0.0,0.0,0.0,0.0,0.0,0.0,0.0,0.0,0.0,0.0,0.0,0.0,0.0,0.0,0.0,0.0,0.0,0.0,0.0,0.0,0.0,0.0,0.0,0.0,0.0,0.0,0.0,0.0,0.0,0.0,0.0,0.0,0.0,0.0,0.0,0.0,0.0,0.0,-4.04,-4.0877,-4.0978,-4.0626,-3.9521,-3.8015,-3.6031,0.0,0.0,0.0,0.0,0.0,0.0,0.0,0.0,0.0,0.0,0.0,0.0,0.0,0.0,0.0,0.0,0.0,0.0,0.0,0.0,0.0,0.0,0.0,0.0,0.0,0.0,0.0,0.0,0.0,0.0,0.0,0.0,0.0,0.0,0.0,0.0,0.0,0.0,0.0,0.0,0.0,0.0,0.0,0.0,0.0,0.0,0.0,0.0,0.0,0.0,0.0,0.0,0.0,0.0,0.0,0.0,0.0,0.0,0.0,0.0,0.0,0.0,0.0,0.0,0.0,0.0,0.0,0.0,0.0,0.0,0.0,0.0,0.0,0.0,0.0,0.0,0.0,0.0,0.0,0.0,0.0,0.0,0.0,0.0,0.0,0.0,0.0,0.0,0.0,0.0,0.0,0.0,0.0,0.0,0.0,0.0,0.0,0.0,0.0,0.0,0.0,0.0,0.0,0.0,0.0,0.0,0.0,0.0,-4.3087,-4.2791,-4.2564,-4.2389,-4.1254,-3.9873,0.0,0.0,0.0,0.0,0.0,0.0,0.0,0.0,0.0,0.0,0.0,0.0,0.0,0.0,0.0,0.0,0.0,0.0,0.0,0.0,0.0,0.0,0.0,0.0,0.0,0.0,0.0,0.0,0.0,0.0,0.0,0.0,0.0,0.0,0.0,0.0,0.0,0.0,0.0,0.0,0.0,0.0,0.0,0.0,0.0,0.0,0.0,0.0,0.0,0.0,0.0,0.0,0.0,0.0,0.0,0.0,0.0,0.0,0.0,0.0,0.0,0.0,0.0,0.0,0.0,0.0,0.0,0.0,0.0,0.0,0.0,0.0,0.0,0.0,0.0,0.0,0.0,0.0,0.0,0.0,0.0,0.0,0.0,0.0,0.0,0.0,0.0,0.0,0.0,0.0,0.0,0.0,0.0,0.0,0.0,0.0,0.0,0.0,0.0,0.0,0.0,0.0,0.0,0.0,0.0,0.0,0.0,0.0,0.0,-4.4794,-4.6276,-4.6336,-4.4669,-4.3137,-4.1555,0.0,0.0,0.0,0.0,0.0,0.0,0.0,0.0,0.0,0.0,0.0,0.0,0.0,0.0,0.0,0.0,0.0,0.0,0.0,0.0,0.0,0.0,0.0,0.0,0.0,0.0,0.0,0.0,0.0,0.0,0.0,0.0,0.0,0.0,0.0,0.0,0.0,0.0,0.0,0.0,0.0,0.0,0.0,0.0,0.0,0.0,0.0,0.0,0.0,0.0,0.0,0.0,0.0,0.0,0.0,0.0,0.0,0.0,0.0,0.0,0.0,0.0,0.0,0.0,0.0,0.0,0.0,0.0,0.0,0.0,0.0,0.0,0.0,0.0,0.0,0.0,0.0,0.0,0.0,0.0,0.0,0.0,0.0,0.0,0.0,0.0,0.0,0.0,0.0,0.0,0.0,0.0,0.0,0.0,0.0,0.0,0.0,0.0,0.0,0.0,0.0,0.0,0.0,0.0,0.0,0.0,0.0,0.0,-4.4493,-4.6828,-4.8812,-4.9439,-4.8636,-4.61,-4.3714,0.0,0.0,0.0,0.0,0.0,0.0,0.0,0.0,0.0,0.0,0.0,0.0,0.0,0.0,0.0,0.0,0.0,0.0,0.0,0.0,0.0,0.0,0.0,0.0,0.0,0.0,0.0,0.0,0.0,0.0,0.0,0.0,0.0,0.0,0.0,0.0,0.0,0.0,0.0,0.0,0.0,0.0,0.0,0.0,0.0,0.0,0.0,0.0,0.0,0.0,0.0,0.0,0.0,0.0,0.0,0.0,0.0,0.0,0.0,0.0,0.0,0.0,0.0,0.0,0.0,0.0,0.0,0.0,0.0,0.0,0.0,0.0,0.0,0.0,0.0,0.0,0.0,0.0,0.0,0.0,0.0,0.0,0.0,0.0,0.0,0.0,0.0,0.0,0.0,0.0,0.0,0.0,0.0,0.0,0.0,0.0,0.0,0.0,0.0,0.0,0.0,0.0,0.0,0.0,0.0,0.0,0.0,0.0,-4.5648,-4.895,-5.0695,-5.2101,-5.2929,-4.9389,-4.615,0.0,0.0,0.0,0.0,0.0,0.0,0.0,0.0,0.0,0.0,0.0,0.0,0.0,0.0,0.0,0.0,0.0,0.0,0.0,0.0,0.0,0.0,0.0,0.0,0.0,0.0,0.0,0.0,0.0,0.0,0.0,0.0,0.0,0.0,0.0,0.0,0.0,0.0,0.0,0.0,0.0,0.0,0.0,0.0,0.0,0.0,0.0,0.0,0.0,0.0,0.0,0.0,0.0,0.0,0.0,0.0,0.0,0.0,0.0,0.0,0.0,0.0,0.0,0.0,0.0,0.0,0.0,0.0,0.0,0.0,0.0,0.0,0.0,0.0,0.0,0.0,0.0,0.0,0.0,0.0,0.0,0.0,0.0,0.0,0.0,0.0,0.0,0.0,0.0,0.0,0.0,0.0,0.0,0.0,0.0,0.0,0.0,0.0,0.0,0.0,0.0,0.0,0.0,0.0,0.0,0.0,0.0,0.0,-4.7179,-5.0017,-5.2553,-5.3984,-5.4185,-5.087,-4.8184,0.0,0.0,0.0,0.0,0.0,0.0,0.0,0.0,0.0,0.0,0.0,0.0,0.0,0.0,0.0,0.0,0.0,0.0,0.0,0.0,0.0,0.0,0.0,0.0,0.0,0.0,0.0,0.0,0.0,0.0,0.0,0.0,0.0,0.0,0.0,0.0,0.0,0.0,0.0,0.0,0.0,0.0,0.0,0.0,0.0,0.0,0.0,0.0,-4.4676,0.0,0.0,0.0,0.0,0.0,0.0,0.0,0.0,0.0,0.0,0.0,0.0,0.0,0.0,0.0,0.0,0.0,0.0,0.0,0.0,0.0,0.0,0.0,0.0,0.0,0.0,0.0,0.0,0.0,0.0,0.0,0.0,0.0,0.0,0.0,0.0,0.0,0.0,0.0,0.0,0.0,0.0,0.0,0.0,0.0,0.0,0.0,0.0,0.0,0.0,0.0,0.0,0.0,0.0,0.0,0.0,0.0,0.0,0.0,-4.8812,-5.1548,-5.4059,-5.5465,-5.5616,-5.298,-5.0268,0.0,0.0,0.0,0.0,0.0,0.0,0.0,0.0,0.0,0.0,0.0,0.0,0.0,0.0,0.0,0.0,0.0,0.0,0.0,0.0,0.0,0.0,0.0,0.0,0.0,0.0,0.0,0.0,0.0,0.0,0.0,0.0,0.0,0.0,0.0,0.0,0.0,0.0,0.0,0.0,0.0,0.0,0.0,0.0,0.0,0.0,0.0,0.0,0.0,0.0,0.0,0.0,0.0,0.0,0.0,0.0,0.0,0.0,0.0,0.0,0.0,0.0,0.0,0.0,0.0,0.0,0.0,0.0,0.0,0.0,0.0,0.0,0.0,0.0,0.0,0.0,0.0,0.0,0.0,0.0,0.0,0.0,0.0,0.0,0.0,0.0,0.0,0.0,0.0,0.0,0.0,0.0,0.0,0.0,0.0,0.0,0.0,0.0,0.0,0.0,0.0,0.0,0.0,0.0,0.0,0.0,0.0,-4.7255,-5.0293,-5.3105,-5.5239,-5.657,-5.6972,-5.4963,-5.2051,-4.8284,0.0,0.0,0.0,0.0,0.0,0.0,0.0,0.0,0.0,0.0,0.0,0.0,0.0,0.0,0.0,0.0,0.0,0.0,0.0,0.0,0.0,0.0,0.0,0.0,0.0,0.0,0.0,0.0,0.0,0.0,0.0,0.0,0.0,0.0,0.0,0.0,0.0,0.0,-3.917,-4.1893,0.0,0.0,0.0,0.0,0.0,0.0,0.0,0.0,-4.5963,0.0,0.0,0.0,0.0,0.0,0.0,0.0,0.0,0.0,0.0,0.0,0.0,0.0,0.0,0.0,0.0,0.0,0.0,0.0,0.0,0.0,0.0,0.0,0.0,0.0,0.0,0.0,0.0,0.0,0.0,0.0,0.0,0.0,0.0,0.0,0.0,0.0,0.0,0.0,0.0,0.0,0.0,0.0,0.0,0.0,0.0,0.0,0.0,0.0,0.0,0.0,0.0,0.0,0.0,0.0,0.0,-4.5196,-4.8008,-5.1021,-5.4235,-5.5993,-5.6947,-5.6923,-5.534,-5.2829,-4.9414,0.0,0.0,0.0,0.0,0.0,0.0,0.0,0.0,0.0,0.0,0.0,0.0,0.0,0.0,0.0,0.0,0.0,0.0,0.0,0.0,0.0,0.0,0.0,0.0,0.0,0.0,0.0,0.0,0.0,0.0,0.0,0.0,0.0,0.0,0.0,0.0,0.0,0.0,0.0,-4.4796,-4.5861,0.0,0.0,0.0,0.0,0.0,0.0,0.0,0.0,-4.716,0.0,0.0,0.0,0.0,0.0,0.0,0.0,0.0,0.0,0.0,0.0,0.0,0.0,0.0,0.0,0.0,0.0,0.0,0.0,0.0,0.0,0.0,0.0,0.0,0.0,0.0,0.0,0.0,0.0,0.0,0.0,0.0,0.0,0.0,0.0,0.0,0.0,0.0,0.0,0.0,0.0,0.0,0.0,0.0,0.0,0.0,0.0,0.0,0.0,0.0,0.0,0.0,0.0,0.0,0.0,-4.5949,-4.8937,-5.195,-5.4913,-5.662,-5.7349,-5.6948,-5.544,-5.2854,0.0,0.0,0.0,0.0,0.0,0.0,0.0,0.0,0.0,0.0,0.0,0.0,0.0,0.0,0.0,0.0,0.0,0.0,0.0,0.0,0.0,0.0,0.0,0.0,0.0,0.0,0.0,0.0,0.0,0.0,0.0,0.0,0.0,0.0,0.0,0.0,0.0,0.0,0.0,0.0,-4.6262,-4.7459,-4.7818,0.0,0.0,0.0,0.0,0.0,0.0,-4.7459,-4.8207,0.0,0.0,0.0,0.0,0.0,0.0,0.0,0.0,0.0,0.0,0.0,0.0,0.0,0.0,0.0,0.0,0.0,0.0,0.0,0.0,0.0,0.0,0.0,0.0,0.0,0.0,0.0,0.0,0.0,0.0,0.0,0.0,0.0,0.0,0.0,0.0,0.0,0.0,0.0,0.0,0.0,0.0,0.0,0.0,0.0,0.0,0.0,0.0,0.0,0.0,0.0,0.0,0.0,0.0,0.0,-4.6502,-4.9766,-5.2779,-5.5465,-5.6972,-5.7499,-5.6948,-5.5315,-5.2628,0.0,0.0,0.0,0.0,0.0,0.0,0.0,0.0,0.0,0.0,0.0,0.0,0.0,0.0,0.0,0.0,0.0,0.0,0.0,0.0,0.0,0.0,0.0,0.0,0.0,0.0,0.0,0.0,0.0,0.0,0.0,0.0,0.0,0.0,0.0,0.0,0.0,0.0,0.0,0.0,0.0,-4.8775,-4.9553,-4.9105,0.0,0.0,0.0,0.0,-4.7698,-4.8686,0.0,0.0,0.0,0.0,0.0,0.0,0.0,0.0,0.0,0.0,0.0,0.0,0.0,0.0,0.0,0.0,0.0,0.0,0.0,0.0,0.0,0.0,0.0,0.0,0.0,0.0,0.0,0.0,0.0,0.0,0.0,0.0,0.0,0.0,0.0,0.0,0.0,0.0,0.0,0.0,0.0,0.0,0.0,0.0,0.0,0.0,0.0,0.0,0.0,0.0,0.0,0.0,0.0,0.0,0.0,0.0,-4.6993,-5.0318,-5.3331,-5.5993,-5.6771,-5.7097,-5.6997,-5.4938,-5.2226,0.0,0.0,0.0,0.0,0.0,0.0,0.0,0.0,0.0,0.0,0.0,0.0,0.0,0.0,0.0,0.0,0.0,0.0,0.0,0.0,0.0,0.0,0.0,0.0,0.0,0.0,0.0,0.0,0.0,0.0,0.0,0.0,0.0,0.0,0.0,0.0,0.0,0.0,0.0,0.0,0.0,-4.9659,-5.081,-5.0375,-4.9793,0.0,0.0,-4.909,-4.909,-4.9643,0.0,0.0,0.0,0.0,0.0,0.0,0.0,0.0,0.0,0.0,0.0,0.0,0.0,0.0,0.0,0.0,0.0,0.0,0.0,0.0,0.0,0.0,0.0,0.0,0.0,0.0,0.0,0.0,0.0,0.0,0.0,0.0,0.0,0.0,0.0,0.0,0.0,0.0,0.0,0.0,0.0,0.0,0.0,0.0,0.0,0.0,0.0,0.0,0.0,0.0,0.0,0.0,0.0,0.0,0.0,-4.5045,-4.7581,-5.0569,-5.3432,-5.6118,-5.6746,-5.6971,-5.6864,-5.4996,-5.2338,0.0,0.0,0.0,0.0,0.0,0.0,0.0,0.0,0.0,0.0,0.0,0.0,0.0,0.0,0.0,0.0,0.0,0.0,0.0,0.0,0.0,0.0,0.0,0.0,0.0,0.0,0.0,0.0,0.0,0.0,0.0,0.0,0.0,0.0,0.0,0.0,0.0,0.0,0.0,0.0,0.0,0.0,-5.1588,-5.1858,0.0,0.0,0.0,-5.093,-5.093,0.0,0.0,0.0,0.0,0.0,0.0,0.0,0.0,0.0,0.0,0.0,0.0,0.0,0.0,0.0,0.0,0.0,0.0,0.0,0.0,0.0,0.0,0.0,0.0,0.0,0.0,0.0,0.0,0.0,0.0,0.0,0.0,0.0,0.0,0.0,0.0,0.0,0.0,0.0,0.0,0.0,0.0,0.0,0.0,0.0,0.0,0.0,0.0,0.0,0.0,0.0,0.0,0.0,0.0,0.0,0.0,0.0,-4.7883,-5.082,-5.3507,-5.5917,-5.6545,-5.6717,-5.6573,-5.4949,0.0,0.0,0.0,0.0,0.0,0.0,0.0,0.0,0.0,0.0,0.0,0.0,0.0,0.0,0.0,0.0,0.0,0.0,0.0,0.0,0.0,0.0,0.0,0.0,0.0,0.0,0.0,-3.5878,0.0,0.0,0.0,0.0,0.0,0.0,0.0,0.0,0.0,0.0,0.0,0.0,0.0,0.0,-5.0661,-5.2456,-5.3264,-5.3503,0.0,0.0,-5.2905,-5.2725,-5.2546,-5.2187,0.0,0.0,0.0,0.0,0.0,0.0,0.0,0.0,0.0,0.0,0.0,0.0,0.0,0.0,0.0,0.0,0.0,0.0,0.0,0.0,0.0,0.0,0.0,0.0,0.0,0.0,0.0,0.0,0.0,0.0,0.0,0.0,0.0,0.0,0.0,0.0,0.0,0.0,0.0,0.0,0.0,0.0,0.0,0.0,0.0,0.0,0.0,0.0,0.0,0.0,0.0,0.0,0.0,0.0,0.0,-4.7933,-5.1172,-5.3708,-5.539,-5.5993,-5.6138,-5.5964,-5.4643,-5.2368,0.0,0.0,0.0,0.0,0.0,0.0,0.0,0.0,0.0,0.0,0.0,0.0,0.0,0.0,0.0,0.0,0.0,0.0,0.0,0.0,0.0,0.0,0.0,0.0,0.0,0.0,0.0,0.0,0.0,0.0,0.0,0.0,0.0,0.0,0.0,0.0,0.0,0.0,0.0,0.0,0.0,-5.0481,-5.3653,-5.464,-5.5029,0.0,0.0,-5.479,-5.4162,-5.3503,-5.2695,-5.1409,0.0,0.0,0.0,0.0,0.0,0.0,0.0,0.0,0.0,0.0,0.0,0.0,0.0,0.0,0.0,0.0,0.0,0.0,0.0,0.0,0.0,0.0,0.0,0.0,0.0,0.0,0.0,0.0,0.0,0.0,0.0,0.0,0.0,0.0,0.0,0.0,0.0,0.0,0.0,0.0,0.0,0.0,0.0,0.0,0.0,0.0,0.0,0.0,0.0,0.0,0.0,0.0,0.0,-4.5698,-4.7908,-5.1222,-5.3733,-5.5315,-5.616,-5.6594,-5.6605,-5.528,-5.3231,0.0,0.0,0.0,0.0,0.0,0.0,0.0,0.0,0.0,0.0,0.0,0.0,0.0,0.0,0.0,0.0,0.0,0.0,0.0,0.0,0.0,0.0,0.0,0.0,0.0,0.0,0.0,0.0,-3.8751,-3.914,-3.9343,0.0,0.0,0.0,0.0,0.0,0.0,0.0,0.0,0.0,0.0,-5.075,-5.3234,-5.4491,0.0,0.0,-5.5209,-5.497,-5.4311,-5.3623,-5.2725,-5.1439,-5.0122,0.0,0.0,0.0,0.0,0.0,0.0,0.0,0.0,0.0,0.0,0.0,0.0,0.0,0.0,0.0,0.0,0.0,0.0,0.0,0.0,0.0,0.0,0.0,0.0,0.0,0.0,0.0,0.0,0.0,0.0,0.0,0.0,0.0,0.0,0.0,0.0,0.0,0.0,0.0,0.0,0.0,0.0,0.0,0.0,0.0,0.0,0.0,0.0,0.0,0.0,0.0,0.0,-4.5698,-4.7908,-5.1222,-5.3632,-5.5114,-5.6204,-5.6806,-5.677,-5.5815,-5.4149,0.0,0.0,0.0,0.0,0.0,0.0,0.0,0.0,0.0,0.0,0.0,0.0,0.0,0.0,0.0,0.0,0.0,0.0,0.0,0.0,0.0,0.0,0.0,0.0,0.0,0.0,0.0,0.0,-3.926,-3.9403,-3.9403,0.0,0.0,0.0,0.0,0.0,0.0,0.0,0.0,0.0,0.0,-5.0973,-5.3174,-5.464,-5.5418,-5.5239,-5.5209,-5.482,-5.3773,-5.3204,-5.2456,-5.1139,0.0,0.0,0.0,0.0,0.0,0.0,0.0,0.0,0.0,0.0,0.0,0.0,0.0,0.0,0.0,0.0,0.0,0.0,0.0,0.0,0.0,0.0,0.0,0.0,0.0,0.0,0.0,0.0,0.0,0.0,0.0,0.0,0.0,0.0,0.0,0.0,0.0,0.0,0.0,0.0,0.0,0.0,0.0,0.0,0.0,0.0,0.0,0.0,0.0,0.0,0.0,0.0,0.0,-4.5723,-4.7908,-5.1222,-5.3482,-5.4658,-5.6074,-5.6627,-5.6297,-5.6077,-5.4885,-5.261,0.0,0.0,0.0,0.0,0.0,0.0,0.0,0.0,0.0,0.0,0.0,0.0,0.0,0.0,0.0,0.0,0.0,0.0,0.0,0.0,0.0,0.0,0.0,0.0,0.0,0.0,-4.0307,-3.9798,-3.9403,0.0,0.0,0.0,0.0,0.0,0.0,0.0,0.0,0.0,0.0,-4.897,-5.1152,-5.3773,-5.5269,-5.5807,-5.5239,-5.5149,-5.4491,-5.2576,-5.2247,-5.1768,0.0,0.0,0.0,0.0,0.0,0.0,0.0,0.0,0.0,0.0,0.0,0.0,0.0,0.0,0.0,0.0,0.0,0.0,0.0,0.0,0.0,0.0,0.0,0.0,0.0,0.0,0.0,-4.4744,-4.4895,0.0,0.0,0.0,0.0,0.0,0.0,0.0,0.0,0.0,0.0,0.0,-4.9012,-4.8862,0.0,0.0,0.0,0.0,0.0,0.0,0.0,0.0,0.0,0.0,0.0,0.0,-4.6276,-4.851,-5.1423,-5.3596,-5.4935,-5.6238,-5.704,-5.7278,-5.6739,-5.4998,-5.1794,0.0,0.0,0.0,0.0,0.0,0.0,0.0,0.0,0.0,0.0,0.0,0.0,0.0,0.0,0.0,0.0,0.0,0.0,0.0,0.0,0.0,0.0,0.0,0.0,0.0,-4.0876,0.0,0.0,0.0,0.0,0.0,0.0,0.0,0.0,0.0,0.0,0.0,-4.5693,-4.7698,-4.9239,-5.0823,-5.2636,-5.3623,-5.4102,0.0,0.0,0.0,0.0,0.0,0.0,0.0,0.0,0.0,0.0,0.0,0.0,0.0,0.0,-5.0212,-4.9179,-4.897,-4.891,-4.8656,0.0,0.0,0.0,0.0,0.0,0.0,0.0,0.0,0.0,0.0,0.0,0.0,0.0,0.0,0.0,0.0,-4.6577,0.0,0.0,0.0,0.0,0.0,0.0,0.0,0.0,-4.9665,-5.0218,-5.0745,-5.0745,-5.0745,0.0,-4.9615,-4.8535,0.0,0.0,0.0,0.0,0.0,0.0,0.0,0.0,-4.6733,-4.8976,-5.1832,-5.3985,-5.5471,-5.6737,-5.7598,-5.808,-5.744,-5.5749,-5.3009,-5.1517,-4.9791,0.0,0.0,0.0,0.0,0.0,0.0,0.0,0.0,0.0,0.0,0.0,0.0,0.0,0.0,0.0,0.0,0.0,0.0,0.0,0.0,0.0,0.0,0.0,-4.1444,0.0,0.0,0.0,0.0,0.0,0.0,0.0,0.0,0.0,-4.3618,-4.5035,-4.6561,-4.8087,-4.9613,-5.099,-5.2037,0.0,0.0,0.0,0.0,0.0,0.0,0.0,-5.1768,-5.0405,-5.0375,-5.0511,-5.0331,-5.084,-5.1259,-5.1259,0.0,0.0,-4.9853,-4.9613,-4.9523,-4.9359,-4.9299,-4.9299,-4.9299,-4.9299,-4.9299,0.0,0.0,0.0,0.0,0.0,0.0,0.0,0.0,-4.949,-4.9439,0.0,-4.8385,0.0,0.0,0.0,0.0,0.0,0.0,0.0,0.0,-5.19,-5.2477,-5.3005,-5.303,-5.303,-5.298,-5.19,-5.1373,-5.1147,-4.7531,0.0,0.0,0.0,0.0,0.0,0.0,-4.717,-4.9431,-5.2481,-5.4766,-5.6236,-5.7476,-5.8343,-5.8759,-5.8123,-5.7164,-5.5938,-5.3554,-5.1659,-5.0548,-4.8689,0.0,0.0,0.0,0.0,0.0,0.0,0.0,0.0,0.0,0.0,0.0,0.0,0.0,0.0,0.0,0.0,0.0,0.0,0.0,0.0,-4.241,0.0,0.0,0.0,0.0,0.0,0.0,0.0,0.0,0.0,0.0,-4.4377,-4.6082,-4.7578,-4.8267,0.0,0.0,0.0,0.0,-5.3114,-5.3084,-5.3114,-5.2695,-5.1468,-5.1798,-5.1768,-5.0495,0.0,0.0,-5.2067,-5.2665,-5.3025,-5.3114,-5.2516,-5.1768,-5.0465,-5.0226,-5.0092,-4.9523,-4.9479,-4.9419,-4.9419,-4.9659,-4.9629,-5.3959,0.0,0.0,0.0,0.0,-5.067,-5.1448,-5.2302,-5.2452,-5.2452,-5.2251,-5.1724,0.0,0.0,0.0,0.0,0.0,0.0,-5.1599,-5.3005,-5.3607,-5.4361,-5.5265,-5.5265,-5.5265,-5.5214,-5.416,-5.3632,-5.3507,-5.0921,-4.8636,-4.6728,0.0,0.0,0.0,0.0,-4.9288,-5.1254,-5.3731,-5.581,-5.7335,-5.8173,-5.8882,-5.9408,-5.9243,-5.8541,-5.7207,-5.5604,-5.3731,-5.1606,-5.0046,0.0,0.0,0.0,0.0,0.0,0.0,0.0,0.0,0.0,0.0,0.0,0.0,0.0,0.0,0.0,0.0,0.0,0.0,0.0,-4.303,-4.2641,-4.2321,0.0,0.0,0.0,0.0,0.0,0.0,0.0,0.0,0.0,-4.6352,-4.695,-4.7908,0.0,0.0,-5.075,-5.1409,-5.1678,-5.1768,-5.1768,0.0,0.0,0.0,-5.2067,-5.2067,-5.1678,-5.1409,-5.1439,-5.2097,-5.1947,-5.1947,-5.2396,-5.1947,-5.1349,-5.105,-5.093,-5.087,-5.072,-5.102,-5.1349,-5.1379,-5.1708,-5.2055,-5.9257,-5.5717,-5.421,-5.3557,-5.3582,-5.3934,-5.4561,-5.5365,-5.5365,-5.5239,-5.4988,-5.4461,-5.3632,-5.2553,-5.1975,0.0,0.0,0.0,-5.3808,-5.5365,-5.5717,-5.6543,-5.7723,-5.7748,-5.7697,-5.7592,-5.6805,-5.6247,-5.6019,-5.4018,-5.2371,-5.0952,0.0,0.0,-4.8523,-4.9666,-5.1212,-5.3074,-5.534,-5.7224,-5.871,-5.9494,-6.0125,-6.0613,-6.0238,-5.9605,-5.8679,-5.6944,-5.5006,-5.2919,-5.1309,-4.9624,0.0,0.0,0.0,0.0,0.0,0.0,0.0,0.0,0.0,0.0,0.0,-4.4047,-4.3349,0.0,0.0,0.0,-4.3529,-4.3678,-4.3678,-4.3599,0.0,0.0,0.0,0.0,0.0,0.0,0.0,-4.4456,-4.5532,-4.677,-4.7908,-4.8087,-4.8626,-5.0016,-5.0405,-5.0734,-5.1169,0.0,-5.1319,-5.1588,-5.1947,-5.2187,-5.2187,-5.2187,-5.2097,-5.1858,-5.1708,-5.1738,-5.2097,-5.2067,-5.2127,-5.2396,-5.2037,-5.1618,-5.1618,-5.1409,-5.1229,-5.1229,-5.1528,-5.1798,-5.1828,-5.2306,-5.2785,-6.4128,-6.2847,-5.9257,-5.765,-5.7424,-5.7424,-5.775,-5.8278,-5.8252,-5.7901,-5.7323,-5.6771,-5.5917,-5.4863,-5.4285,0.0,0.0,-5.5415,-5.6545,-5.8152,-5.8177,-5.8959,-6.0405,-6.0431,-6.038,-6.0146,-5.963,-5.9065,-5.85,-5.683,-5.6007,-5.5975,-5.1955,-5.0066,-5.0341,-5.1549,-5.3102,-5.5073,-5.7227,-5.8947,-6.0162,-6.108,-6.1774,-6.2116,-6.1136,-6.041,-6.0057,-5.7603,-5.5628,-5.4221,-5.2336,-5.069,-4.9449,0.0,0.0,0.0,0.0,0.0,0.0,0.0,0.0,0.0,0.0,0.0,0.0,0.0,0.0,0.0,-4.4007,0.0,-4.4407,-4.4945,0.0,0.0,0.0,-4.5065,-4.4466,-4.4975,-4.5633,-4.6219,0.0,0.0,0.0,0.0,-4.9583,-5.0196,-5.0794,-5.1229,-5.1229,-5.1229,-5.1439,-5.1977,-5.2157,-5.2187,-5.2187,-5.2187,-5.1977,-5.1409,-5.1708,-5.2067,-5.2187,-5.2516,-5.2965,-5.3025,-5.2576,-5.2097,-5.2097,-5.1558,-5.1229,-5.1229,-5.1289,-5.1349,-5.1409,-5.1917,-5.2396,-6.6614,-6.5886,-6.453,-6.2747,-6.0839,-6.0814,-6.114,-6.1592,-6.1215,-6.0713,-6.0161,-5.9608,-5.873,-5.7675,-5.7148,-5.7198,-5.7725,-5.7876,-5.8756,-6.0199,-6.0224,-6.1069,-6.2406,-6.2406,-6.2561,-6.2737,-6.1773,-6.1226,-6.1018,-5.9087,-5.8401,-5.884,-5.6764,-5.5091,-5.3974,-5.5195,-5.6459,-5.771,-5.9342,-6.0793,-6.1861,-6.2167,-6.2317,-6.2498,-6.125,-6.041,-6.0086,-5.8022,-5.6047,-5.4281,-5.2785,-5.1379,-5.0092,-4.8775,0.0,0.0,0.0,0.0,0.0,0.0,0.0,0.0,0.0,-4.5544,-4.4885,0.0,-4.4825,0.0,-4.4975,-4.5065,-4.5065,-4.5185,0.0,0.0,-4.5185,-4.5244,-4.5065,-4.5663,-4.6142,-4.6279,-4.7189,-4.8177,-4.9209,-4.9703,-5.0242,-5.0853,-5.1063,-5.1229,-5.1229,-5.1229,-5.1259,-5.1468,-5.1887,-5.2187,-5.2157,-5.2187,-5.1947,-5.1319,-5.1302,-5.1618,-5.2097,-5.1887,-5.1828,-5.2276,-5.1887,-5.1498,-5.1468,-5.1319,-5.1229,-5.1259,-5.1618,-5.1977,-5.1977,-5.2486,-5.2935,-6.8572,-6.802,-6.7467,-6.6212,-6.453,-6.3776,-6.35,-6.3525,-6.3224,-6.2797,-6.2245,-6.1441,-6.0713,-6.0136,-5.9608,-5.9533,-5.9809,-5.9965,-6.0652,-6.1697,-6.2116,-6.3025,-6.4404,-6.456,-6.4816,-6.5113,-6.4111,-6.3452,-6.3033,-6.129,-6.0579,-6.0986,-6.0226,-5.9232,-5.8008,-5.8134,-5.8756,-5.9883,-6.1155,-6.2365,-6.3331,-6.2818,-6.2529,-6.2372,-6.1359,-6.0458,-5.9697,-5.7992,-5.6196,-5.4311,-5.3204,-5.1917,-5.0285,-4.9553,-4.8895,0.0,0.0,0.0,0.0,0.0,0.0,0.0,0.0,0.0,0.0,0.0,-4.5274,0.0,-4.5574,0.0,-4.5753,-4.6022,-4.6202,-4.6202,-4.6202,-4.6292,-4.6591,-4.695,-4.7309,-4.7608,-4.8267,-4.8955,-4.9613,-5.0002,-5.0435,-5.1139,-5.1229,-5.1229,-5.1229,-5.1229,-5.1229,-5.1229,-5.1528,-5.1768,-5.1768,-5.1768,-5.1648,-5.1319,-5.1229,-5.1349,-5.1708,-5.1468,-5.1349,-5.1648,-5.1468,-5.1229,-5.1229,-5.1229,-5.1229,-5.1259,-5.1498,-5.1738,-5.1768,-5.2276,-5.2755,-7.0204,-6.9627,-6.9125,-6.8597,-6.7894,-6.6438,-6.5434,-6.4781,-6.4705,-6.4354,-6.3726,-6.2747,-6.232,-6.227,-6.1743,-6.1571,-6.1571,-6.1869,-6.2335,-6.3006,-6.3826,-6.4953,-6.6289,-6.6757,-6.7107,-6.7353,-6.6406,-6.5586,-6.4964,-6.3472,-6.2691,-6.2729,-6.2668,-6.247,-6.1956,-6.0779,-6.0744,-6.194,-6.2796,-6.3693,-6.4426,-6.3298,-6.2493,-6.2064,-6.1407,-6.0446,-5.9039,-5.7752,-5.6166,-5.4192,-5.3503,-5.2336,-5.0435,-5.0226,-4.9687,0.0,-4.8446,0.0,0.0,0.0,0.0,0.0,0.0,0.0,0.0,-4.5783,-4.5783,-4.5813,-4.6352,-4.6668,-4.6711,-4.7219,-4.7549,-4.7549,-4.7549,-4.7788,-4.8327,-4.8416,-4.8626,-4.9269,-4.9389,-4.9613,-5.0076,-5.0255,-5.0554,-5.1109,-5.1229,-5.1229,-5.1229,-5.1229,-5.1229,-5.1229,-5.1229,-5.1289,-5.1289,-5.1259,-5.1199,-5.1139,-5.105,-5.105,-5.093,-5.093,-5.093,-5.096,-5.09,-5.09,-5.096,-5.093,-5.093,-5.087,-5.09,-5.099,-5.1259,-5.1678,-5.2037,-7.1686,-7.0782,-7.0656,-7.0054,-6.91,-6.8798,-6.7819,-6.6463,-6.6011,-6.5258,-6.4329,-6.4103,-6.4002,-6.3952,-6.345,-6.3363,-6.3722,-6.3372,-6.3757,-6.4897,-6.5372,-6.6495,-6.8018,-6.8475,-6.9026,-6.956,-6.8679,-6.7875,-6.7238,-6.5499,-6.4782,-6.4895,-6.3765,-6.352,-6.4066,0.0,0.0,0.0,-6.4531,-6.444,-6.4183,-6.3594,-6.2793,-6.1749,-6.132,0.0,-5.8411,-5.7543,-5.5927,-5.3533,-5.3234,0.0,0.0,0.0,0.0,0.0,0.0,0.0,0.0,0.0,0.0,0.0,-4.891,-4.87,-4.858,-4.855,-4.855,-4.858,-4.8626,-4.876,-4.876,-4.885,-4.894,-4.894,-4.894,-4.9,-4.912,-4.912,-4.9179,-4.9299,-4.9733,-5.0092,-5.0196,-5.0644,-5.1079,-5.1199,-5.1229,-5.1229,-5.1229,-5.1229,-5.1229,-5.1229,-5.1229,-5.1229,-5.1229,-5.1229,-5.105,-5.0554,-5.0375,-5.0242,-4.9823,-4.9703,-4.9719,-4.9673,-4.9643,-4.9719,-4.9673,-4.9689,-4.9703,-4.9643,-4.9643,-4.9942,-5.099,-5.1289,-5.1409,-7.2665,0.0,-7.161,-7.1008,0.0,-6.9953,-6.9225,-6.812,-6.7292,-6.6488,-6.5685,-6.5107,-6.4881,-6.4856,-6.4304,-6.4151,-6.431,-6.4251,-6.4753,-6.5766,-6.6523,-6.7684,-6.9108,-6.9709,-7.0304,-7.0792,-6.9878,-6.8967,-6.8188,-6.6795,-6.5926,-6.549,-6.5159,-6.5041,-6.519,-6.544,-6.5641,-6.5756,-6.5421,-6.5164,-6.502,-6.4159,-6.3145,-6.1893,0.0,0.0,0.0,0.0,0.0,0.0,0.0,0.0,0.0,0.0,0.0,-5.1678,-5.1379,-5.1199,-5.1246,-5.1246,-5.1199,-5.1199,-5.0947,-5.0347,-4.9389,-4.9299,-4.9299,-4.9299,-4.9299,-4.9299,-4.9299,-4.9299,-4.9299,-4.9299,-4.9299,-4.9419,-4.9673,-4.9733,-4.9883,-5.0212,-5.0511,-5.0674,-5.0674,-5.099,-5.1199,-5.1229,-5.1229,-5.1229,-5.1229,-5.1229,-5.1229,-5.1229,-5.1229,-5.1229,-5.1229,-5.1229,-5.099,-5.0375,-5.0196,-4.9972,-4.9419,-4.9299,-4.9299,-4.9299,-4.9299,-4.9299,-4.9299,-4.9299,-4.9299,-4.9299,-4.9299,-4.9479,-5.0152,-5.0242,-5.0361,-7.3494,-7.2841,-7.2389,-7.1836,-7.1184,-7.0757,-7.0179,-6.9501,0.0,0.0,0.0,-6.5986,-6.5534,-6.5409,-6.494,-6.4721,-6.4627,-6.4965,-6.5493,-6.6316,-6.7426,-6.8676,-6.9933,-7.0747,-7.1288,-7.1623,-7.0819,-6.9861,-6.8979,-6.79,-6.6954,-6.6183,-6.6511,-6.6495,-6.6162,-6.6404,-6.6622,-6.6716,-6.603,-6.5766,-6.586,-6.4755,-6.3499,-6.2244,-6.1466,-5.9967,-5.7573,-5.7334,-5.6376,-5.4491,-5.4371,-5.4012,-5.3234,-5.3174,-5.3174,-5.3174,-5.3174,-5.3174,-5.3174,-5.3174,-5.3174,-5.3174,-5.2695,-5.1648,-4.9912,-4.9719,-4.9659,-4.9613,-4.9659,-4.9659,-4.9659,-4.9613,-4.9659,-4.9613,-4.9613,-4.9853,-5.0285,-5.0375,-5.0554,-5.1109,-5.1169,-5.1229,-5.1199,-5.1199,-5.1229,-5.1229,-5.1229,-5.1229,-5.1229,-5.1229,-5.1229,-5.1229,-5.1229,-5.1229,-5.1229,-5.1229,-5.096,-5.0315,-5.0076,-4.9823,-4.9284,-4.906,-4.897,-4.885,-4.894,-4.891,-4.8895,-4.8805,-4.894,-4.897,-4.897,-4.8925,-4.897,-4.8925,-4.9164,-7.4397,-7.3468,-7.3393,-7.2765,-7.1786,-7.1711,-7.1083,-7.0029,-6.8472,-6.7493,-6.6965,-6.6815,-6.6463,-6.5961,-6.5833,-6.5721,-6.5575,-6.5903,-6.6397,0.0,-6.8323,-6.9532,-7.0747,-7.1551,-7.2129,-7.2387,-7.2014,-7.1453,-7.065,-6.938,-6.857,-6.8186,-6.7478,-6.7336,-6.7887,-6.7535,-6.7489,-6.7775,-6.6808,-6.609,-6.5557,-6.4813,-6.3832,-6.2584,-6.1592,-6.0416,-5.889,-5.8291,-5.7064,-5.5179,-5.5059,-5.4491,-5.3294,-5.3234,-5.3174,-5.3174,-5.3174,-5.3174,-5.3174,-5.3174,-5.3174,-5.3174,-5.3084,-5.2665,-5.1887,-5.1259,-5.093,-5.096,-5.096,-5.096,-5.093,-5.093,-5.09,-5.09,-5.093,-5.099,-5.105,-5.105,-5.1033,-5.1199,-5.1229,-5.1229,-5.1229,-5.1229,-5.1229,-5.1229,-5.1229,-5.1229,-5.1229,-5.1229,-5.1229,-5.1229,-5.1229,-5.1229,-5.1229,-5.1229,-5.0883,-5.0285,-4.9793,-4.9344,-4.8686,-4.8177,-4.7848,-4.7638,-4.7758,-4.7698,-4.7668,-4.7578,-4.7698,-4.7728,-4.7758,-4.7698,-4.7728,-4.7728,-4.8027,-7.495,-7.4423,-7.3845,-7.3293,-7.2765,-7.1861,-7.1008,-7.0179,-6.915,-6.8196,-6.7417,-6.7116,-6.6664,-6.6112,-6.6347,-6.6186,-6.5785,-6.6429,-6.7058,-6.7688,-6.8827,-7.0054,-7.1215,-7.1985,-7.2559,-7.2915,-7.2773,-7.2382,-7.1714,-7.0725,-6.9909,-6.9275,-6.8612,-6.8489,-6.8838,-6.8274,-6.8002,-6.7956,-6.7205,-6.6604,-6.6337,-6.5292,-6.4308,-6.3354,-6.2274,-6.0835,-5.9159,-5.883,-5.7902,-5.6286,-5.6226,-5.5927,-5.5359,-5.5299,-5.5299,-5.5299,-5.497,-5.479,-5.479,-5.4461,-5.4281,-5.4251,-5.3922,-5.3623,-5.3324,-5.2665,-5.2276,-5.2276,-5.2276,-5.2127,-5.1798,-5.1738,-5.1588,-5.1229,-5.1229,-5.1229,-5.1229,-5.1229,-5.1229,-5.1229,-5.1229,-5.1229,-5.1229,-5.1229,-5.1229,-5.1229,-5.1229,-5.1229,-5.1229,-5.1229,-5.1229,-5.1229,-5.1229,-5.1229,-5.1229,-5.1229,-5.0883,-5.0285,-5.0002,-4.9523,-4.8925,-4.8297,-4.7908,-4.7818,-4.7578,-4.7339,-4.7309,-4.7309,-4.7309,-4.7309,-4.7309,-4.7309,-4.7309,-4.7309,-4.7668,-7.5352,-7.5151,-7.4171,-7.3644,-7.3268,-7.1736,-7.0857,-7.0405,-6.9727,-6.8848,-6.7819,-6.7342,-6.6851,-6.6308,-6.6711,-6.6609,-6.6243,-6.6959,-6.7615,-6.8099,-6.9204,-7.0396,-7.1507,-7.2345,-7.2915,-7.3228,-7.3298,-7.3076,-7.2618,-7.1933,-7.1092,-7.0127,-6.9696,-6.9604,-6.9625,-6.9065,-6.8601,-6.8196,-6.7537,-6.7148,-6.6969,-6.5712,-6.4784,-6.4186,-6.2839,-6.1373,-5.9877,-5.9488,-5.877,-5.7633,-5.7393,-5.7244,-5.7094,-5.7094,-5.7094,-5.7034,-5.6645,-5.6376,-5.6346,-5.5927,-5.5568,-5.5418,-5.494,-5.461,-5.4401,-5.3952,-5.3473,-5.3234,-5.3114,-5.2935,-5.2516,-5.2426,-5.2217,-5.1708,-5.1498,-5.1468,-5.1439,-5.1319,-5.1229,-5.1229,-5.1229,-5.1229,-5.1229,-5.1229,-5.1229,-5.1229,-5.1229,-5.1229,-5.1229,-5.1229,-5.1229,-5.1229,-5.1229,-5.1229,-5.1229,-5.1229,-5.0973,-5.0465,-5.0255,-5.0002,-4.9494,-4.8955,-4.8446,-4.8267,-4.7878,-4.7549,-4.7369,-4.7309,-4.7309,-4.7309,-4.7309,-4.7309,-4.7309,-4.7309,-4.7459,-7.5678,-7.5176,-7.4573,-7.3745,-7.274,-7.1585,-7.1033,-7.0857,-6.9903,-6.8823,-6.7819,-6.7744,-6.7352,-6.6873,-6.7222,-6.7306,-6.7011,-6.7851,-6.8326,-6.8585,-6.9709,-7.0673,-7.1579,-7.266,-7.3157,-7.3298,-7.3551,-7.3731,-7.3584,-7.2994,-7.2012,-7.0863,-7.0459,-7.0301,-7.0284,-7.0007,-6.9542,-6.8914,-6.8226,-6.7597,-6.6939,-6.5712,-6.4994,-6.4934,-6.3079,-6.2032,-6.1672,-6.0625,-5.9668,-5.8949,-5.8381,-5.7782,-5.7244,-5.7124,-5.7124,-5.7124,-5.7064,-5.7004,-5.7004,-5.6974,-5.6645,-5.6137,-5.6068,-5.5688,-5.5179,-5.5029,-5.4461,-5.3563,-5.3204,-5.3234,-5.3084,-5.3084,-5.3025,-5.2845,-5.2396,-5.2127,-5.2067,-5.1558,-5.1229,-5.1229,-5.1289,-5.1229,-5.1229,-5.1229,-5.1229,-5.1229,-5.1229,-5.1229,-5.1229,-5.1229,-5.1229,-5.1229,-5.1229,-5.1229,-5.1229,-5.1229,-5.1169,-5.105,-5.0584,-5.0255,-5.0062,-4.9613,-4.9015,-4.8716,-4.8297,-4.8027,-4.7549,-4.7309,-4.7339,-4.7309,-4.7309,-4.7309,-4.7309,-4.7309,-4.7399,-7.5728,-7.5176,-7.4649,-7.377,-7.264,-7.156,-7.1083,-7.0958,-6.9822,-6.8852,-6.8234,-6.8141,-6.7619,-6.6882,-6.7789,-6.7863,-6.7256,-6.8493,-6.9032,-6.9013,-7.0082,-7.1069,-7.1942,-7.2802,-7.3298,-7.3551,-7.3901,-7.4248,-7.4268,-7.3801,-7.2819,-7.1629,-7.1344,-7.1082,-7.0694,-7.0226,-6.9662,-6.9004,-6.8315,-6.7657,-6.6969,-6.6071,-6.5413,-6.4964,-6.3857,-6.2839,-6.2151,-6.1553,-6.0954,-6.0356,-6.0027,-5.9578,-5.889,-5.886,-5.868,-5.8321,-5.7902,-5.7513,-5.7124,-5.7094,-5.6974,-5.6735,-5.6705,-5.6436,-5.5837,-5.5777,-5.5359,-5.4581,-5.4371,-5.4221,-5.3862,-5.3803,-5.3623,-5.3264,-5.2935,-5.2785,-5.2755,-5.2546,-5.2247,-5.1887,-5.1798,-5.1648,-5.1319,-5.1229,-5.1229,-5.1229,-5.1229,-5.1229,-5.1229,-5.1229,-5.1229,-5.1229,-5.1229,-5.1229,-5.1229,-5.1229,-5.1229,-5.1169,-5.0973,-5.081,-5.072,-5.0272,-4.9733,-4.9434,-4.9105,-4.8626,-4.8027,-4.7878,-4.7818,-4.7549,-4.7309,-4.7309,-4.7309,-4.7309,-4.7309,-7.5603,-7.5151,-7.4498,-7.3544,-7.2439,-7.1671,-7.1167,-7.0957,-6.9993,-6.918,-6.8733,-6.8665,-6.8185,-6.7561,-6.8221,-6.8258,-6.7984,-6.8862,-6.9411,-6.954,-7.0452,-7.1333,-7.2273,-7.3015,-7.358,-7.3901,-7.4318,-7.4594,-7.4779,-7.421,-7.3313,-7.2295,-7.1966,-7.1547,-7.0919,-7.044,-6.9931,-6.9273,-6.8585,-6.7926,-6.7268,-6.661,-6.5892,-6.4994,-6.4336,-6.3468,-6.2421,-6.2181,-6.1882,-6.1403,-6.1224,-6.0894,-6.0416,-6.0356,-6.0057,-5.9428,-5.877,-5.8171,-5.7663,-5.7633,-5.7573,-5.7393,-5.7363,-5.7094,-5.6585,-5.6487,-5.6226,-5.5777,-5.5568,-5.5179,-5.461,-5.4491,-5.4251,-5.3773,-5.3593,-5.3473,-5.3443,-5.3324,-5.2965,-5.2546,-5.2486,-5.2306,-5.1858,-5.1648,-5.1528,-5.1528,-5.1349,-5.1229,-5.1229,-5.1229,-5.1229,-5.1229,-5.1229,-5.1229,-5.1229,-5.1229,-5.1229,-5.1229,-5.1169,-5.1169,-5.1229,-5.0704,-5.0285,-4.9927,-4.9733,-4.9314,-4.8656,-4.8476,-4.8087,-4.7549,-4.7339,-4.7339,-4.7309,-4.7309,-4.7309,-7.5251,-7.5075,-7.4071,-7.2966,-7.1912,-7.1772,-7.149,-7.0957,-7.0235,-6.9706,-6.9203,-6.9494,-6.926,-6.8633,-6.8385,-6.8541,-6.9313,-6.9086,-6.9411,-7.0184,-7.0747,-7.1551,-7.2631,-7.341,-7.3901,-7.4248,-7.4594,-7.4869,-7.4839,-7.424,-7.3552,-7.2894,-7.2265,-7.1577,-7.1038,-7.0859,-7.053,-6.9871,-6.9273,-6.8585,-6.7989,-6.7268,-6.634,-6.5173,-6.4366,-6.3737,-6.3049,-6.2421,-6.2091,-6.2061,-6.1523,-6.1134,-6.1074,-6.1044,-6.0715,-6.0057,-5.9428,-5.9039,-5.8949,-5.8919,-5.868,-5.8201,-5.8082,-5.7782,-5.7154,-5.7064,-5.7004,-5.6974,-5.6406,-5.5867,-5.5329,-5.5089,-5.5059,-5.494,-5.4491,-5.4192,-5.4162,-5.3683,-5.3234,-5.3144,-5.3084,-5.2965,-5.2995,-5.2546,-5.2217,-5.2067,-5.1648,-5.1349,-5.1439,-5.1349,-5.1379,-5.1379,-5.1319,-5.1182,-5.1229,-5.1229,-5.1229,-5.1229,-5.1229,-5.1229,-5.1229,-5.1139,-5.0734,-5.0465,-5.0285,-4.9942,-4.9344,-4.8745,-4.8177,-4.7728,-4.7519,-4.7459,-4.7339,-4.7309,-4.7309,-7.4824,-7.4096,-7.2966,-7.2451,-7.2302,-7.1576,-7.1138,-7.0822,-7.0488,-7.0032,-6.9716,-7.0149,-7.02,-6.9856,-6.9588,-6.945,-6.9601,-7.0011,-7.0417,-7.0803,-7.1551,-7.2345,-7.2986,-7.3761,-7.4179,-7.4318,-7.4761,-7.4869,-7.4839,-7.4629,-7.418,-7.3552,-7.2864,-7.2206,-7.1577,-7.1128,-7.059,-7.0021,-6.9722,-6.9093,-6.8076,-6.7747,-6.6999,-6.5712,-6.4994,-6.4336,-6.3707,-6.3049,-6.272,-6.272,-6.248,-6.2181,-6.1762,-6.1343,-6.0805,-6.0176,-5.9847,-5.9548,-5.9189,-5.9099,-5.9009,-5.88,-5.874,-5.8441,-5.7902,-5.7723,-5.7573,-5.7154,-5.6944,-5.6615,-5.6316,-5.5688,-5.5209,-5.5149,-5.497,-5.482,-5.482,-5.461,-5.4311,-5.3892,-5.3473,-5.3174,-5.3234,-5.2965,-5.2845,-5.2815,-5.2606,-5.2456,-5.2456,-5.2456,-5.2396,-5.2366,-5.2127,-5.1828,-5.1858,-5.1439,-5.1229,-5.1229,-5.1229,-5.1229,-5.1229,-5.1229,-5.096,-5.09,-5.0734,-5.0435,-4.9853,-4.9314,-4.8686,-4.8177,-4.7938,-4.7638,-4.7399,-4.7369,-4.7339,-7.4142,-7.3206,-7.2401,-7.2151,-7.2181,-7.1653,-7.1179,-7.1004,-7.0953,-7.0641,-7.0471,-7.0985,-7.1121,-7.0894,-7.0869,-7.0689,-7.0341,-7.0752,-7.1069,-7.1507,-7.2273,-7.2915,-7.3551,-7.404,-7.4387,-7.4525,-7.4731,-7.4869,-7.4869,-7.4869,-7.454,-7.3881,-7.3432,-7.2774,-7.1966,-7.1427,-7.0919,-7.038,-7.0081,-6.9423,-6.8405,-6.8076,-6.7478,-6.643,-6.5682,-6.4904,-6.4036,-6.3588,-6.3258,-6.3109,-6.3137,-6.2869,-6.2421,-6.1792,-6.1224,-6.0775,-6.0296,-5.9907,-5.9488,-5.9219,-5.9099,-5.9099,-5.9099,-5.889,-5.8471,-5.8441,-5.8201,-5.7842,-5.7513,-5.7423,-5.7214,-5.6466,-5.5748,-5.5538,-5.5329,-5.5209,-5.5209,-5.5179,-5.494,-5.4581,-5.4192,-5.3892,-5.3803,-5.3623,-5.3533,-5.3503,-5.3354,-5.3174,-5.3174,-5.3174,-5.3174,-5.3144,-5.2785,-5.2546,-5.2516,-5.2247,-5.1588,-5.1439,-5.1319,-5.1289,-5.1229,-5.1229,-5.1229,-5.1229,-5.1079,-5.0764,-5.0375,-4.9912,-4.9344,-4.8745,-4.8297,-4.7997,-4.7728,-4.7459,-4.7399,-7.3225,-7.2691,-7.2631,-7.2222,-7.1846,-7.1978,-7.1818,-7.1458,-7.1583,-7.1657,-7.1606,-7.1906,-7.189,-7.1755,-7.1813,-7.1916,-7.1549,-7.0938,-7.1317,-7.2387,-7.2702,-7.3269,-7.4179,-7.4318,-7.4525,-7.48,-7.4869,-7.4869,-7.4869,-7.4869,-7.4569,-7.4031,-7.3881,-7.3163,-7.1936,-7.1846,-7.1487,-7.0859,-7.032,-6.9692,-6.9004,-6.8405,-6.7747,-6.7029,-6.634,-6.5443,-6.4186,-6.4006,-6.3647,-6.3139,-6.3137,-6.3137,-6.2929,-6.2421,-6.2061,-6.1792,-6.0864,-6.0206,-5.9997,-5.9488,-5.9219,-5.9099,-5.9099,-5.9069,-5.9009,-5.9009,-5.8979,-5.88,-5.8441,-5.8112,-5.8022,-5.7453,-5.6765,-5.6226,-5.5628,-5.5329,-5.5209,-5.5209,-5.5179,-5.5119,-5.4999,-5.5149,-5.5029,-5.4581,-5.4221,-5.4132,-5.3773,-5.3473,-5.3503,-5.3533,-5.3294,-5.3294,-5.3294,-5.3204,-5.3204,-5.3084,-5.2336,-5.1708,-5.1498,-5.1379,-5.1259,-5.1229,-5.1229,-5.1229,-5.1229,-5.099,-5.0704,-5.0272,-4.9972,-4.9434,-4.8925,-4.8416,-4.8057,-4.7758,-4.7459,-7.2775,-7.2555,-7.2186,-7.1988,-7.1952,-7.1731,-7.1577,-7.1693,-7.1958,-7.2179,-7.2389,-7.2604,-7.2588,-7.2431,-7.2367,-7.2364,-7.2345,-7.2043,-7.2172,-7.2673,-7.3381,-7.3901,-7.4248,-7.4594,-7.48,-7.4869,-7.4869,-7.4869,-7.4869,-7.4869,-7.4749,-7.454,-7.4121,-7.3462,-7.2595,-7.2116,-7.1547,-7.0979,-7.0709,-7.032,-6.9692,-6.9034,-6.8345,-6.7687,-6.7029,-6.6251,-6.5413,-6.4485,-6.3707,-6.3196,-6.3137,-6.3137,-6.3019,-6.2899,-6.257,-6.2121,-6.1732,-6.0984,-6.0176,-5.9877,-5.9548,-5.9219,-5.9129,-5.9099,-5.9099,-5.9099,-5.9099,-5.9099,-5.8919,-5.88,-5.868,-5.8201,-5.7393,-5.6286,-5.6038,-5.5688,-5.5329,-5.5209,-5.5209,-5.5209,-5.5209,-5.5209,-5.5179,-5.491,-5.485,-5.485,-5.461,-5.4491,-5.4521,-5.4401,-5.4581,-5.4551,-5.4281,-5.3892,-5.3862,-5.3713,-5.3144,-5.2516,-5.2157,-5.1678,-5.1498,-5.1379,-5.1349,-5.1229,-5.1229,-5.1139,-5.093,-5.072,-5.0421,-5.0182,-4.9763,-4.9134,-4.8476,-4.8117,-4.7938,-7.2588,-7.2496,-7.2258,-7.231,-7.234,-7.2104,-7.2181,-7.2396,-7.2747,-7.3138,-7.3432,-7.3493,-7.3482,-7.3278,-7.2944,-7.2923,-7.3015,-7.3199,-7.3269,-7.331,-7.3901,-7.4387,-7.4525,-7.4731,-7.4869,-7.4869,-7.4869,-7.4869,-7.4869,-7.4869,-7.4869,-7.4779,-7.445,-7.3791,-7.2984,-7.2505,-7.1846,-7.1068,-7.0889,-7.062,-6.9991,-6.9333,-6.8675,-6.7986,-6.7328,-6.667,-6.6011,-6.5173,-6.4336,-6.3558,-6.3228,-6.3137,-6.3137,-6.3107,-6.2899,-6.254,-6.2181,-6.1702,-6.0894,-6.0386,-5.9937,-5.9518,-5.9249,-5.9099,-5.9099,-5.9099,-5.9099,-5.9099,-5.9099,-5.9099,-5.9039,-5.877,-5.7992,-5.7034,-5.6675,-5.6256,-5.5688,-5.5329,-5.5209,-5.5209,-5.5209,-5.5209,-5.5209,-5.5209,-5.5209,-5.5209,-5.5209,-5.5209,-5.5209,-5.5149,-5.5179,-5.5149,-5.485,-5.4581,-5.4551,-5.4281,-5.3892,-5.3414,-5.2965,-5.2366,-5.1887,-5.1768,-5.1708,-5.1349,-5.1229,-5.1229,-5.105,-5.1033,-5.09,-5.0644,-5.0375,-4.9807,-4.9224,-4.8835,-4.8566,-7.2496,-7.2474,-7.2852,-7.2935,-7.2787,-7.3012,-7.3241,-7.3608,-7.3823,-7.4218,-7.4456,-7.4269,-7.427,-7.4328,-7.3676,-7.3524,-7.3849,-7.404,-7.4179,-7.4248,-7.4387,-7.4525,-7.48,-7.4869,-7.4869,-7.4869,-7.4869,-7.4869,-7.4869,-7.4869,-7.4869,-7.4869,-7.4779,-7.424,-7.3253,-7.2954,-7.2235,-7.1218,-7.0949,-7.059,-7.0081,-6.9453,-6.8794,-6.8106,-6.7478,-6.6819,-6.6221,-6.5802,-6.5173,-6.4096,-6.3378,-6.3137,-6.3137,-6.3137,-6.3107,-6.2959,-6.248,-6.2181,-6.1822,-6.1044,-6.0236,-5.9997,-5.9548,-5.9129,-5.9129,-5.9099,-5.9099,-5.9099,-5.9099,-5.9099,-5.9099,-5.9039,-5.871,-5.8201,-5.7423,-5.6765,-5.6226,-5.5628,-5.5359,-5.5239,-5.5209,-5.5209,-5.5209,-5.5209,-5.5209,-5.5209,-5.5209,-5.5209,-5.5209,-5.5209,-5.5209,-5.5119,-5.5059,-5.4999,-5.485,-5.482,-5.4461,-5.4251,-5.3803,-5.3204,-5.2396,-5.2157,-5.1977,-5.1618,-5.1259,-5.1259,-5.1229,-5.1229,-5.1199,-5.1003,-5.0674,-5.0345,-4.9956,-4.9523,-4.9134,-7.2591,-7.2941,-7.2803,-7.2894,-7.3095,-7.3404,-7.3636,-7.3952,-7.4331,-7.4811,-7.511,-7.4699,-7.4533,-7.4584,-7.4038,-7.3908,-7.4139,-7.4248,-7.4456,-7.4731,-7.4731,-7.48,-7.4869,-7.4869,-7.4869,-7.4869,-7.4869,-7.4869,-7.4869,-7.4869,-7.4869,-7.4869,-7.4869,-7.448,-7.3702,-7.3133,-7.2505,-7.1667,-7.1098,-7.0829,-7.059,-7.0021,-6.9393,-6.8734,-6.8046,-6.7388,-6.67,-6.5772,-6.4934,-6.4066,-6.3408,-6.3137,-6.3137,-6.3137,-6.3137,-6.3107,-6.2929,-6.257,-6.2151,-6.1762,-6.1104,-6.0206,-5.9937,-5.9638,-5.9129,-5.9099,-5.9099,-5.9099,-5.9099,-5.9099,-5.9099,-5.9099,-5.8979,-5.877,-5.7872,-5.6974,-5.6457,-5.6017,-5.5748,-5.5299,-5.5269,-5.5299,-5.5269,-5.5239,-5.5239,-5.5209,-5.5209,-5.5209,-5.5209,-5.5209,-5.5209,-5.5209,-5.5149,-5.5179,-5.5149,-5.5149,-5.5089,-5.497,-5.461,-5.4162,-5.3264,-5.2516,-5.2306,-5.2007,-5.1546,-5.1396,-5.1259,-5.1229,-5.1229,-5.1229,-5.1079,-5.0734,-5.0345,-4.9927,-4.9673,-7.2758,-7.2961,-7.3219,-7.3367,-7.3676,-7.3937,-7.4468,-7.4999,-7.5269,-7.5606,-7.5845,-7.532,-7.4965,-7.4916,-7.4266,-7.4209,-7.4525,-7.4525,-7.4663,-7.48,-7.4869,-7.4869,-7.4869,-7.4869,-7.4869,-7.4869,-7.4869,-7.4869,-7.4869,-7.4869,-7.4869,-7.4869,-7.4869,-7.454,-7.3851,-7.3253,-7.2565,-7.1876,-7.1248,-7.0919,-7.0859,-7.029,-6.9871,-6.9273,-6.8525,-6.7657,-6.6939,-6.5981,-6.5024,-6.4126,-6.3438,-6.3137,-6.3137,-6.3137,-6.3137,-6.3137,-6.3137,-6.2869,-6.254,-6.2271,-6.1762,-6.0984,-6.0505,-5.9937,-5.9548,-5.9308,-5.9099,-5.9099,-5.9099,-5.9099,-5.9099,-5.9099,-5.9099,-5.9009,-5.8411,-5.7663,-5.7064,-5.6735,-5.6406,-5.6107,-5.5987,-5.5867,-5.5688,-5.5598,-5.5448,-5.5299,-5.5209,-5.5209,-5.5209,-5.5209,-5.5239,-5.5269,-5.5269,-5.5239,-5.5209,-5.5209,-5.5209,-5.5149,-5.5059,-5.47,-5.4012,-5.3054,-5.2636,-5.2306,-5.1892,-5.1533,-5.1426,-5.1289,-5.1229,-5.1229,-5.1229,-5.1109,-5.0704,-5.0465,-5.0212,-7.3022,-7.2925,-7.3746,-7.4143,-7.4334,-7.4828,-7.5475,-7.6237,-7.6288,-7.6431,-7.643,-7.5955,-7.536,-7.5219,-7.4625,-7.4525,-7.4869,-7.48,-7.4869,-7.4869,-7.4869,-7.4869,-7.4869,-7.4869,-7.4869,-7.4869,-7.4869,-7.4869,-7.4869,-7.4869,-7.4869,-7.4869,-7.4869,-7.4599,-7.4031,-7.3313,-7.2595,-7.2026,-7.1278,-7.0919,-7.0829,-7.044,-7.0111,-6.9722,-6.8585,-6.7687,-6.7029,-6.6281,-6.5413,-6.4156,-6.3498,-6.3228,-6.3196,-6.3137,-6.3137,-6.3137,-6.3137,-6.3107,-6.2989,-6.254,-6.2181,-6.1822,-6.0924,-6.0176,-5.9997,-5.9578,-5.9279,-5.9129,-5.9099,-5.9099,-5.9099,-5.9099,-5.9099,-5.9099,-5.9009,-5.877,-5.8291,-5.7633,-5.7184,-5.7094,-5.7064,-5.6795,-5.6496,-5.6278,-5.6077,-5.5957,-5.5807,-5.5837,-5.5837,-5.5867,-5.5718,-5.5478,-5.5418,-5.5329,-5.5269,-5.5209,-5.5209,-5.5179,-5.5179,-5.494,-5.4521,-5.3773,-5.3174,-5.2714,-5.233,-5.194,-5.1558,-5.1439,-5.1319,-5.1229,-5.1229,-5.1229,-5.1139,-5.099,-5.075,-7.3506,-7.38,-7.4086,-7.4421,-7.4856,-7.5698,-7.6144,-7.6421,-7.6578,-7.6532,-7.6272,-7.5661,-7.5249,-7.497,-7.4821,-7.48,-7.4869,-7.4869,-7.4869,-7.4869,-7.4869,-7.4869,-7.4869,-7.4869,-7.4869,-7.4869,-7.4869,-7.4869,-7.4869,-7.4869,-7.4869,-7.4869,-7.4869,-7.4809,-7.451,-7.3462,-7.2864,-7.2505,-7.1517,-7.0919,-7.0919,-7.0769,-7.044,-6.9931,-6.8704,-6.7717,-6.7029,-6.637,-6.5622,-6.4874,-6.4186,-6.3617,-6.3199,-6.3137,-6.3137,-6.3137,-6.3137,-6.3137,-6.3107,-6.2899,-6.263,-6.2151,-6.1762,-6.1194,-6.0146,-6.0027,-5.9638,-5.9279,-5.9099,-5.9159,-5.9099,-5.9099,-5.9099,-5.9099,-5.9099,-5.9039,-5.88,-5.8291,-5.7752,-5.7334,-5.7214,-5.7064,-5.6915,-5.6915,-5.6795,-5.6675,-5.6615,-5.6645,-5.6585,-5.6496,-5.6286,-5.5987,-5.5957,-5.5837,-5.5448,-5.5329,-5.5209,-5.5209,-5.5209,-5.5179,-5.479,-5.4461,-5.3862,-5.3301,-5.2815,-5.239,-5.1917,-5.1528,-5.1379,-5.1319,-5.1229,-5.1229,-5.1229,-5.1229,-5.1199,-7.3863,-7.4196,-7.4449,-7.4951,-7.5544,-7.5884,-7.6296,-7.6667,-7.6575,-7.6314,-7.6104,-7.5727,-7.5359,-7.4899,-7.4869,-7.4869,-7.4869,-7.4869,-7.4869,-7.4869,-7.4869,-7.4869,-7.4869,-7.4869,-7.4869,-7.4869,-7.4869,-7.4869,-7.4869,-7.4869,-7.4869,-7.4869,-7.4869,-7.4869,-7.4689,-7.3582,-7.2984,-7.2624,-7.1607,-7.0919,-7.0919,-7.0889,-7.062,-6.9961,-6.8974,-6.8136,-6.7508,-6.6819,-6.6161,-6.5503,-6.4844,-6.4036,-6.3258,-6.3137,-6.3137,-6.3137,-6.3137,-6.3137,-6.3137,-6.3107,-6.2929,-6.257,-6.2301,-6.1762,-6.1104,-6.0775,-6.0236,-5.9757,-5.9548,-5.9488,-5.9159,-5.9099,-5.9099,-5.9099,-5.9099,-5.9099,-5.9039,-5.877,-5.8471,-5.8112,-5.8112,-5.7902,-5.7723,-5.7603,-5.7304,-5.7094,-5.6974,-5.6974,-5.6915,-5.6825,-5.6825,-5.6645,-5.6615,-5.6376,-5.5807,-5.5478,-5.5209,-5.5209,-5.5209,-5.5209,-5.5029,-5.479,-5.4551,-5.3991,-5.341,-5.2792,-5.2366,-5.1917,-5.1498,-5.1319,-5.1229,-5.1229,-5.1229,-5.1229,-5.1229,-7.4224,-7.433,-7.4879,-7.5572,-7.6155,-7.5959,-7.6256,-7.6847,-7.6498,-7.6104,-7.5876,-7.5826,-7.5347,-7.4958,-7.4869,-7.4869,-7.4869,-7.4869,-7.4869,-7.4869,-7.4869,-7.4869,-7.4869,-7.4869,-7.4869,-7.4869,-7.4869,-7.4869,-7.4869,-7.4869,-7.4869,-7.4869,-7.4869,-7.4869,-7.4569,-7.3612,-7.2924,-7.2744,-7.1607,-7.0919,-7.0919,-7.0889,-7.059,-6.9961,-6.9303,-6.8585,-6.7897,-6.7238,-6.664,-6.6041,-6.5473,-6.4515,-6.3588,-6.3109,-6.3137,-6.3137,-6.3137,-6.3137,-6.3137,-6.3137,-6.3107,-6.3049,-6.263,-6.2211,-6.1942,-6.1493,-6.0954,-6.0505,-6.0206,-5.9997,-5.9368,-5.9338,-5.9249,-5.9129,-5.9099,-5.9099,-5.9099,-5.9099,-5.9009,-5.8979,-5.877,-5.853,-5.8381,-5.8231,-5.7872,-5.7543,-5.7423,-5.7363,-5.7334,-5.7334,-5.7453,-5.7334,-5.7304,-5.6735,-5.6107,-5.5807,-5.5508,-5.5239,-5.5239,-5.5209,-5.5209,-5.5059,-5.482,-5.4551,-5.4061,-5.3443,-5.2845,-5.2366,-5.1917,-5.1498,-5.1259,-5.1229,-5.1229,-5.1229,-5.1229,-7.4792,-7.4884,-7.5794,-7.5976,-7.5827,-7.6534,-7.6657,-7.6397,-7.6055,-7.5966,-7.5826,-7.5318,-7.5048,-7.4899,-7.4869,-7.4869,-7.4869,-7.4869,-7.4869,-7.4869,-7.4869,-7.4869,-7.4869,-7.4869,-7.4869,-7.4869,-7.4869,-7.4869,-7.4869,-7.4869,-7.4869,-7.4869,-7.4869,-7.4869,-7.454,-7.3642,-7.2924,-7.2714,-7.1607,-7.0949,-7.0919,-7.0859,-7.0679,-7.0081,-6.9453,-6.8764,-6.8046,-6.7358,-6.67,-6.6071,-6.5922,-6.5114,-6.4066,-6.3408,-6.3139,-6.3137,-6.3137,-6.3137,-6.3137,-6.3137,-6.3137,-6.3049,-6.2929,-6.26,-6.2241,-6.2002,-6.1613,-6.1134,-6.0864,-6.0625,-6.0027,-5.9847,-5.9608,-5.9338,-5.9129,-5.9099,-5.9099,-5.9099,-5.9099,-5.9099,-5.9069,-5.9069,-5.886,-5.871,-5.853,-5.8351,-5.8321,-5.8291,-5.8321,-5.8321,-5.8381,-5.8201,-5.7962,-5.7184,-5.6346,-5.6137,-5.5918,-5.5418,-5.5299,-5.5209,-5.5209,-5.5209,-5.5029,-5.479,-5.4551,-5.4072,-5.3473,-5.2905,-5.2456,-5.2127,-5.1708,-5.1289,-5.1349,-5.1409,-5.1229,-7.542,-7.5669,-7.5901,-7.6137,-7.6343,-7.62,-7.6212,-7.6025,-7.5607,-7.5377,-7.5288,-7.5018,-7.4869,-7.4869,-7.4869,-7.4869,-7.4869,-7.4869,-7.4869,-7.4869,-7.4869,-7.4869,-7.4869,-7.4869,-7.4869,-7.4869,-7.4869,-7.4869,-7.4869,-7.4869,-7.4869,-7.4869,-7.4869,-7.4869,-7.4569,-7.3582,-7.3013,-7.2624,-7.1667,-7.0919,-7.0919,-7.0919,-7.0709,-7.038,-6.9812,-6.9183,-6.8525,-6.7837,-6.7208,-6.661,-6.6191,-6.5473,-6.4665,-6.3947,-6.3408,-6.3169,-6.3137,-6.3137,-6.3137,-6.3137,-6.3137,-6.3137,-6.3137,-6.2959,-6.269,-6.254,-6.2271,-6.1762,-6.1194,-6.0984,-6.0655,-6.0356,-5.9937,-5.9638,-5.9338,-5.9159,-5.9129,-5.9129,-5.9099,-5.9099,-5.9099,-5.9099,-5.9099,-5.9039,-5.9069,-5.9099,-5.9099,-5.9099,-5.9099,-5.9039,-5.8919,-5.871,-5.8381,-5.7812,-5.7004,-5.6615,-5.6278,-5.5748,-5.5418,-5.5329,-5.5209,-5.5209,-5.5209,-5.5089,-5.482,-5.4551,-5.4162,-5.3593,-5.3174,-5.2725,-5.2247,-5.1858,-5.1678,-5.1558,-5.1409,-7.5899,-7.6172,-7.593,-7.6212,-7.6622,-7.5844,-7.5518,-7.5518,-7.5138,-7.4929,-7.4869,-7.4869,-7.4869,-7.4869,-7.4869,-7.4869,-7.4869,-7.4869,-7.4869,-7.4869,-7.4869,-7.4869,-7.4869,-7.4869,-7.4869,-7.4869,-7.4869,-7.4869,-7.4869,-7.4869,-7.4869,-7.4869,-7.4869,-7.4869,-7.4599,-7.3582,-7.3103,-7.2505,-7.1607,-7.0949,-7.0919,-7.0919,-7.0919,-7.0859,-7.029,-6.9632,-6.8944,-6.8256,-6.7597,-6.6999,-6.646,-6.5922,-6.5263,-6.4575,-6.3917,-6.3378,-6.3169,-6.3137,-6.3137,-6.3137,-6.3137,-6.3137,-6.3137,-6.3079,-6.3049,-6.2929,-6.281,-6.2301,-6.1942,-6.1523,-6.1313,-6.0864,-6.0505,-6.0176,-5.9757,-5.9308,-5.9308,-5.9249,-5.9129,-5.9099,-5.9099,-5.9099,-5.9099,-5.9099,-5.9099,-5.9099,-5.9099,-5.9099,-5.9099,-5.9099,-5.9009,-5.8949,-5.871,-5.8351,-5.7782,-5.7214,-5.6675,-5.6047,-5.5748,-5.5538,-5.5359,-5.5209,-5.5209,-5.5209,-5.5149,-5.488,-5.4551,-5.4251,-5.3773,-5.3294,-5.2755,-5.2366,-5.2019,-5.175,-5.1588,-7.6022,-7.5666,-7.6577,-7.6432,-7.5695,-7.5737,-7.5458,-7.5048,-7.4929,-7.4869,-7.4869,-7.4869,-7.4869,-7.4869,-7.4869,-7.4869,-7.4869,-7.4869,-7.4869,-7.4869,-7.4869,-7.4869,-7.4869,-7.4869,-7.4869,-7.4869,-7.4869,-7.4869,-7.4869,-7.4869,-7.4869,-7.4869,-7.4869,-7.4869,-7.4749,-7.3552,-7.2954,-7.2684,-7.1577,-7.0919,-7.0919,-7.0919,-7.0919,-7.0739,-7.035,-6.9752,-6.9153,-6.8465,-6.7777,-6.7148,-6.6939,-6.652,-6.5922,-6.5263,-6.4605,-6.3947,-6.3438,-6.3137,-6.3137,-6.3137,-6.3137,-6.3137,-6.3137,-6.3137,-6.3137,-6.3137,-6.3019,-6.2989,-6.278,-6.248,-6.2061,-6.1852,-6.1553,-6.1014,-6.0386,-6.0057,-5.9937,-5.9518,-5.9368,-5.9213,-5.9243,-5.9129,-5.9099,-5.9099,-5.9099,-5.9099,-5.9099,-5.9099,-5.9099,-5.9099,-5.9099,-5.9039,-5.8979,-5.868,-5.8351,-5.7812,-5.7274,-5.6555,-5.6077,-5.5807,-5.5568,-5.5388,-5.5209,-5.5209,-5.5209,-5.5179,-5.494,-5.461,-5.4281,-5.3922,-5.3473,-5.2886,-5.23,-5.2001,-5.1798,-7.6167,-7.5975,-7.6094,-7.5974,-7.5647,-7.5428,-7.5168,-7.4929,-7.4869,-7.4869,-7.4869,-7.4869,-7.4869,-7.4869,-7.4869,-7.4869,-7.4869,-7.4869,-7.4869,-7.4869,-7.4869,-7.4869,-7.4869,-7.4869,-7.4869,-7.4869,-7.4869,-7.4869,-7.4869,-7.4869,-7.4869,-7.4869,-7.4869,-7.4869,-7.4749,-7.3552,-7.3043,-7.2535,-7.1697,-7.0949,-7.0919,-7.0919,-7.0919,-7.0889,-7.062,-7.0141,-6.9542,-6.8914,-6.8256,-6.7627,-6.7268,-6.667,-6.6041,-6.5383,-6.4725,-6.4036,-6.3408,-6.3109,-6.3137,-6.3137,-6.3137,-6.3137,-6.3137,-6.3137,-6.3137,-6.3137,-6.3137,-6.3107,-6.3137,-6.2899,-6.26,-6.2301,-6.2002,-6.1553,-6.1044,-6.0835,-6.0535,-5.9997,-5.9722,-5.9512,-5.9357,-5.9273,-5.9159,-5.9099,-5.9099,-5.9099,-5.9099,-5.9099,-5.9099,-5.9099,-5.9099,-5.9099,-5.9069,-5.8979,-5.868,-5.8291,-5.7962,-5.7274,-5.6457,-5.6137,-5.5837,-5.5628,-5.5418,-5.5239,-5.5209,-5.5179,-5.5179,-5.5029,-5.473,-5.4461,-5.4221,-5.3664,-5.3047,-5.2288,-5.2007,-7.6052,-7.5914,-7.5587,-7.5518,-7.5617,-7.5078,-7.4899,-7.4869,-7.4869,-7.4869,-7.4869,-7.4869,-7.4869,-7.4869,-7.4869,-7.4869,-7.4869,-7.4869,-7.4869,-7.4869,-7.4869,-7.4869,-7.4869,-7.4869,-7.4869,-7.4869,-7.4869,-7.4869,-7.4869,-7.4869,-7.4869,-7.4869,-7.4869,-7.4869,-7.454,-7.3612,-7.2774,-7.2116,-7.1368,-7.0949,-7.0919,-7.0919,-7.0919,-7.0919,-7.0829,-7.062,-6.9991,-6.9333,-6.8645,-6.7986,-6.7328,-6.6759,-6.6311,-6.5533,-6.4904,-6.4246,-6.3617,-6.3137,-6.3137,-6.3137,-6.3137,-6.3137,-6.3137,-6.3137,-6.3137,-6.3137,-6.3137,-6.3137,-6.3137,-6.3137,-6.3047,-6.26,-6.248,-6.2181,-6.1762,-6.1523,-6.1253,-6.0715,-6.0141,-5.9831,-5.9621,-5.9363,-5.9249,-5.9129,-5.9099,-5.9099,-5.9099,-5.9099,-5.9099,-5.9099,-5.9099,-5.9099,-5.9099,-5.9069,-5.8919,-5.865,-5.8381,-5.7939,-5.7154,-5.6466,-5.6166,-5.5837,-5.5568,-5.5388,-5.5269,-5.5179,-5.5179,-5.5179,-5.5179,-5.491,-5.464,-5.4411,-5.3853,-5.2976,-5.2247,-7.521,-7.5048,-7.5577,-7.5527,-7.4988,-7.4899,-7.4869,-7.4869,-7.4869,-7.4869,-7.4869,-7.4869,-7.4869,-7.4869,-7.4869,-7.4869,-7.4869,-7.4869,-7.4869,-7.4869,-7.4869,-7.4779,-7.4719,-7.4689,-7.4749,-7.4779,-7.4749,-7.4749,-7.4869,-7.4869,-7.4869,-7.4869,-7.4869,-7.4869,-7.448,-7.3612,-7.2295,-7.1607,-7.0979,-7.0919,-7.0919,-7.0919,-7.0919,-7.0919,-7.0859,-7.062,-6.9991,-6.9363,-6.8794,-6.8106,-6.7388,-6.6999,-6.661,-6.5622,-6.4964,-6.4635,-6.3647,-6.3169,-6.3137,-6.3137,-6.3137,-6.3137,-6.3137,-6.3137,-6.3137,-6.3137,-6.3137,-6.3137,-6.3137,-6.3137,-6.3079,-6.3019,-6.2869,-6.269,-6.2361,-6.2181,-6.1852,-6.1373,-6.08,-6.03,-5.9945,-5.9782,-5.9512,-5.9453,-5.9159,-5.9159,-5.9099,-5.9099,-5.9099,-5.9099,-5.9099,-5.9099,-5.9099,-5.9099,-5.9099,-5.889,-5.868,-5.8387,-5.7819,-5.7124,-5.6526,-5.6196,-5.5957,-5.5598,-5.5448,-5.5329,-5.5209,-5.5209,-5.5209,-5.5209,-5.5059,-5.471,-5.4212,-5.3375,-5.2677,-7.497,-7.4899,-7.5168,-7.5108,-7.4869,-7.4869,-7.4869,-7.4869,-7.4869,-7.4869,-7.4839,-7.4869,-7.4869,-7.4869,-7.4869,-7.4869,-7.4869,-7.4869,-7.4839,-7.4719,-7.454,-7.43,-7.418,-7.4001,-7.3821,-7.418,-7.43,-7.4569,-7.4839,-7.4809,-7.4869,-7.4869,-7.4869,-7.4869,-7.445,-7.3552,-7.2235,-7.1278,-7.0919,-7.0919,-7.0919,-7.0919,-7.0919,-7.0919,-7.0919,-7.0829,-7.044,-6.9512,-6.8974,-6.8405,-6.7537,-6.7148,-6.6789,-6.5682,-6.5114,-6.4874,-6.3767,-6.3199,-6.3137,-6.3137,-6.3137,-6.3137,-6.3137,-6.3137,-6.3137,-6.3137,-6.3137,-6.3137,-6.3137,-6.3137,-6.3137,-6.3137,-6.3077,-6.2989,-6.2869,-6.269,-6.2421,-6.1972,-6.1559,-6.1044,-6.0736,-6.0496,-6.0136,-5.9777,-5.9453,-5.9189,-5.9159,-5.9099,-5.9099,-5.9099,-5.9099,-5.9099,-5.9099,-5.9099,-5.9099,-5.9069,-5.9009,-5.8716,-5.8393,-5.7789,-5.7154,-5.6885,-5.6585,-5.6137,-5.5688,-5.5598,-5.5448,-5.5269,-5.5209,-5.5209,-5.5089,-5.4859,-5.4351,-5.3764,-5.3155,-7.4569,-7.454,-7.439,-7.442,-7.4569,-7.4569,-7.448,-7.43,-7.424,-7.43,-7.43,-7.445,-7.4569,-7.4629,-7.4809,-7.4689,-7.4569,-7.451,-7.439,-7.4151,-7.3791,-7.3612,-7.3432,-7.3313,-7.3283,-7.3552,-7.3672,-7.3911,-7.451,-7.4569,-7.4689,-7.4809,-7.4869,-7.4869,-7.4569,-7.3552,-7.2235,-7.1218,-7.0919,-7.0919,-7.0919,-7.0919,-7.0919,-7.0919,-7.0919,-7.0889,-7.053,-6.9722,-6.9064,-6.8525,-6.7867,-6.7119,-6.655,-6.5922,-6.5173,-6.4605,-6.3947,-6.3196,-6.3137,-6.3137,-6.3137,-6.3137,-6.3137,-6.3137,-6.3137,-6.3137,-6.3137,-6.3137,-6.3137,-6.3137,-6.3137,-6.3137,-6.3137,-6.3049,-6.3049,-6.2899,-6.2839,-6.254,-6.2249,-6.1923,-6.1559,-6.1164,-6.0723,-6.0335,-5.9842,-5.9458,-5.9159,-5.9099,-5.9099,-5.9099,-5.9099,-5.9099,-5.9099,-5.9099,-5.9099,-5.9069,-5.9039,-5.9009,-5.8686,-5.8363,-5.7879,-5.7603,-5.7154,-5.6645,-5.6256,-5.5987,-5.5718,-5.5478,-5.5329,-5.5209,-5.5089,-5.4999,-5.479,-5.4202,-5.3544,-7.3911,-7.3851,-7.3253,-7.3343,-7.3851,-7.3911,-7.3582,-7.3193,-7.3133,-7.3133,-7.3253,-7.3672,-7.3911,-7.4031,-7.436,-7.427,-7.3971,-7.3911,-7.3702,-7.3283,-7.3073,-7.2954,-7.2864,-7.2774,-7.2624,-7.2864,-7.2984,-7.3253,-7.3911,-7.3911,-7.421,-7.451,-7.451,-7.4569,-7.4689,-7.3552,-7.2235,-7.1098,-7.0919,-7.0919,-7.0919,-7.0919,-7.0919,-7.0919,-7.0919,-7.0919,-7.0649,-6.9662,-6.9064,-6.8794,-6.7717,-6.7059,-6.6849,-6.5712,-6.5084,-6.4934,-6.3767,-6.3139,-6.3137,-6.3137,-6.3137,-6.3137,-6.3137,-6.3137,-6.3137,-6.3137,-6.3137,-6.3137,-6.3137,-6.3137,-6.3137,-6.3137,-6.3137,-6.3137,-6.3137,-6.3137,-6.3019,-6.2959,-6.2665,-6.246,-6.2189,-6.1888,-6.1362,-6.0889,-6.0275,-5.9787,-5.9308,-5.9189,-5.9338,-5.9488,-5.9638,-5.9548,-5.9578,-5.9398,-5.9398,-5.9189,-5.9099,-5.9099,-5.9009,-5.8656,-5.8477,-5.8231,-5.7723,-5.7154,-5.6885,-5.6645,-5.6166,-5.5688,-5.5508,-5.5299,-5.5209,-5.5119,-5.494,-5.467,-5.4072,-7.3253,-7.3223,-7.3013,-7.2774,-7.2654,-7.3073,-7.3103,-7.2924,-7.2924,-7.2894,-7.2954,-7.3193,-7.3223,-7.3343,-7.3462,-7.3492,-7.3313,-7.3253,-7.2984,-7.2864,-7.2445,-7.2265,-7.2146,-7.1936,-7.1876,-7.2146,-7.2295,-7.2595,-7.3253,-7.3253,-7.3313,-7.3552,-7.3702,-7.3582,-7.3343,-7.2624,-7.1727,-7.1068,-7.0919,-7.0919,-7.0919,-7.0919,-7.0919,-7.0919,-7.0919,-7.0919,-7.0829,-6.9662,-6.9064,-6.8824,-6.7717,-6.7059,-6.6789,-6.5742,-6.5054,-6.4784,-6.3827,-6.3166,-6.3137,-6.3137,-6.3137,-6.3137,-6.3137,-6.3137,-6.3137,-6.3137,-6.3137,-6.3137,-6.3137,-6.3137,-6.3137,-6.3137,-6.3137,-6.3137,-6.3137,-6.3137,-6.3107,-6.3049,-6.2901,-6.2901,-6.275,-6.2421,-6.195,-6.1628,-6.1052,-6.0864,-6.0505,-6.0296,-6.0386,-6.0505,-6.0595,-6.0386,-6.0266,-5.9967,-5.9727,-5.9518,-5.9308,-5.9279,-5.9189,-5.9009,-5.883,-5.865,-5.8381,-5.7842,-5.7603,-5.7334,-5.6705,-5.6107,-5.5688,-5.5418,-5.5329,-5.5209,-5.5089,-5.494,-5.467,-7.2565,-7.2535,-7.2295,-7.1966,-7.1697,-7.2265,-7.2445,-7.2265,-7.2206,-7.2206,-7.2235,-7.2415,-7.2565,-7.2624,-7.2804,-7.2684,-7.2595,-7.2565,-7.2295,-7.2206,-7.1787,-7.1577,-7.1368,-7.1188,-7.1278,-7.1487,-7.1637,-7.1876,-7.2535,-7.2565,-7.2744,-7.2894,-7.2684,-7.2654,-7.2445,-7.2056,-7.1607,-7.1098,-7.0919,-7.0919,-7.0919,-7.0919,-7.0919,-7.0919,-7.0919,-7.0919,-7.056,-6.9871,-6.8974,-6.8615,-6.7897,-6.7029,-6.661,-6.5892,-6.5114,-6.4665,-6.3887,-6.3199,-6.3137,-6.3137,-6.3137,-6.3137,-6.3137,-6.3137,-6.3137,-6.3137,-6.3137,-6.3137,-6.3137,-6.3137,-6.3137,-6.3137,-6.3137,-6.3137,-6.3137,-6.3137,-6.3137,-6.3079,-6.3079,-6.3079,-6.3019,-6.272,-6.251,-6.2301,-6.1942,-6.1852,-6.1792,-6.1583,-6.1283,-6.1283,-6.1313,-6.1104,-6.0894,-6.0595,-6.0236,-5.9907,-5.9697,-5.9488,-5.9338,-5.9189,-5.9069,-5.889,-5.871,-5.853,-5.8112,-5.7693,-5.7124,-5.6585,-5.6077,-5.5658,-5.5388,-5.5299,-5.5209,-5.5089,-5.497,-7.1816,-7.1727,-7.1128,-7.0859,-7.0949,-7.1427,-7.1398,-7.0949,-7.0979,-7.1009,-7.1009,-7.1667,-7.1846,-7.1966,-7.2505,-7.2385,-7.1966,-7.1876,-7.1577,-7.1248,-7.1128,-7.1038,-7.1009,-7.0949,-7.1009,-7.0949,-7.1068,-7.1368,-7.1846,-7.1876,-7.2176,-7.2415,-7.2056,-7.1906,-7.1816,-7.1697,-7.1368,-7.1038,-7.0919,-7.0919,-7.0919,-7.0919,-7.0919,-7.0919,-7.0919,-7.0829,-7.044,-6.9692,-6.9093,-6.8495,-6.7717,-6.7208,-6.658,-6.5742,-6.5293,-6.4635,-6.3677,-6.3258,-6.3137,-6.3137,-6.3137,-6.3137,-6.3137,-6.3137,-6.3137,-6.3137,-6.3137,-6.3137,-6.3137,-6.3137,-6.3137,-6.3137,-6.3137,-6.3137,-6.3137,-6.3137,-6.3137,-6.3137,-6.3137,-6.3137,-6.3137,-6.2987,-6.2899,-6.275,-6.248,-6.254,-6.2421,-6.2211,-6.1942,-6.1702,-6.1702,-6.1642,-6.1433,-6.1224,-6.0864,-6.0505,-6.0057,-5.9817,-5.9518,-5.9368,-5.9249,-5.9129,-5.8949,-5.874,-5.8471,-5.8022,-5.7513,-5.7004,-5.6517,-5.6098,-5.5658,-5.5359,-5.5299,-5.5209,-5.5029,-7.053,-7.047,-6.9812,-6.9542,-6.9572,-6.9752,-7.0201,-7.0859,-7.0919,-7.0889,-7.0919,-7.1098,-7.1128,-7.1218,-7.1398,-7.1338,-7.1278,-7.1158,-7.1098,-7.0949,-7.0919,-7.0919,-7.0919,-7.0919,-7.0919,-7.0919,-7.0949,-7.1009,-7.1158,-7.1218,-7.1248,-7.1338,-7.1398,-7.1278,-7.1248,-7.1188,-7.1068,-7.0979,-7.0919,-7.0919,-7.0919,-7.0919,-7.0919,-7.0919,-7.0919,-7.0769,-7.0171,-6.9512,-6.8884,-6.8166,-6.7478,-6.6999,-6.6879,-6.6161,-6.5533,-6.4306,-6.3558,-6.3137,-6.3137,-6.3137,-6.3137,-6.3137,-6.3137,-6.3137,-6.3137,-6.3137,-6.3137,-6.3137,-6.3137,-6.3137,-6.3137,-6.3137,-6.3137,-6.3137,-6.3137,-6.3137,-6.3137,-6.3137,-6.3137,-6.3137,-6.3137,-6.3137,-6.3137,-6.3077,-6.2839,-6.3047,-6.2989,-6.272,-6.254,-6.2301,-6.2181,-6.2121,-6.2032,-6.1822,-6.1583,-6.1253,-6.0655,-6.0176,-5.9877,-5.9548,-5.9338,-5.9219,-5.9129,-5.8979,-5.874,-5.8411,-5.7992,-5.7483,-5.7034,-5.6406,-5.5957,-5.5628,-5.5359,-5.5239,-5.5179,-6.9602,-6.9542,-6.9183,-6.9004,-6.9004,-6.9004,-6.9482,-7.0081,-7.0141,-7.0141,-7.0141,-7.0141,-7.029,-7.053,-7.059,-7.0679,-7.0949,-7.0979,-7.0919,-7.0919,-7.0919,-7.0919,-7.0919,-7.0919,-7.0919,-7.0919,-7.0919,-7.0919,-7.0919,-7.0919,-7.0949,-7.0979,-7.0919,-7.0919,-7.0949,-7.0979,-7.0949,-7.0919,-7.0919,-7.0919,-7.0919,-7.0919,-7.0919,-7.0889,-7.0889,-7.053,-6.9961,-6.9303,-6.8645,-6.7986,-6.7328,-6.6999,-6.6879,-6.634,-6.5383,-6.4306,-6.3767,-6.3348,-6.3169,-6.3137,-6.3137,-6.3137,-6.3137,-6.3137,-6.3137,-6.3137,-6.3137,-6.3137,-6.3137,-6.3137,-6.3137,-6.3137,-6.3137,-6.3137,-6.3137,-6.3137,-6.3137,-6.3137,-6.3137,-6.3137,-6.3137,-6.3137,-6.3137,-6.3137,-6.3137,-6.3137,-6.3137,-6.3047,-6.2899,-6.281,-6.272,-6.272,-6.26,-6.248,-6.2211,-6.1912,-6.1433,-6.0835,-6.0236,-5.9907,-5.9548,-5.9249,-5.9129,-5.9099,-5.9069,-5.874,-5.8411,-5.8112,-5.7693,-5.7004,-5.6286,-5.5837,-5.5478,-5.5239,-5.5179,-6.8914,-6.8914,-6.8854,-6.8734,-6.8824,-6.8764,-6.8794,-6.8854,-6.8854,-6.8914,-6.9034,-6.9064,-6.9453,-6.9842,-6.9901,-7.0141,-7.041,-7.056,-7.0679,-7.0859,-7.0889,-7.0889,-7.0919,-7.0919,-7.0919,-7.0919,-7.0919,-7.0919,-7.0919,-7.0919,-7.0919,-7.0919,-7.0919,-7.0919,-7.0919,-7.0919,-7.0919,-7.0919,-7.0919,-7.0919,-7.0919,-7.0919,-7.0889,-7.0889,-7.0739,-7.047,-6.9842,-6.9243,-6.8615,-6.7926,-6.7418,-6.6999,-6.6789,-6.634,-6.5323,-6.4605,-6.4126,-6.3677,-6.3348,-6.3169,-6.3137,-6.3137,-6.3137,-6.3137,-6.3137,-6.3137,-6.3137,-6.3137,-6.3137,-6.3137,-6.3137,-6.3137,-6.3137,-6.3137,-6.3137,-6.3137,-6.3137,-6.3137,-6.3137,-6.3137,-6.3137,-6.3137,-6.3137,-6.3137,-6.3137,-6.3137,-6.3137,-6.3137,-6.3137,-6.3137,-6.3137,-6.3137,-6.2959,-6.281,-6.275,-6.248,-6.2181,-6.1642,-6.0924,-6.0266,-5.9907,-5.9518,-5.9129,-5.9099,-5.9099,-5.9099,-5.889,-5.859,-5.8141,-5.7483,-5.6765,-5.6077,-5.5658,-5.5388,-5.5179,-6.8226,-6.8166,-6.7687,-6.7478,-6.7478,-6.7478,-6.7478,-6.7478,-6.7478,-6.8016,-6.8854,-6.8974,-6.9034,-6.9183,-6.9243,-6.9423,-6.9602,-7.0051,-7.0201,-7.041,-7.062,-7.0829,-7.0919,-7.0919,-7.0919,-7.0919,-7.0919,-7.0919,-7.0919,-7.0919,-7.0919,-7.0919,-7.0919,-7.0919,-7.0919,-7.0919,-7.0919,-7.0919,-7.0919,-7.0919,-7.0919,-7.0919,-7.0889,-7.0739,-7.053,-6.9931,-6.9273,-6.8615,-6.7926,-6.7268,-6.7119,-6.6999,-6.6969,-6.637,-6.5922,-6.5443,-6.4575,-6.4036,-6.3647,-6.3318,-6.3166,-6.3137,-6.3137,-6.3137,-6.3137,-6.3137,-6.3137,-6.3137,-6.3137,-6.3137,-6.3137,-6.3137,-6.3137,-6.3137,-6.3137,-6.3137,-6.3137,-6.3137,-6.3137,-6.3137,-6.3137,-6.3137,-6.3137,-6.3137,-6.3137,-6.3137,-6.3137,-6.3137,-6.3137,-6.3137,-6.3137,-6.3137,-6.3137,-6.3047,-6.3047,-6.2899,-6.26,-6.2301,-6.1672,-6.0984,-6.0266,-5.9757,-5.9338,-5.9159,-5.9099,-5.9099,-5.9099,-5.9039,-5.856,-5.7842,-5.7304,-5.6645,-5.5987,-5.5628,-5.5388,-6.667,-6.661,-6.6281,-6.6131,-6.6131,-6.6131,-6.6101,-6.6131,-6.6131,-6.67,-6.7657,-6.7956,-6.8256,-6.8465,-6.8555,-6.8764,-6.8944,-6.9363,-6.9752,-7.0081,-7.026,-7.0649,-7.0769,-7.0859,-7.0919,-7.0919,-7.0919,-7.0919,-7.0919,-7.0919,-7.0919,-7.0919,-7.0919,-7.0919,-7.0919,-7.0919,-7.0919,-7.0919,-7.0919,-7.0919,-7.0919,-7.0919,-7.0709,-7.047,-7.0111,-6.9482,-6.8734,-6.8106,-6.7657,-6.7208,-6.6999,-6.6999,-6.6939,-6.667,-6.634,-6.5802,-6.5084,-6.4306,-6.3947,-6.3528,-6.3166,-6.3137,-6.3137,-6.3137,-6.3137,-6.3137,-6.3137,-6.3137,-6.3137,-6.3137,-6.3137,-6.3137,-6.3137,-6.3137,-6.3137,-6.3137,-6.3137,-6.3137,-6.3137,-6.3137,-6.3137,-6.3137,-6.3137,-6.3137,-6.3137,-6.3137,-6.3137,-6.3137,-6.3137,-6.3137,-6.3137,-6.3137,-6.3137,-6.3137,-6.3107,-6.3077,-6.2899,-6.26,-6.2301,-6.1373,-6.0475,-5.9967,-5.9548,-5.9338,-5.9189,-5.9099,-5.9099,-5.9099,-5.877,-5.8082,-5.7663,-5.7274,-5.6615,-5.5957,-5.5628,-6.5114,-6.5024,-6.5054,-6.5054,-6.5024,-6.5054,-6.5084,-6.5084,-6.5084,-6.5383,-6.6011,-6.655,-6.7119,-6.7657,-6.7867,-6.8286,-6.8585,-6.8734,-6.9183,-6.9482,-6.9752,-7.0141,-7.05,-7.0709,-7.0769,-7.0859,-7.0919,-7.0919,-7.0919,-7.0919,-7.0919,-7.0919,-7.0919,-7.0919,-7.0919,-7.0919,-7.0919,-7.0919,-7.0919,-7.0919,-7.0919,-7.0889,-7.056,-7.0231,-6.9782,-6.9183,-6.8375,-6.7777,-6.7478,-6.7268,-6.6999,-6.6999,-6.6999,-6.6879,-6.667,-6.6161,-6.5383,-6.4725,-6.4216,-6.3528,-6.3228,-6.3137,-6.3137,-6.3137,-6.3137,-6.3137,-6.3137,-6.3137,-6.3137,-6.3137,-6.3137,-6.3137,-6.3137,-6.3137,-6.3137,-6.3137,-6.3137,-6.3137,-6.3137,-6.3137,-6.3137,-6.3137,-6.3137,-6.3137,-6.3137,-6.3137,-6.3137,-6.3137,-6.3137,-6.3137,-6.3137,-6.3137,-6.3137,-6.3137,-6.3137,-6.3107,-6.3019,-6.2929,-6.251,-6.1553,-6.0745,-6.0236,-5.9817,-5.9458,-5.9308,-5.9159,-5.9099,-5.9099,-5.871,-5.8351,-5.7992,-5.7633,-5.7124,-5.6496,-5.5957,-6.5024,-6.5024,-6.5024,-6.5024,-6.4994,-6.4994,-6.5024,-6.5024,-6.4994,-6.5114,-6.5233,-6.5383,-6.6011,-6.7178,-6.7178,-6.7388,-6.7537,-6.7897,-6.8136,-6.8345,-6.8974,-6.9572,-6.9991,-7.0171,-7.047,-7.059,-7.0679,-7.0829,-7.053,-7.0679,-7.0859,-7.0769,-7.0859,-7.0859,-7.0889,-7.0889,-7.0919,-7.0919,-7.0919,-7.0919,-7.0919,-7.0799,-7.053,-7.0051,-6.9453,-6.8764,-6.8076,-6.7448,-6.7178,-6.7029,-6.6999,-6.6999,-6.6999,-6.6999,-6.6849,-6.646,-6.5682,-6.5054,-6.4455,-6.3617,-6.3228,-6.3137,-6.3137,-6.3137,-6.3137,-6.3137,-6.3137,-6.3137,-6.3137,-6.3137,-6.3137,-6.3137,-6.3137,-6.3137,-6.3137,-6.3137,-6.3137,-6.3137,-6.3137,-6.3137,-6.3137,-6.3137,-6.3137,-6.3137,-6.3137,-6.3137,-6.3137,-6.3137,-6.3137,-6.3137,-6.3137,-6.3137,-6.3137,-6.3137,-6.3137,-6.3137,-6.3107,-6.3019,-6.2839,-6.2121,-6.1373,-6.0595,-6.0146,-5.9757,-5.9398,-5.9213,-5.9129,-5.9099,-5.9039,-5.874,-5.8321,-5.7932,-5.7483,-5.7064,-5.6555]}]]